GFSNW_250_spd_000.txt.gz
Wind_Speed
57 52 42 44 37 42 41 40 38 35 34 34 33 30 26 27 26 26 24 20 18 16 11 10 12 13 13 15 17 17 15 13 9 7 3 3 5 6 7 10 12 15 17 18
58 55 46 45 46 46 46 41 40 36 37 36 34 32 31 30 29 28 24 21 19 16 14 13 14 15 17 18 17 15 14 11 8 5 6 8 10 11 12 15 18 20 20 23
61 52 50 50 54 51 49 44 41 37 40 39 36 35 32 33 31 27 25 22 19 16 14 15 16 18 17 17 15 14 11 9 8 8 11 13 15 15 17 20 22 26 26 29
60 53 56 60 56 54 50 40 39 39 40 37 36 34 35 33 29 26 26 23 20 17 15 16 17 19 19 17 14 13 12 12 12 13 16 17 20 22 24 27 29 32 33 34
61 59 62 62 56 56 49 40 41 41 45 41 38 36 35 32 28 27 26 23 20 19 17 16 14 14 14 14 14 14 15 17 17 17 18 20 24 28 29 31 35 37 36 40
62 60 65 61 56 57 47 44 44 45 45 39 36 37 36 32 29 28 27 25 21 19 18 17 16 14 14 16 18 20 21 20 20 23 25 24 30 31 32 35 39 39 39 45
63 66 65 58 58 58 50 49 47 45 43 39 39 38 35 32 30 29 28 26 23 22 21 21 21 21 21 22 23 25 26 27 27 28 29 26 35 38 38 38 39 40 45 49
67 69 64 57 61 56 51 50 47 46 46 44 41 37 36 35 31 30 28 25 25 24 24 24 24 23 24 24 26 29 31 31 31 30 32 32 36 41 42 39 39 47 50 55
71 66 62 57 62 54 52 50 48 49 48 42 42 41 38 37 36 33 30 27 26 25 26 26 26 26 27 28 31 32 32 33 34 35 37 36 38 44 44 44 43 53 56 61
69 64 60 57 62 53 54 51 49 49 48 43 41 41 40 39 37 35 34 33 31 30 29 28 28 29 29 31 32 34 35 37 39 41 40 38 42 45 47 50 52 56 62 67
66 63 58 58 61 53 56 53 49 48 47 44 42 41 39 38 36 34 32 32 34 35 34 34 34 33 34 35 37 39 40 41 43 44 46 44 46 46 51 57 59 62 66 70
65 61 58 58 62 55 55 53 50 48 47 44 44 44 41 39 36 33 32 33 35 35 36 36 35 36 37 39 40 43 45 48 49 51 51 50 49 53 59 63 65 69 71 73
62 61 59 59 60 57 56 55 52 50 49 46 46 46 43 40 37 35 36 37 38 35 37 38 39 40 42 43 45 48 50 49 50 51 54 57 59 61 66 66 69 73 75 77
60 59 58 60 61 56 51 52 53 53 51 50 48 47 45 44 43 42 40 39 40 40 40 40 39 40 41 43 45 45 51 57 58 57 60 61 65 69 69 71 74 78 81 81
57 55 55 62 61 57 52 51 53 55 53 51 50 51 49 49 48 49 49 47 47 47 47 48 48 48 49 49 51 57 64 63 62 61 65 66 70 72 75 78 81 83 84 84
52 51 56 62 61 59 54 51 50 50 53 51 50 50 51 52 52 52 53 54 54 52 52 52 53 55 55 53 55 66 70 68 69 69 71 72 74 76 80 84 85 83 84 87
50 48 54 61 61 59 56 53 54 51 50 51 51 51 51 51 52 55 56 57 58 57 57 59 62 64 62 60 60 73 73 73 76 78 78 78 82 81 83 83 85 87 87 87
49 46 50 60 62 61 57 58 56 53 51 51 50 50 52 54 56 58 59 60 61 61 62 62 64 63 65 64 71 75 78 79 80 81 82 81 80 81 83 84 84 87 90 93
50 47 46 55 58 60 61 59 56 55 57 58 57 57 60 60 64 65 66 65 65 64 64 67 68 66 68 72 74 75 76 77 77 79 81 83 83 83 84 87 89 92 94 97
53 51 48 47 50 52 54 56 56 55 55 56 61 65 67 69 71 71 72 71 69 66 68 71 70 68 72 76 77 78 80 81 81 81 82 83 86 88 91 94 95 98 101 105
56 56 54 54 54 53 53 53 54 55 55 55 58 62 67 71 73 75 76 75 74 71 72 74 71 72 76 77 79 79 80 82 84 87 90 92 93 96 98 101 103 106 108 110
54 54 54 53 54 53 52 50 52 54 58 59 64 67 69 68 70 71 72 75 75 74 74 74 72 73 78 79 81 84 87 90 93 96 98 100 103 105 106 107 109 109 109 113
56 56 56 53 52 50 49 50 53 57 59 61 64 67 68 69 71 73 75 76 75 75 74 75 78 82 84 86 89 92 94 96 98 102 104 106 109 111 112 115 114 113 114 110
59 59 58 58 57 56 56 57 60 60 61 62 64 67 68 71 72 74 76 77 78 79 82 85 90 92 92 94 95 96 99 102 103 107 110 112 111 111 111 110 107 105 105 105
62 64 65 63 64 64 64 65 65 66 67 69 70 72 74 77 80 82 83 85 87 89 91 92 95 97 99 101 102 103 108 110 109 109 108 106 105 104 104 104 106 107 108 109
63 63 65 67 69 70 70 71 72 74 75 75 77 78 80 82 85 86 88 90 92 95 98 101 103 104 106 109 109 106 105 105 104 104 105 105 106 106 107 108 109 107 104 99
70 70 69 71 72 73 74 76 77 78 79 81 84 85 87 89 91 93 96 98 97 99 103 109 111 109 106 105 104 107 106 105 106 107 107 109 110 110 108 104 97 93 90 91

GFSNW_250_spd_003.txt.gz
Wind_Speed
82 76 72 66 52 41 37 37 30 26 31 31 30 30 32 29 28 25 23 21 20 17 14 13 12 12 12 11 14 19 23 21 18 16 13 10 7 5 6 7 7 9 12 15
84 79 73 61 53 40 43 41 35 34 35 35 34 35 31 28 27 27 24 23 20 17 15 13 13 15 13 16 21 23 20 18 15 12 9 7 7 7 9 11 12 15 18 21
84 78 74 63 51 46 45 44 37 37 39 40 39 37 33 30 29 29 27 23 21 21 18 15 16 15 16 20 20 17 16 14 11 9 8 8 9 10 13 15 18 21 23 27
82 76 70 59 53 51 45 44 35 43 41 40 41 38 34 32 32 32 29 24 24 22 18 18 18 17 18 16 16 14 14 12 11 11 11 10 12 14 18 20 25 25 27 31
76 72 66 59 54 53 47 42 44 47 48 46 44 38 34 34 34 34 30 28 26 22 20 20 18 18 18 16 15 13 12 13 15 14 14 15 18 22 24 27 29 29 32 38
74 70 64 60 55 53 51 48 50 52 50 46 42 39 39 38 38 35 31 30 27 24 23 21 19 18 19 18 18 18 18 19 18 17 18 20 24 31 30 32 33 35 37 41
71 68 69 59 58 56 54 54 54 53 48 47 44 42 39 40 40 37 33 31 29 26 25 24 23 22 22 21 21 21 22 23 22 23 25 24 32 37 36 34 38 40 42 41
72 70 65 60 62 60 56 59 58 54 50 50 46 42 39 41 41 38 34 32 31 28 27 26 24 24 24 24 24 25 25 26 26 27 30 30 34 38 40 41 42 45 44 45
69 66 64 60 62 61 60 62 58 54 52 49 48 44 41 42 41 38 35 33 31 29 27 27 27 26 25 26 27 28 28 30 30 32 32 32 37 41 43 45 43 48 51 51
64 64 61 62 65 59 63 62 57 54 52 51 47 42 42 43 41 38 34 32 30 30 30 29 29 28 27 29 30 32 32 33 35 36 36 36 40 43 45 48 49 51 53 56
62 63 62 62 62 62 64 58 57 54 53 50 47 44 43 43 42 40 36 32 32 31 31 30 30 30 31 31 33 34 35 36 38 39 40 42 45 47 50 52 53 54 57 60
61 60 62 61 59 66 62 58 56 54 52 51 50 47 44 43 41 39 37 36 37 37 35 36 35 36 36 38 38 39 40 42 43 47 49 50 51 51 53 55 58 62 64 67
59 59 61 61 60 68 63 57 56 56 54 52 50 46 43 42 43 39 37 39 38 35 35 36 37 37 38 38 39 42 44 47 49 51 53 55 55 57 60 62 64 67 70 72
55 59 62 61 58 67 61 56 59 57 53 52 51 49 46 44 42 42 41 39 38 35 35 36 38 39 40 41 42 44 46 48 49 50 55 57 63 66 66 68 72 74 75 79
57 61 60 57 57 65 60 55 59 54 51 49 51 50 47 47 45 45 44 43 42 41 40 40 39 40 42 42 44 50 56 56 56 58 62 63 66 69 71 74 77 81 84 85
59 61 60 57 58 63 60 58 56 54 52 51 50 49 49 48 47 49 50 49 49 48 47 46 46 48 47 48 51 61 63 62 65 64 67 70 71 73 75 79 82 82 82 82
61 58 58 56 57 60 61 53 54 56 57 56 55 54 53 52 51 51 52 52 52 52 52 52 52 54 55 56 60 67 70 71 71 72 72 73 76 78 82 83 81 82 83 83
57 55 55 55 55 59 60 56 54 55 55 54 54 55 56 55 56 57 56 56 55 55 55 55 57 58 61 61 66 70 72 74 75 77 78 79 80 80 82 82 83 84 86 89
55 54 54 55 55 60 61 61 56 53 51 52 55 58 60 58 61 61 60 58 58 58 59 62 63 64 66 68 69 71 73 76 79 81 83 82 83 83 84 84 87 90 93 96
54 53 53 49 47 51 63 64 62 57 53 51 51 54 55 57 58 58 59 61 62 62 65 67 65 65 69 72 74 76 78 81 83 84 84 86 86 86 88 91 95 97 100 102
53 53 52 47 44 46 53 62 60 60 56 55 55 58 60 62 62 64 66 66 67 66 67 69 69 70 75 78 81 82 84 84 85 87 87 86 88 91 96 98 100 104 106 109
53 52 50 48 44 42 43 50 58 60 62 63 64 66 67 67 68 68 68 70 70 70 72 74 73 75 77 78 79 81 84 85 86 87 90 93 97 99 101 104 108 110 111 112
57 56 54 53 49 43 39 44 50 57 63 67 69 70 71 72 73 70 69 68 67 68 67 69 73 76 77 80 80 81 84 87 90 94 97 99 102 104 107 109 110 109 110 111
55 52 51 51 47 46 48 50 52 55 57 59 61 61 62 64 65 65 67 68 69 70 71 74 75 76 78 81 85 89 91 93 96 99 103 106 106 109 109 111 112 111 112 113
55 57 54 51 51 53 55 56 58 59 60 61 61 62 63 65 66 67 69 71 72 74 77 79 81 84 87 91 93 96 99 100 103 106 109 108 107 108 113 111 111 112 114 115
59 57 56 58 59 58 58 58 60 61 62 63 64 66 67 69 72 73 75 77 79 82 85 89 91 93 96 97 99 101 104 107 107 108 108 110 113 113 111 112 111 110 109 105
60 63 64 62 62 63 64 65 66 67 68 69 71 72 73 75 77 79 82 85 87 91 94 96 98 99 100 101 102 103 104 104 105 107 108 109 111 113 113 110 103 100 99 97

GFSNW_250_spd_006.txt.gz
Wind_Speed
105 109 113 104 95 80 74 70 63 47 40 35 32 29 30 32 29 27 28 26 23 21 20 18 17 17 16 15 16 17 19 21 23 22 22 19 16 12 10 9 9 10 12 12
92 93 96 89 80 69 72 69 50 43 39 34 33 33 33 33 31 33 31 27 23 22 18 17 16 16 16 15 17 21 24 26 24 22 19 16 14 14 14 13 13 15 17 19
84 85 81 77 75 74 72 66 50 44 39 39 36 37 37 34 35 35 32 26 24 23 21 19 18 18 17 17 22 25 25 24 21 18 16 16 15 14 14 14 15 20 22 24
87 83 74 78 79 75 68 55 45 44 41 40 39 39 39 37 34 34 31 28 27 25 24 20 17 16 18 23 28 25 24 23 21 19 16 15 15 14 17 18 21 25 27 30
82 80 82 82 79 74 65 49 48 44 46 46 44 41 40 38 37 36 32 30 28 27 24 20 19 20 21 25 24 21 22 23 22 21 20 18 17 20 22 22 26 29 30 36
77 85 82 80 76 71 59 53 52 49 51 49 47 44 42 40 39 37 33 32 30 27 25 23 24 23 23 25 25 25 24 25 25 25 22 20 22 25 26 28 31 32 34 37
74 80 80 80 76 70 58 57 54 53 52 49 49 48 46 44 41 38 36 35 32 29 27 27 26 26 27 27 27 28 28 28 27 27 24 22 29 31 32 33 36 35 37 40
71 76 78 79 77 64 62 62 54 58 54 53 54 51 48 44 41 36 37 37 34 32 29 28 27 29 29 30 30 29 29 29 28 28 29 29 32 35 38 37 38 38 41 43
69 74 74 75 68 65 65 61 59 60 56 56 56 52 48 44 41 38 39 37 35 34 32 30 31 32 31 32 32 31 30 30 30 31 31 33 37 38 40 41 41 43 46 47
65 71 71 67 67 66 67 62 62 60 59 60 54 52 46 44 43 41 42 39 36 34 35 34 33 33 33 33 32 31 31 32 33 34 35 37 39 40 42 44 45 48 51 53
66 67 68 70 69 70 64 63 63 59 59 57 53 52 47 45 43 42 44 41 37 36 37 36 33 33 33 34 34 34 34 34 37 38 39 40 43 44 47 50 53 55 56 58
66 67 70 70 69 66 64 63 62 60 60 54 53 52 49 48 46 44 43 41 37 38 38 38 36 36 36 35 36 37 38 39 41 43 45 47 45 48 51 52 54 56 59 62
67 68 68 67 66 62 63 62 61 58 60 55 54 53 49 48 44 43 42 41 39 38 38 36 36 36 38 39 40 42 44 46 49 49 48 48 49 50 51 54 58 63 64 67
66 66 65 64 60 61 64 61 61 59 60 55 53 53 51 48 44 43 44 43 43 43 42 40 40 41 41 43 44 46 48 48 47 47 51 52 55 57 59 63 67 68 69 73
64 61 60 59 59 64 60 62 61 60 59 56 55 55 54 50 48 46 45 46 45 42 41 40 40 41 41 41 41 44 47 48 51 53 56 58 62 65 67 70 72 74 75 76
55 54 51 55 61 60 57 61 59 60 59 58 55 54 54 53 50 48 47 44 43 43 43 42 42 44 46 46 48 51 54 56 55 57 63 67 68 71 72 75 76 76 79 81
50 50 54 59 61 57 54 61 58 58 55 55 56 57 54 54 52 50 48 47 46 45 46 47 50 51 51 52 54 59 62 63 65 68 70 72 74 75 77 78 78 81 84 85
47 48 57 62 61 58 56 64 62 58 53 53 56 55 56 55 55 53 50 49 50 51 53 54 55 55 56 57 61 63 66 69 72 76 76 77 79 80 80 82 85 87 85 87
45 49 58 59 54 56 53 58 64 57 53 52 54 57 57 57 58 57 56 57 56 55 55 56 57 59 62 65 67 69 71 75 78 80 81 81 82 84 86 87 86 87 90 91
43 49 55 55 54 56 53 54 61 59 54 53 56 59 60 60 60 60 60 58 57 57 59 59 60 61 67 70 73 75 77 79 81 81 83 85 87 86 85 87 90 91 91 96
43 50 55 55 55 55 52 51 57 61 57 54 56 59 62 64 63 63 61 59 60 59 61 63 62 63 69 73 75 77 78 81 84 86 85 85 85 88 90 91 93 97 100 103
44 51 55 52 49 53 53 50 50 56 61 61 61 61 61 61 61 61 59 61 63 62 65 67 66 69 73 75 77 79 81 80 80 82 84 87 90 91 94 97 100 103 106 109
47 49 52 53 50 47 49 52 55 57 62 68 69 68 66 66 68 68 67 66 66 67 67 68 71 76 77 79 81 80 80 82 84 86 88 90 93 97 100 104 106 109 110 112
49 53 54 54 51 50 54 55 55 56 59 62 65 69 72 71 71 70 71 71 71 72 72 75 79 81 80 78 79 81 83 84 86 89 93 97 99 102 104 107 109 110 109 108
51 52 50 48 49 51 51 53 53 51 50 50 52 56 61 66 70 72 72 72 71 72 73 74 74 76 78 80 82 84 87 89 93 96 99 103 104 105 106 105 106 108 108 108
49 49 49 51 51 52 54 54 55 56 57 57 58 59 60 61 63 64 66 69 69 72 74 76 77 79 82 85 88 90 94 97 101 103 104 106 105 105 105 106 107 107 109 109
51 52 55 57 56 58 58 59 60 60 61 63 63 65 67 68 70 71 73 75 76 77 79 81 82 85 88 92 95 98 101 102 103 105 104 103 104 104 105 104 105 106 104 101

GFSNW_250_spd_009.txt.gz
Wind_Speed
118 115 111 108 104 101 94 90 86 83 85 77 74 70 70 62 44 34 29 29 27 24 23 22 22 21 21 21 22 22 23 22 24 22 22 21 20 18 17 16 15 13 12 13
118 114 114 110 106 98 95 87 90 87 83 74 71 69 70 50 46 34 33 31 27 25 26 24 22 22 22 21 21 22 23 24 24 24 25 24 22 21 20 19 17 17 18 18
105 105 110 109 100 97 92 94 90 86 78 75 73 71 61 49 45 35 35 32 31 29 28 24 22 21 21 20 20 22 24 25 26 26 23 23 23 22 21 20 19 21 22 24
90 92 98 100 99 95 95 90 87 82 77 74 70 64 50 48 42 38 36 34 34 32 29 26 25 24 22 22 22 25 27 28 29 25 25 23 22 22 23 23 23 25 27 28
90 82 83 85 88 92 91 83 79 76 74 65 59 53 49 47 44 41 38 39 36 32 30 27 24 22 22 22 24 27 29 29 28 27 26 24 24 26 26 26 26 27 29 33
84 77 72 74 79 71 75 76 71 72 60 52 55 51 48 48 45 41 40 38 36 35 33 29 26 24 23 24 26 29 30 29 29 29 28 28 29 29 27 29 31 31 33 37
73 75 74 69 64 63 67 66 67 61 51 56 55 52 51 50 46 43 42 39 38 36 34 31 28 25 23 26 31 33 32 30 31 33 31 30 33 32 31 33 35 35 38 43
69 69 70 65 62 65 66 66 65 58 58 59 58 54 51 52 49 44 43 41 40 38 34 31 30 26 26 29 32 35 34 33 34 35 36 35 36 37 37 37 40 39 44 45
62 67 63 64 65 67 67 62 60 56 61 60 58 56 54 49 47 46 43 41 41 38 35 32 31 27 28 31 33 34 34 35 36 37 37 37 38 38 40 43 43 44 48 49
64 66 65 67 65 65 68 67 60 62 64 62 57 54 53 52 49 48 44 43 41 40 37 34 32 31 31 32 34 35 36 37 37 38 38 39 40 42 42 43 47 47 50 53
71 68 69 67 67 69 66 62 63 65 65 58 55 55 56 54 49 47 44 43 40 41 39 35 35 34 34 34 36 37 37 37 39 40 41 41 43 43 47 47 50 53 55 56
67 69 69 71 71 70 66 60 64 62 64 56 53 52 55 53 54 54 46 45 43 42 37 38 35 37 38 37 38 38 39 40 42 44 44 43 44 47 49 52 56 57 56 57
64 66 69 72 72 67 65 60 63 59 58 54 55 56 55 54 52 49 48 44 43 43 41 40 37 39 41 41 40 40 41 43 43 45 46 47 50 53 55 57 56 58 60 63
63 65 69 68 65 65 66 59 62 63 54 53 52 55 56 53 52 51 46 45 46 45 43 42 41 41 42 43 42 43 44 44 46 48 51 51 54 54 55 59 59 61 66 70
62 61 63 66 68 66 66 60 58 57 56 54 55 57 58 53 54 52 49 48 47 46 46 45 42 42 42 43 44 46 48 48 49 48 48 52 55 56 59 60 64 69 73 77
61 65 66 68 68 64 59 53 53 55 52 54 54 56 57 52 53 53 51 50 49 48 48 48 47 47 47 47 48 48 48 48 48 52 57 60 61 61 65 67 71 75 80 82
68 71 69 68 63 59 56 56 55 53 54 56 53 57 57 54 55 55 53 52 50 50 50 49 50 50 49 47 48 48 53 55 58 61 63 64 68 68 71 74 77 81 84 87
66 64 61 60 59 60 58 57 55 55 57 57 55 53 58 55 53 53 56 55 53 51 50 50 50 50 51 51 53 58 62 65 64 67 69 72 73 76 80 80 83 85 88 90
54 55 58 57 54 52 50 54 58 54 59 59 55 53 54 56 55 55 57 57 56 54 54 54 54 53 54 60 64 67 68 69 69 72 73 75 79 82 83 85 86 88 92 89
50 50 51 51 53 53 53 60 58 52 49 52 52 54 56 55 55 56 56 57 58 58 59 59 58 58 62 67 70 70 71 72 73 73 76 80 82 83 84 87 91 91 89 91
46 46 46 46 51 52 57 58 54 48 49 52 52 52 54 56 56 56 56 58 59 58 60 61 61 62 70 75 77 76 74 74 76 79 82 83 85 87 89 92 91 91 93 96
42 42 44 41 51 54 56 55 50 45 45 52 55 56 58 59 59 59 59 60 62 60 62 64 63 66 73 77 77 77 78 79 81 84 86 87 89 91 92 92 93 95 98 102
37 38 43 45 51 55 54 53 52 52 53 54 57 61 63 62 61 60 60 61 62 64 64 65 65 73 78 77 78 79 80 82 85 86 88 91 92 91 92 95 98 101 105 108
39 39 40 44 50 53 56 55 56 55 57 56 56 57 60 65 68 68 67 66 67 67 67 68 75 78 79 79 80 82 84 86 89 91 91 90 92 95 98 101 104 107 111 114
43 43 42 47 52 57 59 59 58 59 60 62 62 60 59 62 64 67 71 72 73 74 74 78 80 81 82 84 86 88 91 91 88 88 91 94 97 100 103 106 110 113 115 116
43 44 45 49 54 58 61 62 62 61 60 59 59 60 61 62 64 67 68 70 68 70 72 75 77 80 82 84 84 84 85 88 91 94 97 100 103 106 109 111 112 114 112 111
35 39 43 49 55 58 60 60 59 58 58 58 58 59 62 64 66 65 65 66 67 68 68 70 73 76 79 81 84 87 91 94 97 100 102 106 109 110 111 112 111 109 108 109

GFSNW_250_spd_015.txt.gz
Wind_Speed
115 116 116 112 107 103 100 93 87 90 91 86 73 62 55 61 61 50 51 53 51 51 52 40 35 29 28 19 18 23 24 27 30 28 30 29 31 29 23 23 24 24 27 25
126 119 118 115 111 107 106 98 90 94 95 82 69 59 59 61 57 52 52 54 55 53 52 39 33 29 27 25 19 21 22 25 25 24 27 25 25 22 24 24 25 28 25 22
121 124 121 118 118 113 109 105 100 100 95 78 70 62 58 61 55 53 53 56 56 55 51 41 34 31 31 22 25 24 25 26 24 25 26 24 24 25 27 27 30 26 27 21
114 120 122 121 120 115 115 109 100 97 89 78 67 61 61 60 56 53 57 58 58 56 48 36 32 30 31 26 24 23 26 28 27 27 28 25 26 26 27 30 32 26 27 27
100 113 120 119 116 114 116 109 99 94 91 80 77 71 67 61 58 58 59 61 61 56 48 40 36 30 32 27 24 24 25 25 25 27 26 24 27 29 32 34 29 29 27 26
86 96 113 116 115 118 110 102 95 94 89 84 78 67 65 63 62 61 61 62 62 55 44 36 32 33 35 26 26 25 26 28 27 29 29 31 30 36 31 29 28 28 28 28
79 85 94 103 107 107 100 93 87 87 83 83 75 74 73 66 62 60 62 63 61 55 44 38 34 36 34 25 21 22 29 29 28 30 29 30 36 32 31 31 29 30 31 32
73 76 82 88 89 91 96 100 93 92 91 83 79 76 70 70 64 66 62 60 60 56 50 39 36 36 37 33 31 30 33 28 28 30 30 32 32 35 32 31 33 35 38 38
65 70 74 73 77 77 88 92 99 91 91 79 78 79 74 68 65 66 59 58 58 51 45 40 39 40 41 37 39 37 32 27 29 31 31 32 32 36 36 35 34 40 43 45
62 67 68 66 64 63 75 81 83 88 84 80 77 70 68 71 68 62 59 49 48 47 40 38 39 42 42 41 40 36 32 30 30 29 32 34 34 38 37 38 39 42 47 48
62 65 65 61 57 58 61 62 73 78 77 73 72 73 69 68 64 56 53 47 56 44 39 40 44 46 44 42 41 39 36 33 30 31 34 38 39 40 41 42 43 45 47 49
57 62 62 58 57 55 52 53 57 64 65 71 70 69 69 61 52 44 46 49 50 47 43 45 45 48 44 43 41 41 39 36 33 32 34 37 38 39 42 42 45 48 48 51
58 60 59 61 57 51 48 47 46 46 47 31 44 44 51 39 36 43 49 45 46 41 41 45 46 46 46 44 42 41 41 40 37 36 38 38 37 41 42 46 49 51 53 56
59 63 68 64 62 60 49 47 39 35 46 40 41 26 31 33 40 29 46 44 44 44 43 47 48 49 47 46 42 42 42 42 41 43 42 40 41 43 47 50 53 53 57 60
70 74 74 73 70 67 59 41 29 16 33 42 27 32 36 39 48 55 56 47 46 49 50 48 47 48 49 48 45 45 43 42 46 43 44 42 43 46 49 52 55 56 60 62
75 76 77 74 73 78 63 42 43 43 40 46 40 38 47 50 51 48 47 44 42 48 46 43 46 49 51 49 47 45 46 49 49 46 45 47 49 51 55 57 59 61 62 63
73 73 71 66 68 70 85 68 66 51 47 46 44 48 52 51 48 46 45 47 47 44 46 45 47 50 52 50 47 47 48 52 52 53 52 53 54 58 60 60 62 64 66 70
74 77 77 74 76 75 73 67 54 42 49 52 54 52 53 49 50 51 47 45 46 44 44 47 50 53 54 51 48 51 52 53 54 58 59 59 60 63 65 66 66 70 74 77
66 75 84 92 92 77 87 72 60 62 60 57 57 55 55 54 56 52 50 49 47 46 45 46 51 52 54 51 54 58 57 56 57 61 64 65 65 65 68 71 74 77 81 83
63 69 66 64 64 82 89 86 76 60 55 55 56 53 52 55 54 50 51 51 49 48 46 48 50 50 52 54 58 61 62 60 62 65 67 69 70 71 74 76 79 82 86 87
55 55 56 57 63 64 67 60 54 59 58 55 56 57 56 52 52 50 51 51 51 50 48 48 47 49 53 54 58 61 62 65 67 70 72 73 74 76 78 78 80 82 85 87
44 52 58 66 66 61 54 52 52 55 58 54 55 56 56 53 49 49 47 49 51 52 50 48 41 47 55 58 61 63 66 66 68 68 68 68 70 73 76 80 82 84 87 90
50 57 63 64 62 59 50 43 45 47 54 57 56 54 54 54 55 54 54 54 54 53 50 48 44 50 55 59 63 65 67 70 70 69 71 73 75 78 82 84 88 91 95 97
44 48 52 56 49 54 58 54 51 47 51 54 55 53 53 55 57 59 59 60 57 55 56 54 55 59 61 63 64 66 68 71 73 75 77 78 82 86 88 91 93 92 93 95
42 45 48 51 52 51 54 56 56 49 47 48 49 51 53 55 57 57 58 60 60 56 54 59 62 64 66 66 68 71 73 75 78 80 81 84 86 87 88 90 91 93 95 98
36 40 43 45 46 47 48 49 50 52 52 51 52 54 55 58 59 60 59 61 60 61 62 64 66 68 70 71 72 73 75 76 78 80 83 84 86 89 91 93 95 98 100 102
36 39 43 45 48 49 51 51 52 54 55 55 56 57 58 61 64 64 64 64 65 67 67 68 68 68 70 72 74 77 80 81 83 86 87 89 91 93 95 97 99 103 106 107

GFSNW_250_spd_018.txt.gz
Wind_Speed
106 109 112 107 105 109 106 102 95 91 96 89 80 66 58 60 65 62 59 55 54 47 44 44 41 39 38 33 26 25 21 23 26 26 24 23 26 34 32 32 32 34 34 28
108 107 112 113 111 113 110 104 100 97 105 90 74 68 62 66 70 62 59 52 51 50 46 46 43 38 39 33 28 27 23 23 23 23 23 25 25 25 25 27 30 31 30 27
100 107 109 117 116 115 113 110 108 101 107 85 77 69 64 66 69 64 59 51 53 50 49 47 42 40 41 33 26 27 25 22 19 20 21 19 20 22 22 24 28 29 30 26
90 99 107 112 117 120 118 119 108 101 96 83 76 69 63 68 71 64 59 53 52 50 51 43 42 43 39 35 26 24 23 25 21 23 21 20 20 26 26 27 31 31 29 28
81 90 104 105 112 119 123 115 109 100 95 88 84 79 69 70 73 63 53 49 50 51 48 45 45 47 41 35 28 22 24 24 23 24 25 23 25 27 31 30 30 31 29 27
75 81 94 99 104 117 110 106 108 98 97 94 88 75 66 66 69 64 57 49 51 49 47 42 46 47 39 34 29 23 27 25 23 24 24 25 25 33 28 29 29 28 27 24
71 79 84 93 100 97 101 105 106 100 99 100 84 78 70 69 64 57 57 57 53 50 47 44 50 46 40 34 29 25 29 30 28 26 24 25 31 29 31 30 30 26 26 29
69 73 79 85 90 83 87 97 102 98 98 91 85 78 76 80 75 69 62 55 53 51 50 47 47 47 41 38 31 29 34 33 29 23 25 27 32 32 31 30 27 28 30 33
64 68 72 79 78 78 81 87 100 99 97 95 89 82 82 77 71 68 60 55 54 53 51 49 49 47 41 35 35 32 35 35 33 28 28 29 32 32 30 28 27 31 34 37
55 64 71 72 73 72 77 78 89 98 96 93 93 85 81 79 71 67 64 61 58 56 50 49 53 48 40 35 38 34 38 39 39 37 32 31 34 30 30 29 31 35 38 41
56 62 66 65 64 68 68 71 83 89 95 95 94 86 83 79 71 62 60 60 59 52 51 51 51 34 34 36 37 37 40 41 41 42 37 34 33 31 31 34 37 40 42 43
53 57 60 60 62 65 68 67 74 83 87 92 91 86 82 74 70 68 60 54 55 53 55 54 49 40 39 40 39 38 43 43 42 42 39 36 36 35 36 40 42 44 45 46
51 54 58 59 59 59 59 64 72 83 87 87 80 79 75 71 67 61 53 55 54 44 49 52 51 41 40 40 41 39 43 45 44 43 42 40 41 40 41 43 45 46 47 48
54 58 58 58 61 60 60 61 65 74 82 79 77 71 66 60 59 59 60 61 55 51 49 56 47 44 42 41 43 42 45 46 47 45 45 45 45 45 46 48 49 51 52 53
55 58 61 63 64 62 61 60 61 64 64 63 63 56 51 54 48 51 59 54 45 49 49 46 45 44 43 44 43 44 47 48 49 48 48 49 49 50 51 52 52 52 53 54
63 63 64 67 67 63 59 54 49 47 45 44 47 45 33 33 40 43 43 34 30 38 42 45 42 43 44 46 42 46 50 50 49 49 50 51 53 53 54 54 55 55 58 61
72 73 73 71 66 57 51 49 49 50 53 56 43 40 37 34 32 40 41 43 35 34 42 40 42 45 46 44 45 49 50 52 53 54 53 53 55 56 57 59 62 64 66 67
80 81 81 77 78 75 67 61 54 46 56 55 52 50 50 42 48 52 40 43 46 44 45 45 45 44 42 44 46 52 53 54 55 56 57 56 57 57 59 61 63 66 68 70
83 85 89 86 80 71 59 38 47 48 45 49 53 52 46 43 50 54 52 51 56 58 53 51 51 50 47 45 49 54 58 60 59 60 60 61 62 62 63 65 67 70 72 75
86 85 89 83 72 59 53 51 53 47 45 48 55 52 45 45 47 54 57 57 56 53 51 52 50 48 47 47 50 55 60 63 63 63 63 64 65 66 67 69 71 73 76 78
72 75 75 73 73 69 74 70 69 61 54 50 50 48 50 50 52 56 58 57 54 54 51 53 52 51 51 53 54 54 57 61 64 66 67 67 67 67 68 69 70 73 75 78
64 71 73 72 78 79 74 69 68 69 66 66 60 56 51 52 54 57 54 54 56 56 55 57 56 56 58 59 59 60 58 58 63 66 68 69 71 71 71 73 74 77 79 82
65 67 73 71 75 78 72 71 73 71 67 62 56 54 55 56 56 57 57 59 58 57 57 56 57 59 61 63 65 66 64 63 63 64 66 67 69 71 71 73 76 79 82 86
60 59 52 61 62 63 75 71 66 61 47 52 55 56 58 62 61 60 60 59 59 56 57 58 61 62 63 64 66 68 69 70 69 70 71 72 73 73 76 79 82 85 88 91
35 32 27 51 56 56 67 69 67 60 48 52 53 53 54 54 58 62 61 62 62 61 64 67 68 68 70 68 69 72 74 75 74 74 74 76 77 80 82 84 86 89 91 93
40 39 40 51 50 52 54 66 69 65 60 55 53 52 53 60 63 65 66 65 66 67 70 72 74 74 74 72 71 74 76 76 76 75 76 79 82 85 86 87 90 93 95 99
40 45 45 49 48 54 53 55 57 59 57 58 57 56 58 60 64 68 69 69 69 70 71 71 71 70 71 73 75 74 75 78 81 82 84 86 89 91 93 94 96 98 101 104

GFSNW_250_spd_024.txt.gz
Wind_Speed
83 84 84 88 93 92 94 91 84 85 92 93 84 79 76 75 75 71 66 59 55 54 49 47 43 39 41 40 38 41 43 45 43 39 35 21 18 26 25 22 26 27 29 35
81 80 80 84 89 89 89 88 84 89 95 82 79 78 78 79 76 73 67 59 56 56 52 49 45 46 42 42 40 42 44 45 42 42 34 24 20 23 27 30 32 34 32 37
79 77 77 80 85 87 87 88 91 93 86 72 80 81 74 78 76 74 66 61 57 57 48 49 45 43 41 44 40 43 42 45 43 39 33 21 20 22 25 28 29 31 34 31
76 72 75 78 82 84 84 85 88 83 76 68 75 77 76 81 80 75 65 62 58 57 54 51 47 45 46 45 43 41 44 45 42 38 33 25 22 23 21 21 23 27 29 27
73 68 72 76 80 83 83 79 81 79 78 77 82 82 73 72 81 78 68 61 61 61 57 54 50 49 48 45 43 42 47 46 39 37 34 29 21 22 25 27 25 25 26 29
69 67 70 73 78 81 76 69 74 76 82 79 79 77 66 63 73 74 69 67 65 59 57 58 57 51 45 43 43 44 43 47 40 37 34 28 25 30 27 27 23 24 27 28
66 63 69 71 71 70 73 68 72 73 75 80 75 77 70 61 66 70 68 68 63 60 62 60 56 52 47 43 43 43 44 47 45 39 37 30 31 28 25 23 26 25 26 26
60 60 63 65 67 72 70 65 69 73 80 82 82 78 71 71 70 68 68 67 66 65 63 62 58 50 44 42 44 45 45 46 46 44 39 34 31 33 25 21 26 25 25 27
55 57 58 61 65 70 67 66 71 73 82 85 86 82 76 69 69 71 62 68 73 66 65 63 55 48 45 45 47 48 47 48 50 45 41 38 33 33 30 21 22 31 27 24
53 54 54 59 64 68 66 65 71 72 83 89 87 83 80 73 71 66 69 74 74 69 61 55 51 50 51 50 48 49 52 50 49 46 44 38 35 39 35 29 37 32 29 29
50 50 52 57 62 66 66 67 72 72 81 90 92 88 82 75 72 66 65 70 65 61 58 54 46 48 49 48 47 47 50 52 50 52 45 38 39 36 39 39 37 37 34 33
47 48 52 56 61 63 64 66 68 71 81 86 91 87 82 77 76 76 72 64 58 52 55 53 49 49 47 47 49 49 52 54 52 52 47 45 44 40 41 42 41 39 38 38
45 47 51 55 59 62 65 66 69 69 76 85 91 91 85 83 81 76 70 63 57 54 54 54 53 53 54 54 53 55 56 54 51 48 45 45 47 46 43 45 45 44 44 43
41 44 49 52 57 62 64 64 67 71 77 82 87 93 88 87 85 78 68 65 61 56 56 56 56 57 58 58 56 56 55 54 49 48 49 50 47 46 44 45 45 46 47 47
40 43 48 54 59 63 63 67 69 70 75 81 85 88 91 88 85 80 70 64 64 60 58 57 60 61 62 57 57 57 56 56 52 51 53 48 46 45 47 47 47 47 50 51
40 43 46 51 57 61 63 64 68 72 75 83 88 86 90 90 86 80 73 67 64 65 62 62 61 58 59 57 54 57 58 57 53 52 50 48 45 45 48 47 47 49 52 56
42 43 45 49 52 57 59 59 59 64 69 73 81 80 79 86 90 84 79 73 69 66 67 62 62 61 60 58 56 58 60 58 59 52 47 46 47 47 49 49 50 51 53 56
43 45 47 51 56 62 67 68 67 66 69 74 74 75 74 68 75 81 79 75 71 72 70 70 69 67 66 61 58 59 57 57 53 48 49 50 51 54 53 51 52 52 54 57
41 43 46 51 58 64 65 67 67 65 62 61 61 62 66 66 64 65 72 72 68 67 65 62 62 62 58 49 43 47 51 52 52 54 55 57 57 56 53 53 54 56 57 60
45 50 55 60 63 64 67 66 63 61 60 59 57 61 62 63 60 61 63 66 68 62 58 57 54 48 50 50 45 48 51 54 58 63 63 59 55 53 57 59 60 61 62 63
42 46 48 49 52 56 57 54 55 56 60 62 60 60 60 58 61 60 58 60 58 55 52 52 38 34 38 45 53 53 58 59 59 58 57 54 54 59 62 64 67 68 70 73
49 46 45 49 52 53 53 51 48 48 52 57 57 59 55 58 55 52 51 51 52 54 53 48 45 38 47 50 52 56 63 67 62 56 58 63 66 67 69 71 73 75 78 81
57 59 58 55 53 50 47 40 38 41 45 46 48 51 57 64 62 54 49 50 53 51 47 51 54 59 63 66 66 63 64 64 62 65 67 69 69 71 73 77 80 82 82 84
59 59 60 59 59 56 54 50 47 46 47 49 52 50 52 57 57 60 60 58 61 57 57 57 62 67 70 67 62 64 69 70 69 69 70 71 72 75 79 81 84 85 87 88
56 56 57 54 54 55 56 56 56 56 56 55 54 57 66 62 64 65 61 67 72 70 64 58 63 70 72 73 73 74 76 78 78 77 79 81 82 83 85 87 89 90 93 95
54 52 47 56 56 56 56 58 57 55 54 56 57 57 67 65 64 66 66 63 68 75 74 77 80 75 69 71 75 78 81 84 84 85 87 87 88 90 90 92 94 96 98 100
42 44 39 45 48 60 50 50 57 59 59 59 63 59 61 68 67 68 72 71 71 70 70 72 72 71 73 73 72 72 73 76 79 82 85 88 89 91 95 97 98 100 98 98

GFSNW_250_spd_027.txt.gz
Wind_Speed
89 86 83 85 88 92 96 97 94 95 103 109 97 82 76 76 71 76 71 70 64 61 46 52 47 47 41 34 38 39 34 30 35 34 37 32 32 25 23 26 30 26 27 35
83 84 82 82 82 84 88 87 85 96 104 98 82 73 75 73 71 72 73 75 66 64 48 50 44 56 48 39 42 42 37 32 32 36 37 35 32 30 24 24 25 28 33 40
75 78 80 82 79 78 80 82 82 97 89 72 75 74 74 68 69 71 74 73 70 69 63 57 49 57 48 46 45 45 39 32 34 38 37 34 30 30 25 27 24 30 38 43
69 72 75 79 76 73 75 73 77 78 71 65 66 67 73 69 72 72 74 71 69 67 64 62 56 57 49 48 47 45 35 35 36 36 40 33 32 32 23 26 27 23 31 35
63 65 69 72 73 69 67 63 67 69 63 67 72 73 71 67 73 74 71 70 69 67 67 64 63 57 52 48 46 42 38 36 37 39 40 35 33 29 33 29 29 26 26 26
59 60 63 68 67 62 52 55 63 62 63 69 72 72 74 68 70 72 67 66 73 71 70 68 64 57 54 51 46 44 39 36 39 41 41 36 36 30 29 27 30 26 24 30
53 55 59 61 58 49 52 61 58 58 64 69 71 77 79 73 69 71 65 68 71 71 73 67 63 59 55 52 49 44 42 41 43 42 40 38 37 32 28 30 29 27 27 30
47 50 52 51 49 52 56 58 56 65 73 76 79 83 79 78 75 77 64 67 70 75 69 64 60 57 55 52 49 46 45 44 43 43 40 40 39 34 30 26 27 33 32 29
42 45 46 46 51 57 55 55 61 71 78 79 85 87 82 78 74 76 67 71 69 70 69 66 61 58 54 52 47 44 47 47 46 41 45 40 41 36 32 28 29 28 31 29
40 41 44 49 56 55 53 56 66 72 77 83 89 85 83 81 78 75 68 70 73 74 69 64 63 61 57 52 47 43 43 45 47 44 41 41 42 40 36 33 34 29 33 34
40 43 47 50 50 48 51 57 69 75 79 82 91 90 85 85 83 77 73 74 71 68 68 66 62 61 56 49 46 44 46 46 46 44 43 41 43 43 38 34 35 32 35 39
43 43 44 44 43 46 53 63 73 78 81 86 92 87 83 83 84 79 70 67 67 68 67 61 60 56 55 48 45 49 46 48 51 47 42 45 47 45 41 40 40 37 35 37
41 41 42 42 43 48 55 67 74 77 79 83 90 89 86 85 83 80 72 69 67 61 61 60 56 53 51 47 51 51 51 52 53 49 47 49 49 48 46 41 44 44 40 38
37 38 40 42 46 49 58 69 74 78 80 85 93 94 91 87 83 80 74 71 69 63 62 57 52 54 54 51 53 52 53 54 52 49 52 54 52 50 51 51 48 47 41 42
37 39 41 43 47 52 62 71 76 81 84 89 96 96 89 88 85 82 78 74 66 59 52 47 48 52 52 52 53 49 53 54 54 53 57 55 55 54 55 51 52 47 40 42
40 42 44 46 49 54 64 72 73 76 78 86 92 93 92 90 87 83 77 72 65 56 50 52 53 56 54 51 44 49 52 56 58 57 59 58 56 57 57 54 50 43 43 44
36 39 42 44 50 57 64 68 71 74 78 82 87 90 91 91 87 83 79 72 63 58 53 53 56 53 50 47 42 50 53 57 57 61 59 55 59 58 57 55 46 46 48 49
35 38 41 45 51 58 65 67 68 74 78 80 84 85 84 87 84 79 79 72 66 61 57 58 59 58 55 49 52 55 57 59 59 60 61 62 64 63 61 53 50 54 54 53
34 37 42 45 51 58 63 66 71 75 74 77 84 85 89 87 82 79 76 73 68 65 60 59 60 58 54 55 57 57 59 59 60 65 68 68 67 62 57 59 61 58 56 56
37 41 44 45 51 55 59 62 65 66 68 77 78 77 81 81 79 76 77 72 70 66 66 67 60 56 56 55 56 61 64 65 64 62 56 58 59 60 60 60 59 58 60 62
31 35 39 43 48 55 60 62 62 64 67 70 72 76 79 77 73 73 72 71 69 69 67 65 64 61 62 63 66 66 63 62 58 59 62 63 64 64 57 59 60 60 60 63
31 34 37 39 43 48 49 53 57 61 66 67 69 71 70 69 69 68 69 70 68 68 66 67 63 63 66 66 68 68 68 68 72 68 67 65 62 64 57 62 65 68 68 69
32 30 32 35 41 44 47 46 45 47 51 59 64 67 66 67 66 66 64 60 60 59 62 62 61 63 64 68 69 68 67 53 54 62 61 62 61 66 68 69 68 73 76 78
38 38 38 42 45 50 53 52 48 49 54 56 57 59 60 63 65 66 67 66 67 63 63 62 59 61 64 65 65 65 63 56 61 65 65 59 58 65 73 73 76 78 80 85
42 43 46 45 45 43 43 45 50 53 55 55 54 55 57 60 62 65 65 63 62 64 63 60 59 57 57 61 63 62 64 68 70 71 73 72 73 78 78 77 81 85 88 90
49 46 43 42 41 38 38 36 37 38 38 41 46 49 51 54 53 52 58 60 60 60 58 56 58 64 66 63 69 70 72 75 76 79 82 84 86 85 86 88 86 83 82 85
38 42 45 46 43 42 44 43 41 38 39 42 44 44 42 45 48 51 52 59 58 59 63 63 62 64 68 72 75 74 78 81 82 84 85 83 85 89 88 92 91 89 87 90

GFSNW_250_spd_030.txt.gz
Wind_Speed
90 90 88 87 86 89 91 93 94 94 109 115 109 100 99 100 111 111 112 107 104 100 96 90 90 82 61 51 57 49 44 35 32 32 33 31 27 31 26 28 27 25 30 36
81 85 89 90 89 85 85 81 84 95 105 103 98 93 89 92 101 114 113 113 111 106 102 99 83 77 63 57 54 47 48 34 32 34 37 32 31 33 28 26 25 27 30 35
75 78 82 88 88 85 80 76 78 85 87 86 86 83 91 88 87 91 102 106 99 93 88 82 76 65 57 51 52 53 50 38 35 40 38 33 33 31 30 25 25 27 28 35
69 72 75 80 79 80 74 68 68 67 64 71 73 78 77 84 78 83 85 84 80 77 73 69 65 64 67 55 54 54 53 48 40 41 40 33 33 32 30 26 24 25 27 30
64 68 70 70 73 73 66 60 57 59 60 66 66 68 72 76 78 79 77 73 74 70 66 65 66 61 60 54 58 55 53 50 41 41 41 34 32 35 29 24 26 27 21 27
58 61 63 65 67 64 54 54 59 53 55 60 58 62 70 69 72 74 73 78 75 68 65 70 71 68 64 53 54 51 51 46 44 41 39 33 36 37 34 25 26 26 24 28
53 55 58 59 58 47 56 61 62 54 50 54 51 58 69 72 69 70 73 76 70 67 71 70 73 73 69 62 59 53 56 48 44 40 37 35 42 40 37 28 28 26 29 29
48 52 53 53 48 53 56 56 52 50 51 60 58 65 71 77 79 77 73 76 72 76 76 73 72 76 74 69 63 62 58 47 45 41 39 39 39 45 39 30 31 19 24 23
44 47 49 47 48 51 52 51 50 50 55 54 62 68 76 75 80 85 83 79 80 74 77 73 70 73 67 63 65 61 52 48 46 41 37 38 46 45 40 29 35 23 22 24
40 44 43 45 45 49 51 49 48 53 54 60 66 73 77 84 88 87 86 83 79 79 75 68 70 70 65 70 65 60 54 49 45 45 38 41 44 44 39 32 37 31 28 29
37 40 42 42 46 48 45 46 49 52 57 63 69 78 84 89 91 88 88 88 86 78 70 64 71 67 62 63 59 55 53 50 46 48 44 43 48 43 39 37 38 38 35 34
39 42 43 45 45 43 46 47 50 53 59 65 72 75 81 83 88 91 83 79 80 69 66 65 67 61 63 57 58 56 54 51 52 51 45 45 46 44 44 44 40 42 42 42
42 43 44 43 43 45 46 51 55 60 64 70 75 80 83 87 88 86 83 80 72 70 74 77 76 68 62 59 58 56 54 53 50 50 47 48 47 44 48 46 43 47 46 45
41 42 42 42 44 46 50 53 56 60 65 68 72 76 80 86 87 84 81 76 74 75 73 67 65 65 63 61 59 57 55 55 50 52 50 53 49 47 49 49 50 51 50 50
38 39 39 39 42 46 49 54 57 59 65 70 73 77 80 86 84 82 79 73 72 73 68 66 64 64 61 60 61 55 54 54 53 52 58 53 49 50 52 53 55 54 55 53
38 38 40 42 43 47 50 53 57 64 71 74 77 78 85 88 84 80 75 72 74 71 66 64 63 62 62 59 54 56 56 56 54 56 58 55 55 54 55 57 59 58 56 56
36 39 41 44 47 51 55 60 63 67 70 72 74 81 87 88 84 80 76 74 73 72 67 62 63 65 62 58 52 55 55 57 59 58 59 59 60 55 58 59 61 62 60 61
34 37 39 42 47 49 51 53 58 65 71 76 80 85 88 87 87 81 78 76 72 66 62 60 60 62 58 55 55 58 59 59 60 62 60 59 62 58 60 64 65 65 65 69
32 35 37 40 44 48 51 54 61 68 71 73 74 80 85 87 91 79 77 76 70 66 63 59 56 55 51 53 57 60 61 60 60 59 57 58 61 62 63 65 69 69 69 69
29 30 34 37 41 43 49 55 61 63 62 66 68 78 84 83 82 76 74 73 66 64 65 60 50 53 58 58 60 61 60 60 58 58 59 61 62 62 65 69 70 70 71 69
30 31 31 33 37 43 48 50 51 56 59 61 72 82 81 80 78 71 70 73 68 69 65 59 53 56 56 56 58 60 61 62 61 62 60 61 65 68 68 71 75 70 73 77
29 29 30 32 37 39 43 48 51 58 63 64 78 85 85 83 77 73 73 69 66 66 65 60 58 60 60 59 60 62 63 63 62 62 64 67 72 73 74 75 74 78 81 83
31 31 33 36 37 39 41 43 46 52 54 59 70 82 82 82 78 72 66 63 67 66 66 63 62 64 65 65 64 64 63 63 63 65 69 72 73 74 76 74 81 82 81 73
35 36 37 38 40 42 44 45 45 49 54 61 67 71 76 75 75 70 63 66 68 66 66 67 68 69 68 68 68 68 69 70 70 70 73 75 74 76 78 78 77 77 71 74
35 36 42 43 42 42 41 42 43 47 51 56 61 66 69 69 72 70 67 70 71 69 69 69 69 69 70 71 72 73 76 77 77 77 77 75 75 78 77 75 77 77 78 83
36 37 38 39 38 39 40 41 43 46 49 54 59 60 63 66 67 67 68 71 71 73 74 73 73 73 74 74 75 74 76 75 75 76 77 78 79 80 80 81 83 82 86 90
37 39 38 36 34 36 38 40 43 46 47 49 50 54 59 63 66 67 70 75 69 69 70 71 72 72 71 71 75 77 77 77 79 80 81 81 82 83 85 89 90 91 94 97

GFSNW_250_spd_033.txt.gz
Wind_Speed
82 83 85 87 88 92 94 94 86 96 104 109 103 100 95 99 103 106 100 106 102 100 95 92 90 88 83 78 72 69 69 66 60 49 55 48 40 35 32 32 34 34 31 30
81 83 83 83 84 85 86 81 82 90 100 97 92 91 94 94 91 100 106 105 109 102 100 97 92 91 89 81 78 72 73 67 58 49 48 46 38 36 33 37 32 33 31 34
82 83 85 86 88 89 90 83 82 82 83 78 86 89 87 89 89 89 95 108 109 108 105 101 100 97 94 88 81 79 77 73 61 54 50 50 38 38 41 38 32 33 32 34
79 82 83 84 88 88 93 87 73 73 72 68 70 77 75 81 83 84 86 99 108 105 105 107 105 100 97 92 87 83 82 76 61 55 56 52 40 44 44 40 34 32 35 32
71 75 78 81 82 83 88 80 65 68 69 75 69 69 66 70 80 84 83 84 97 109 108 110 108 103 101 98 90 87 82 76 62 62 54 51 43 49 47 41 36 31 38 36
65 67 71 71 74 79 74 66 68 70 66 66 60 58 56 65 74 76 78 84 91 102 107 111 109 109 106 102 93 90 84 74 61 51 56 53 49 56 45 37 37 36 38 34
57 60 64 66 73 66 62 67 71 57 60 65 55 58 57 63 66 68 77 86 89 90 97 97 100 102 100 98 93 89 78 57 55 56 53 48 56 49 44 41 36 36 38 33
52 53 55 60 61 60 60 61 51 54 56 61 62 55 60 68 68 74 78 78 78 94 84 88 90 88 87 83 78 67 59 63 56 51 52 50 53 49 45 40 38 37 33 33
44 47 50 53 54 54 55 53 55 55 54 55 57 56 61 61 62 69 72 79 86 80 83 84 78 76 68 69 62 62 66 66 55 52 50 47 54 53 44 42 38 37 31 31
39 43 46 46 49 50 51 51 51 53 54 56 55 60 60 64 63 66 73 77 75 76 80 75 73 69 65 63 61 60 62 64 56 53 55 56 61 54 45 40 47 34 35 35
33 38 40 43 46 47 46 48 51 53 53 53 55 58 57 60 64 69 66 77 80 79 73 70 71 65 62 65 68 66 70 64 60 58 56 52 63 56 47 48 48 44 41 41
32 35 38 40 43 45 48 51 51 51 52 51 54 54 58 60 65 66 71 68 75 69 71 70 68 62 65 68 72 69 71 62 64 54 54 62 56 51 50 50 49 46 46 46
29 32 36 41 44 47 48 50 51 49 50 53 55 58 60 63 64 64 70 75 74 74 72 74 74 72 74 69 73 72 75 65 63 59 58 60 58 53 50 53 52 47 46 46
31 35 39 43 45 47 49 48 50 51 52 54 57 60 62 63 63 63 66 73 76 73 71 71 70 70 69 66 68 71 72 68 61 55 58 58 57 57 54 52 52 50 49 49
35 39 40 42 44 46 47 48 50 50 52 56 58 57 57 56 58 60 67 69 69 69 67 63 61 65 67 64 63 59 66 65 56 52 65 65 58 54 52 53 55 54 51 51
34 37 40 43 44 45 45 45 47 51 53 53 52 51 52 54 59 63 66 69 72 68 65 67 68 67 60 60 60 60 63 66 65 60 65 58 58 57 60 59 56 55 55 54
35 37 39 41 42 41 44 50 52 51 49 47 47 51 53 58 60 63 66 69 69 68 68 71 66 64 64 64 60 64 65 65 64 63 62 61 61 61 60 60 59 59 58 57
36 36 36 38 42 45 45 45 44 45 46 48 52 54 57 58 63 66 67 69 68 67 67 63 63 68 69 64 66 70 65 63 65 65 63 64 65 63 63 64 61 61 60 62
35 35 36 37 38 38 39 40 42 44 46 49 51 56 59 62 65 66 68 67 64 66 64 61 66 72 70 70 72 72 66 67 68 67 67 65 63 64 62 65 62 61 61 63
31 31 32 33 36 37 37 40 42 43 44 50 53 57 62 66 67 67 66 64 63 58 65 68 64 66 67 70 75 75 71 69 71 70 66 65 64 64 64 61 64 66 64 66
28 29 29 30 31 33 33 35 36 40 48 57 60 62 67 70 69 67 65 65 64 65 68 68 68 66 59 67 70 71 72 72 73 71 69 68 67 65 64 69 68 68 71 73
27 26 26 26 26 30 30 33 37 41 49 52 54 60 62 64 71 72 73 70 66 70 67 68 66 63 63 63 67 75 76 76 74 71 70 67 63 65 70 70 69 71 75 75
26 24 24 24 26 26 27 30 35 40 42 46 54 61 66 64 59 70 68 70 67 66 67 63 63 63 61 61 63 69 71 69 68 68 67 68 68 68 70 72 74 75 76 79
28 29 28 28 28 31 30 30 34 40 47 52 57 62 64 61 54 59 63 64 62 64 64 64 65 65 65 64 62 61 62 64 64 65 66 67 68 70 72 74 76 76 77 81
26 27 28 29 28 29 30 30 32 39 44 51 58 63 62 60 59 60 58 60 61 59 62 67 68 68 68 67 66 67 66 67 68 69 70 72 73 75 76 77 78 81 84 86
31 30 28 28 28 30 32 33 36 41 47 50 56 62 65 66 63 62 59 59 61 64 64 65 67 71 74 75 74 72 71 72 73 75 76 77 79 81 83 84 86 89 91 92
35 36 32 29 29 30 31 32 34 39 43 48 57 66 69 68 68 66 64 63 60 63 64 64 68 70 72 73 73 74 76 77 78 80 81 83 85 88 90 91 92 91 92 94

GFSNW_250_spd_036.txt.gz
Wind_Speed
77 79 82 84 85 88 89 90 90 95 101 102 97 92 90 96 97 99 105 109 94 88 91 95 87 82 80 81 78 75 73 69 66 69 64 52 44 39 46 50 36 36 31 37
76 78 80 81 83 85 87 85 86 93 96 88 83 83 86 89 91 90 96 107 103 99 94 98 96 90 87 86 80 78 77 77 71 70 64 56 49 38 54 47 42 38 35 36
73 73 74 76 77 79 82 82 83 85 80 78 76 75 74 77 85 85 85 96 103 102 102 102 101 96 97 96 86 84 84 82 74 70 61 55 50 40 52 49 48 44 36 39
68 70 71 73 76 77 82 78 74 68 65 62 62 70 71 79 84 80 85 86 89 91 102 111 103 102 101 98 93 89 92 82 78 75 64 60 57 52 53 47 48 41 42 39
70 72 74 75 78 81 87 83 70 62 59 60 66 66 61 68 72 78 79 79 82 88 93 106 109 108 107 104 100 93 94 84 83 79 68 64 62 54 52 44 46 46 44 41
72 74 77 78 81 85 86 83 74 67 65 66 69 57 62 63 70 69 70 78 87 92 88 97 108 110 116 104 99 97 91 90 89 82 73 68 66 57 54 55 54 50 44 45
73 74 75 75 77 79 84 76 77 73 64 67 64 68 70 72 69 68 72 77 82 76 92 95 93 98 108 108 107 104 99 97 93 85 82 74 58 57 53 51 54 54 50 45
65 64 63 65 69 72 77 73 72 68 64 63 63 64 64 71 69 66 73 62 61 78 82 87 92 92 102 111 115 107 103 101 94 91 81 70 65 56 55 51 52 50 44 44
54 57 58 59 60 64 64 65 67 67 60 51 59 63 65 65 69 69 63 57 67 71 79 90 95 93 95 103 114 106 106 99 94 90 83 73 62 60 60 55 42 50 50 43
45 46 49 50 53 54 55 59 59 57 50 54 53 52 57 62 67 68 65 59 62 66 61 74 74 76 80 84 94 100 101 96 94 90 81 73 61 63 64 50 53 52 44 43
37 39 41 43 45 46 48 55 49 48 51 51 50 55 59 62 65 55 55 62 54 55 62 68 66 69 74 78 80 84 91 93 90 86 79 66 61 64 60 51 58 48 48 47
31 34 36 39 41 43 43 42 43 46 48 50 53 56 55 52 54 59 55 47 56 56 60 66 71 71 75 68 67 75 77 77 77 74 57 57 65 64 63 57 56 53 53 49
24 28 31 34 35 37 41 44 47 47 48 52 54 51 49 50 52 54 47 49 53 59 65 71 69 70 73 67 64 64 65 60 54 55 57 60 55 66 62 57 55 59 50 46
21 26 30 34 38 41 43 43 42 45 47 47 48 49 45 47 46 45 47 50 54 61 60 62 59 65 67 64 61 60 58 55 55 62 63 61 70 69 64 59 52 54 52 50
23 26 30 33 35 39 41 43 44 44 43 42 43 42 46 47 46 49 52 53 50 48 51 52 55 62 65 60 56 54 54 54 62 61 64 70 72 63 59 55 52 55 53 56
25 28 28 30 32 34 35 35 38 38 38 39 42 47 46 43 46 49 52 49 53 61 59 56 59 61 58 55 57 59 60 63 68 67 71 68 67 67 67 63 58 57 57 59
26 28 29 30 32 34 35 35 35 37 38 41 42 40 38 41 45 47 46 47 47 45 45 57 62 63 58 59 61 64 65 66 71 71 68 67 69 65 65 62 62 60 60 63
24 27 29 31 32 35 35 34 35 35 35 36 35 38 39 42 44 44 45 46 52 53 59 64 64 63 62 64 65 68 66 65 71 69 65 66 68 70 70 66 61 62 62 65
28 28 30 33 36 37 36 36 36 34 34 35 33 35 38 41 41 41 45 50 50 50 57 59 61 62 62 63 68 68 66 61 60 65 68 69 67 67 70 76 70 70 72 69
29 30 29 30 31 33 33 34 32 32 33 33 34 37 39 38 39 41 44 44 48 57 61 64 61 59 57 62 66 67 64 62 62 64 66 66 69 72 71 71 70 71 69 68
25 27 27 28 28 28 28 28 31 32 34 35 36 37 37 38 39 44 42 48 53 60 64 62 61 58 60 63 66 66 66 66 66 67 67 64 64 64 65 67 68 69 71 70
26 25 24 24 26 27 29 30 31 32 35 34 36 37 35 38 39 40 45 53 58 64 61 58 57 58 64 65 66 66 68 69 67 65 64 66 68 68 66 63 67 71 73 75
24 24 24 24 25 26 29 27 29 31 33 34 38 40 42 41 41 45 51 58 63 61 60 60 56 59 63 61 64 66 67 69 70 70 71 70 70 72 72 74 77 77 79 80
23 23 22 24 28 30 31 29 29 29 32 33 35 35 40 45 48 51 55 58 59 59 59 60 62 62 61 61 63 67 68 70 71 72 75 77 79 79 80 81 81 82 82 82
23 25 26 29 31 31 29 28 26 28 29 31 35 37 38 44 49 50 55 58 59 60 64 63 62 64 64 62 64 66 67 69 70 71 73 71 71 74 78 82 84 84 85 84
31 30 30 31 33 32 30 29 29 31 30 33 34 35 37 47 52 54 53 54 59 61 59 61 62 61 62 64 66 68 70 71 72 69 70 71 69 70 71 73 75 77 79 83
31 31 32 31 31 32 31 28 29 30 32 36 38 38 42 42 49 54 49 50 55 55 53 59 61 62 66 68 68 68 70 71 73 74 74 74 75 75 76 78 81 84 86 89

GFSNW_250_spd_039.txt.gz
Wind_Speed
76 79 81 82 84 87 90 91 92 100 105 101 98 97 100 107 107 110 110 111 111 111 103 101 99 89 82 79 78 76 73 74 66 58 57 51 54 49 50 48 39 31 37 37
67 70 74 77 79 82 86 87 88 93 95 89 85 87 89 93 95 98 102 104 108 114 111 111 101 88 81 92 86 78 77 77 71 65 58 53 54 57 57 47 47 40 39 40
61 64 67 70 72 75 81 84 83 84 81 82 79 80 80 83 85 89 91 93 99 101 103 106 100 91 86 88 89 86 84 80 74 61 61 64 63 60 57 52 46 37 31 36
58 60 62 65 67 71 78 81 72 72 69 68 74 75 72 75 75 80 82 82 85 92 95 98 96 98 96 93 89 88 88 86 78 70 68 68 66 65 61 57 47 40 34 31
57 59 62 65 66 71 76 76 67 66 65 67 69 66 64 66 69 75 75 72 82 91 86 83 85 93 98 98 97 92 93 87 84 82 78 77 73 64 62 59 47 39 39 32
58 60 61 63 65 70 69 69 61 59 55 61 64 51 50 55 66 70 70 71 79 69 71 84 84 84 86 95 100 96 96 95 93 85 83 83 84 64 58 55 53 44 46 40
58 60 61 62 65 67 70 68 60 60 53 59 51 51 54 59 63 65 69 64 64 66 86 80 76 77 81 87 102 102 101 102 101 87 87 93 72 70 67 64 56 50 47 41
58 61 63 66 69 73 76 70 66 66 59 55 53 55 56 62 69 65 66 56 61 74 76 71 71 73 77 81 93 101 105 100 101 96 92 88 79 72 73 69 61 55 50 44
61 64 66 68 72 75 74 68 67 66 59 50 55 60 68 67 70 69 62 60 69 75 63 66 68 69 71 83 82 88 98 107 107 99 96 91 81 79 81 75 66 63 60 53
56 57 59 60 64 66 65 63 65 63 58 54 55 50 59 67 66 62 67 68 73 77 61 59 57 58 68 75 79 82 93 101 101 101 94 91 87 86 83 80 65 67 66 60
51 54 56 57 59 60 60 57 62 64 60 57 51 51 53 59 59 56 66 78 72 59 50 47 48 53 60 69 75 82 87 85 86 98 95 89 89 92 88 75 73 75 69 62
43 44 45 48 50 51 52 52 58 56 58 55 49 48 54 54 57 62 63 57 63 49 50 42 44 49 58 61 69 74 77 78 81 81 78 81 87 87 86 86 83 81 71 61
33 34 35 38 39 41 44 49 48 51 50 47 47 45 50 54 56 53 50 47 44 41 42 47 54 57 60 64 65 67 71 76 77 71 73 67 68 73 79 81 80 74 68 63
24 25 27 30 35 40 42 42 43 41 44 47 47 48 47 43 40 42 44 41 40 46 45 52 57 57 59 59 60 59 65 70 72 63 61 60 55 58 61 67 67 63 58 58
18 20 24 29 33 35 35 35 37 41 44 42 40 38 36 38 39 42 42 41 46 49 53 51 47 50 54 61 63 59 59 63 63 59 56 51 49 49 49 55 54 53 54 57
15 19 23 25 27 28 30 33 36 36 37 33 32 35 36 37 41 41 44 47 49 48 50 50 47 50 52 58 56 60 66 64 58 47 44 45 51 53 56 51 57 53 56 62
15 18 20 23 25 27 27 28 27 25 25 26 29 32 36 39 42 44 46 49 48 48 47 44 47 50 48 54 57 57 53 53 52 44 43 51 57 58 55 49 56 60 58 55
21 21 23 24 25 26 26 27 26 28 30 32 36 38 40 43 45 46 49 47 49 49 48 46 47 51 50 51 51 53 53 52 50 47 48 56 60 62 59 61 62 59 60 59
25 27 27 27 28 30 30 32 33 35 37 37 36 38 41 43 43 42 44 46 45 41 38 41 47 50 48 47 51 54 54 50 48 45 50 54 57 63 63 64 65 65 65 62
29 30 33 35 37 37 36 36 35 33 32 33 34 35 36 38 37 36 34 34 35 33 34 39 46 45 47 48 52 53 51 52 52 49 54 58 58 65 64 62 64 67 68 67
29 29 31 30 31 32 32 33 33 34 35 34 35 36 34 35 34 33 33 33 33 37 39 41 42 42 45 52 55 54 53 54 54 53 54 58 62 64 65 65 66 65 66 67
25 26 27 29 30 31 32 34 34 33 33 33 33 33 31 31 31 33 35 38 40 44 40 40 43 49 54 56 55 55 56 56 52 51 53 57 59 60 63 66 67 68 69 70
31 29 29 33 33 32 30 30 30 29 28 27 27 28 28 29 31 34 37 42 46 45 45 46 52 56 58 58 57 55 55 55 56 57 58 59 60 61 62 64 66 69 71 70
29 32 34 33 32 30 29 28 28 27 27 27 30 31 33 37 38 38 42 42 41 44 48 53 56 58 58 57 57 55 55 56 58 60 63 66 66 66 67 68 67 69 69 69
26 27 28 31 30 29 27 26 26 27 26 27 30 36 38 38 37 38 39 42 45 50 54 54 55 57 57 54 53 54 56 59 62 64 66 68 67 68 71 74 76 76 76 77
27 29 29 30 31 31 30 28 26 25 26 28 31 33 36 38 38 38 42 44 46 50 53 55 56 56 57 58 60 61 61 60 64 67 69 70 71 72 72 73 76 80 83 84
25 25 26 28 30 30 29 27 24 22 24 26 28 30 31 33 39 41 42 43 42 48 51 55 57 59 60 59 59 59 61 64 66 68 69 69 70 73 75 78 79 80 81 82

GFSNW_250_spd_045.txt.gz
Wind_Speed
77 79 78 77 78 78 79 79 72 74 83 84 86 89 86 91 91 91 89 88 84 85 84 84 83 82 84 82 80 79 76 74 71 69 68 67 66 65 67 64 57 48 48 41
70 68 67 67 69 70 74 74 71 73 76 70 71 81 95 99 96 98 97 94 90 87 86 85 87 91 88 87 84 85 83 80 76 75 77 74 71 66 63 61 64 55 46 39
62 61 58 60 61 63 67 68 65 65 67 66 72 74 81 90 99 100 99 98 98 96 95 91 90 91 94 98 95 92 88 84 81 79 79 79 75 72 69 68 64 55 47 46
57 54 54 55 57 59 59 56 55 59 63 67 72 72 77 80 84 95 99 101 101 102 105 105 103 105 102 99 99 100 101 96 88 84 82 84 82 78 76 70 60 61 50 51
53 52 51 52 55 57 51 48 50 53 60 67 68 70 71 73 77 81 87 96 103 103 101 102 103 102 103 104 104 101 103 98 96 92 92 90 86 78 75 75 70 67 54 52
50 50 50 50 52 52 47 47 46 49 56 61 59 62 67 71 75 79 82 88 88 89 99 98 100 99 100 98 98 98 100 97 97 95 95 98 94 87 85 82 74 67 63 59
46 45 46 48 49 46 45 46 49 49 51 54 56 59 62 65 70 75 79 81 80 88 88 88 88 87 88 90 90 91 91 93 94 86 91 96 84 92 90 87 82 77 67 64
42 41 42 44 46 46 44 46 44 45 49 54 56 56 58 61 63 66 68 73 80 83 81 78 79 80 81 80 81 81 81 80 83 84 79 80 77 81 89 92 80 76 75 71
42 42 44 46 47 47 46 45 46 45 49 48 54 57 57 60 62 65 65 71 74 71 72 72 70 71 73 74 73 72 74 76 78 78 78 73 55 76 90 90 76 82 80 78
44 45 45 46 46 47 45 42 44 46 46 49 52 53 55 56 58 59 63 69 67 68 64 65 63 63 64 65 64 65 68 68 67 71 75 59 62 77 76 79 73 86 84 82
41 42 43 44 45 46 43 44 45 44 44 49 53 55 54 54 55 58 59 66 62 58 56 54 55 55 58 59 57 59 64 67 65 66 68 56 68 71 73 68 69 78 78 80
42 44 46 48 49 49 48 47 48 48 45 47 50 52 54 56 58 62 62 58 60 55 51 46 52 52 53 52 51 56 57 61 68 65 56 62 68 66 61 66 66 71 77 76
48 50 51 51 53 53 50 49 52 50 46 47 46 48 55 54 60 65 62 60 60 58 52 53 55 54 54 49 48 57 57 60 61 58 54 60 64 63 63 62 59 68 69 72
43 44 44 46 49 50 50 47 53 51 46 46 51 51 47 55 59 59 56 59 63 61 57 57 58 54 58 53 54 56 59 55 53 52 59 62 62 60 61 59 62 60 59 59
35 36 37 39 40 41 42 43 47 46 45 45 47 46 51 53 55 59 57 61 61 61 61 59 56 52 48 51 56 56 55 49 49 54 60 58 61 63 61 59 58 61 56 53
26 28 30 32 32 33 33 34 33 36 35 37 42 47 48 52 52 54 54 55 57 56 49 43 39 43 46 52 57 56 52 50 49 54 60 61 64 63 63 64 66 64 56 54
19 22 24 26 28 32 35 40 40 37 37 40 42 41 38 41 42 45 48 48 45 42 41 39 44 49 52 54 56 53 49 52 51 51 58 64 67 67 66 66 63 59 55 44
17 18 21 23 25 26 28 30 32 32 31 30 29 29 33 35 35 36 38 42 45 45 46 45 44 46 49 53 48 47 47 52 54 53 56 60 66 68 68 65 61 58 49 48
18 20 22 23 25 27 28 29 30 29 26 25 30 34 36 38 39 39 42 40 40 41 42 43 49 53 52 43 45 47 47 50 51 53 54 55 60 61 66 63 61 56 54 57
18 19 20 23 24 27 28 29 30 33 36 36 35 34 35 37 38 38 34 33 34 36 38 38 42 36 39 41 46 51 54 54 53 52 52 52 54 60 64 68 62 57 50 49
22 25 28 28 29 29 30 29 28 29 29 28 26 26 28 29 31 32 33 32 32 33 33 34 38 37 37 42 45 47 48 49 49 49 51 51 51 59 67 69 58 47 49 51
20 23 25 25 26 25 26 26 26 25 25 26 25 25 25 26 26 24 25 26 27 28 26 22 22 30 35 37 41 44 44 43 43 45 47 47 48 53 58 57 53 48 52 54
24 25 26 27 27 26 26 25 26 26 26 26 27 26 26 26 25 24 22 23 23 24 24 28 31 32 37 39 39 38 39 40 40 39 39 41 44 48 52 56 50 51 52 56
26 27 28 29 28 27 27 27 26 25 24 25 25 26 26 25 26 26 27 27 28 29 28 31 33 33 33 34 36 36 34 33 34 35 34 36 41 49 54 54 53 54 55 54
27 28 28 28 27 28 27 27 27 26 24 24 24 22 22 23 23 24 24 26 27 28 30 32 32 31 31 31 30 28 28 29 31 30 31 34 39 46 48 52 53 54 55 57
25 26 28 28 28 27 27 26 26 25 23 23 23 22 20 19 18 19 22 25 26 27 28 28 24 24 26 31 32 30 29 29 32 35 39 42 45 49 53 54 54 57 59 63
28 29 29 29 30 29 28 27 27 26 23 21 20 20 19 18 17 18 20 23 24 25 25 24 21 20 26 28 34 33 36 38 40 41 42 44 47 50 54 57 60 63 66 68

GFSNW_250_spd_048.txt.gz
Wind_Speed
77 75 75 75 78 81 80 76 68 75 76 67 55 60 76 88 88 87 85 81 84 88 80 81 84 79 75 71 69 73 71 68 68 69 71 71 69 67 67 62 59 54 46 38
76 75 75 73 77 79 77 71 68 68 73 56 54 61 72 92 92 91 89 90 84 79 83 86 84 83 86 80 77 75 75 72 73 73 75 74 70 68 66 64 60 54 47 41
74 73 71 71 73 72 69 62 59 59 61 57 62 65 71 76 96 95 91 89 91 89 81 80 78 81 80 78 78 76 72 73 75 73 75 77 73 71 70 69 63 58 53 50
70 68 66 65 66 64 57 52 53 54 53 59 60 66 71 74 81 93 98 97 92 91 88 88 86 86 84 81 76 75 77 76 75 76 76 79 76 74 75 74 72 70 63 58
62 60 59 59 58 54 44 47 48 47 49 53 54 61 69 74 78 82 88 100 99 97 93 94 92 91 87 84 81 82 83 82 84 84 83 82 81 80 79 80 78 74 71 64
56 57 55 54 51 44 41 44 43 42 46 48 46 54 64 72 77 78 82 86 89 98 100 95 95 90 89 89 90 87 86 84 84 84 89 90 85 82 88 86 85 81 77 71
53 52 51 49 45 40 40 41 41 41 44 44 46 53 61 66 71 76 79 80 83 86 86 94 99 100 99 95 94 94 94 93 94 91 93 93 84 91 94 95 89 86 80 76
47 48 46 44 41 37 37 38 38 43 45 45 48 51 57 62 68 74 76 76 81 78 79 81 85 88 91 92 94 93 93 94 93 92 96 96 95 97 99 103 94 94 92 86
43 42 41 41 38 32 34 35 40 43 43 43 50 51 54 57 61 66 72 76 76 75 76 76 77 78 80 81 81 82 84 85 86 87 87 90 91 89 91 93 82 88 89 80
39 39 39 38 35 33 33 34 37 40 40 46 48 48 50 52 56 61 66 70 69 69 69 71 71 71 73 73 74 76 77 76 78 81 81 82 86 79 81 80 80 82 83 79
35 36 36 37 36 35 33 34 35 37 39 42 45 48 50 53 54 57 61 61 56 58 61 63 65 68 69 68 70 71 72 72 72 75 75 76 80 76 78 73 74 73 69 80
34 36 37 38 38 37 35 35 38 41 41 41 44 47 49 52 55 55 55 56 57 55 54 56 58 59 61 63 64 66 66 69 70 69 69 69 68 69 71 74 71 64 65 73
36 37 37 37 38 36 34 36 39 42 43 44 46 47 49 51 53 53 53 55 58 54 55 54 55 54 55 57 59 63 61 64 62 64 60 62 63 65 67 68 62 60 62 64
38 39 40 41 41 40 39 38 41 42 44 47 47 49 49 51 49 49 51 54 52 50 48 48 46 46 51 53 55 54 57 57 54 53 53 53 60 57 65 66 54 56 60 63
37 38 40 40 41 41 41 41 42 41 44 46 49 51 51 53 51 50 51 50 50 49 46 41 39 46 51 54 54 53 58 56 54 51 51 52 55 52 58 62 54 53 59 60
34 36 38 39 40 41 41 38 39 41 43 43 46 49 50 50 49 51 53 55 55 55 54 49 45 50 58 59 56 55 58 56 51 48 50 49 53 51 52 54 54 55 58 62
30 32 34 35 36 36 35 38 49 51 45 48 50 51 50 50 55 53 56 61 55 56 53 53 52 56 60 54 51 51 56 58 59 50 49 46 53 50 50 52 54 54 57 60
24 28 31 33 34 36 38 43 43 38 40 43 47 51 54 53 57 58 61 59 57 55 52 54 52 52 50 41 44 50 54 57 54 51 49 49 54 49 49 54 53 55 56 57
19 22 23 26 28 30 33 33 35 38 40 42 43 43 43 43 49 51 52 50 50 50 50 54 50 47 44 46 43 46 50 50 50 48 46 50 50 48 47 45 46 50 50 51
15 17 19 21 23 25 28 30 27 29 29 30 33 33 36 39 43 43 43 44 45 46 45 48 43 45 41 36 38 40 42 44 42 40 44 50 50 47 45 44 45 50 53 57
18 19 20 22 23 23 24 24 26 29 29 30 32 34 37 38 38 39 40 39 39 41 41 38 35 32 29 30 35 36 36 38 38 43 48 47 47 47 45 44 46 50 54 58
15 20 21 22 24 25 26 27 27 27 27 27 27 28 30 31 32 32 30 30 26 26 23 26 24 25 26 29 30 31 33 35 37 42 45 45 46 44 43 45 47 51 55 58
19 21 20 20 21 22 22 22 21 23 23 24 24 24 24 23 22 22 22 23 25 24 22 25 26 26 25 26 27 28 28 30 33 38 41 42 42 41 42 43 44 48 51 58
24 24 24 24 25 24 23 23 23 23 23 24 24 23 24 26 26 26 26 25 24 24 25 24 21 20 19 21 24 26 27 28 26 28 31 34 35 37 39 41 43 46 49 56
25 26 26 27 28 28 28 27 27 26 25 25 24 22 20 21 20 21 21 22 23 22 19 18 16 19 20 20 20 22 22 23 25 28 31 34 37 39 40 42 44 45 46 50
29 28 30 29 28 28 27 26 25 24 22 22 22 21 18 18 16 14 16 18 16 15 17 16 17 16 19 20 21 22 25 26 27 28 32 35 36 38 40 41 42 44 47 50
27 28 27 27 27 27 27 26 25 22 21 20 18 17 15 15 15 15 15 14 14 14 14 15 16 15 17 17 21 22 24 28 30 31 32 33 33 34 36 38 40 42 45 49

GFSNW_250_spd_051.txt.gz
Wind_Speed
83 81 79 76 73 70 64 58 55 61 66 60 51 50 55 62 75 74 86 90 89 85 85 84 82 78 82 75 74 69 65 62 61 62 63 64 63 58 52 45 38 36 39 42
82 80 78 75 72 68 62 56 56 61 65 60 59 57 57 64 72 76 80 90 94 91 87 83 81 78 77 78 79 77 73 71 66 63 65 63 65 62 55 49 43 39 42 44
76 75 73 70 70 67 60 56 55 58 56 58 63 64 62 63 69 71 74 85 90 97 89 86 85 79 78 75 73 74 71 70 62 63 62 60 57 57 59 58 57 56 57 56
69 68 67 65 64 62 56 54 53 54 54 57 60 56 56 61 66 66 71 82 89 90 92 97 90 82 81 77 75 72 69 67 68 68 67 66 66 67 68 67 69 65 61 60
61 60 58 58 58 58 50 49 50 52 52 53 51 49 52 61 64 63 71 74 85 93 92 91 89 88 88 85 79 80 80 80 78 77 75 75 74 73 74 72 69 67 65 60
53 52 51 51 52 48 43 43 46 45 47 46 43 49 54 58 62 65 72 76 82 88 94 88 87 81 81 80 79 83 85 84 81 80 81 80 71 68 70 71 72 70 68 66
46 47 47 46 45 41 39 41 44 41 45 42 47 48 51 56 61 67 73 78 81 81 82 89 88 85 80 79 77 77 75 76 77 77 77 79 70 73 79 81 77 76 73 74
42 42 41 41 42 36 38 40 41 42 42 44 44 49 51 55 58 63 68 76 79 78 76 77 85 87 83 79 83 82 81 81 78 76 79 74 75 82 88 88 84 85 81 80
38 39 39 38 36 35 38 38 40 41 40 45 47 47 49 51 54 57 64 67 73 73 68 70 74 80 84 85 86 84 84 85 85 83 84 84 84 89 92 93 88 90 87 84
34 34 34 34 33 34 35 38 40 39 41 43 43 44 47 49 52 55 58 59 63 64 64 67 68 70 75 81 88 91 90 90 88 87 88 89 92 94 96 98 98 98 97 96
30 31 30 30 30 32 34 37 37 39 41 42 43 44 46 49 49 49 51 51 54 58 62 66 68 68 71 73 77 82 86 89 93 96 95 98 98 95 94 95 96 96 93 93
27 28 28 28 29 31 33 33 36 38 39 41 43 44 46 46 46 46 47 49 49 52 56 62 67 69 70 71 73 74 74 76 78 79 81 83 86 86 85 82 87 88 84 82
26 27 27 28 29 30 32 36 36 35 39 40 41 42 45 45 46 44 45 47 46 47 54 58 61 63 65 67 70 72 74 75 75 75 78 79 80 79 80 80 81 81 80 76
27 27 28 28 29 30 33 35 35 37 38 37 39 41 44 44 44 46 48 48 46 48 49 51 53 56 58 59 61 64 67 67 70 68 69 70 73 72 74 75 76 75 74 71
25 26 27 28 29 32 35 36 36 37 37 37 38 40 41 41 41 43 46 44 43 44 45 48 50 49 51 55 57 57 59 59 59 60 62 64 67 66 67 67 67 66 69 67
22 23 24 26 27 28 32 33 33 34 33 36 36 39 40 40 39 39 40 42 43 43 42 42 44 49 53 52 50 51 54 56 56 54 56 59 59 63 62 61 59 59 62 63
24 26 26 27 27 27 28 31 40 40 40 39 39 40 40 39 38 40 41 41 40 42 40 37 39 47 49 46 46 51 54 56 56 55 56 57 58 60 58 49 47 54 58 56
22 24 26 27 29 28 28 34 36 34 36 38 40 43 43 42 43 44 44 43 43 45 42 33 39 47 48 46 49 52 56 58 60 60 57 54 54 49 43 43 43 51 53 48
21 22 22 23 24 26 29 32 29 25 29 35 41 46 46 45 48 48 46 48 47 50 50 40 41 45 43 44 45 48 53 58 57 52 52 55 55 47 47 51 48 52 46 42
20 21 21 21 22 24 25 25 23 26 27 30 36 39 41 44 48 49 49 50 50 52 53 49 42 47 47 43 39 41 48 41 36 40 42 41 42 45 46 48 49 47 41 38
20 19 20 21 21 22 22 23 25 26 28 30 33 35 37 33 39 45 48 49 50 52 50 41 37 37 39 36 31 29 33 35 34 33 33 33 32 36 40 45 46 41 38 37
21 24 23 23 21 21 22 23 25 26 25 27 29 31 34 33 35 37 34 35 32 32 33 27 28 29 26 26 28 28 26 25 26 28 28 29 32 34 37 40 40 38 37 39
17 18 20 21 22 22 22 22 23 23 22 22 21 22 23 24 26 26 25 24 22 25 24 27 26 24 24 24 21 17 18 20 22 22 25 30 32 34 36 36 35 34 35 37
26 25 25 23 22 22 21 20 20 19 19 20 19 19 19 20 20 22 23 25 26 26 25 22 22 19 16 16 18 19 20 18 19 21 23 26 30 32 34 35 36 37 38 39
27 27 26 27 25 25 23 21 20 19 18 17 17 17 17 17 16 15 16 17 16 15 13 14 13 14 16 19 20 17 16 18 19 21 24 26 29 33 36 38 39 40 41 43
31 30 30 29 29 28 27 26 25 24 23 22 21 19 17 16 15 15 17 18 18 17 15 13 14 15 13 11 12 13 16 19 21 22 25 27 28 30 32 34 36 38 40 42
34 35 34 33 33 33 32 30 28 27 27 25 23 21 18 15 14 13 12 12 12 13 11 9 9 9 9 12 12 12 13 13 11 15 17 20 24 28 31 34 35 37 39 42

GFSNW_250_spd_054.txt.gz
Wind_Speed
87 86 85 83 83 81 77 73 68 66 62 56 55 55 56 58 61 62 68 78 83 83 86 82 80 75 78 69 68 66 67 62 67 73 67 66 63 61 61 59 56 53 52 50
78 77 76 76 78 75 72 67 65 62 59 53 55 58 59 59 63 64 68 75 82 87 89 88 83 81 80 78 73 70 66 62 62 64 67 69 66 63 64 64 62 57 57 55
69 71 71 73 73 72 69 65 62 62 57 57 57 60 62 63 69 62 64 72 78 87 90 92 89 84 81 83 77 74 73 68 67 66 66 65 67 69 68 65 63 61 59 58
65 65 65 65 65 64 61 57 57 57 55 57 58 60 60 64 70 69 60 63 73 81 87 91 94 93 88 85 84 79 77 76 74 72 68 66 65 66 65 63 62 60 60 58
58 59 58 57 58 58 49 50 52 54 54 56 57 59 61 66 69 67 62 60 68 74 78 84 93 93 92 92 86 88 80 77 79 79 77 75 71 68 67 65 63 64 65 61
49 48 50 50 49 46 45 45 49 49 53 56 56 56 60 63 61 59 59 62 65 67 76 75 81 90 92 88 92 91 85 83 80 78 82 78 77 73 70 65 62 61 60 64
42 41 41 42 39 37 38 43 47 48 52 50 53 55 56 56 55 57 60 62 66 70 68 71 73 83 95 92 85 85 88 84 83 83 79 77 72 74 73 72 72 73 70 68
35 36 35 35 35 35 40 43 43 45 48 49 48 50 49 48 49 53 57 60 65 70 70 69 71 74 86 96 95 88 87 89 84 82 78 76 74 76 80 80 82 82 77 76
31 32 32 32 33 34 38 39 40 41 45 48 45 42 43 45 46 48 51 54 59 63 67 68 69 71 75 84 89 95 87 87 86 81 81 80 83 87 91 88 88 84 82 82
28 28 29 30 30 33 36 38 40 40 44 42 41 42 43 42 42 44 46 50 52 55 62 66 69 70 71 77 82 84 88 89 89 86 84 85 91 93 93 91 87 87 84 83
24 25 25 26 28 32 36 38 37 40 43 40 41 39 40 40 40 42 42 44 45 50 57 62 68 70 71 73 80 87 86 89 86 81 77 82 83 81 82 84 84 85 84 83
21 21 23 25 28 33 34 32 37 38 36 39 39 38 39 38 37 38 41 41 40 43 50 58 64 69 70 71 73 80 86 91 93 87 85 82 86 88 90 89 90 93 93 93
19 20 22 24 28 30 31 33 33 34 36 36 36 38 38 37 37 38 37 36 37 42 47 53 58 63 66 68 72 73 79 89 91 90 91 91 89 90 93 95 95 97 99 96
19 20 22 25 28 29 30 33 33 35 35 35 36 36 36 35 36 37 37 37 37 39 44 49 53 58 63 67 70 71 72 74 80 86 91 91 91 92 94 93 93 92 94 94
20 21 24 26 28 30 32 32 34 34 31 33 34 34 35 37 37 36 36 37 39 39 42 46 51 54 58 63 66 69 71 73 75 78 80 81 81 80 83 83 84 85 86 86
20 22 24 27 28 29 28 28 27 29 30 32 33 34 35 37 36 36 37 39 39 38 40 43 46 50 53 57 63 67 71 72 73 73 75 76 77 78 80 82 82 81 80 80
23 22 24 27 27 29 31 33 35 32 32 31 33 34 35 34 34 35 36 39 36 37 39 42 46 47 47 50 54 59 61 63 65 67 70 70 71 72 75 74 73 74 72 69
25 25 26 27 31 30 30 30 29 29 30 31 33 34 34 34 34 32 33 35 36 36 39 39 43 45 45 46 50 54 56 58 59 63 63 66 67 69 70 71 69 64 56 50
25 26 27 27 28 29 30 27 26 26 27 29 32 32 32 31 31 30 31 33 34 35 34 38 42 42 39 44 48 50 52 54 55 57 58 59 60 60 62 58 57 53 49 48
22 23 25 28 29 29 29 25 25 20 23 30 34 30 29 29 27 28 28 30 31 31 33 34 35 36 39 44 47 50 51 53 54 52 54 58 58 55 57 58 54 50 49 48
21 22 25 25 25 26 28 26 27 33 37 36 32 29 30 32 32 33 32 32 33 34 34 34 31 31 36 37 38 39 40 44 46 49 55 51 46 48 46 45 43 44 44 47
24 25 24 22 21 21 23 27 31 34 36 35 36 36 36 36 36 36 38 38 37 36 36 34 32 33 32 30 30 32 35 35 37 37 38 37 38 36 36 38 37 37 38 39
22 23 24 25 25 25 25 26 26 27 27 26 26 26 26 27 31 31 30 30 29 28 28 26 30 33 26 24 29 31 31 26 27 32 32 30 30 32 35 36 35 33 31 33
19 20 21 20 20 20 20 21 20 20 21 21 22 22 23 24 23 22 23 23 23 25 27 28 25 24 26 28 27 25 24 25 23 21 22 23 24 27 29 30 32 33 34 34
26 25 24 23 22 22 21 20 19 18 18 18 18 17 15 15 16 18 17 18 18 20 19 19 21 22 21 20 21 22 18 16 18 22 24 25 26 29 30 31 32 33 33 33
28 27 25 24 24 23 21 20 19 17 16 15 15 14 13 12 12 12 12 12 14 14 12 11 12 13 18 18 15 13 15 17 17 17 19 19 23 27 29 30 31 33 35 38
34 33 33 32 31 31 29 27 26 25 24 24 23 22 19 17 15 13 11 11 11 11 12 12 12 10 8 7 7 8 11 14 15 15 17 17 21 21 24 26 31 34 37 39

GFSNW_250_spd_057.txt.gz
Wind_Speed
81 80 80 80 78 80 78 77 76 77 81 78 72 67 66 67 67 62 57 58 64 71 74 76 73 80 76 75 67 62 63 57 68 66 67 63 59 61 64 64 59 58 57 58
75 75 77 77 75 74 74 70 69 72 73 69 66 64 64 64 67 66 59 60 66 73 76 82 78 75 79 82 72 70 64 59 61 68 67 67 62 62 65 64 64 58 59 60
69 69 70 70 70 69 69 67 66 68 67 64 64 64 63 64 66 66 60 61 66 75 79 85 84 79 82 87 77 79 72 68 62 65 69 67 63 62 64 66 63 62 59 63
61 61 61 63 63 63 60 59 62 66 65 63 65 64 63 63 66 68 64 61 66 75 79 81 90 85 85 89 85 82 80 76 69 70 68 69 68 63 64 68 67 68 66 67
54 54 56 57 58 57 52 55 58 59 59 61 62 63 62 65 67 71 67 64 66 71 77 80 87 94 87 89 89 87 83 75 77 66 63 70 70 66 65 65 69 72 73 71
49 49 50 52 50 45 47 51 53 53 54 56 56 60 64 65 68 69 67 63 60 66 73 76 80 85 91 88 90 89 87 87 80 80 73 69 67 64 69 72 70 73 76 77
41 41 43 42 40 39 43 47 47 45 50 50 54 58 61 63 64 65 64 61 61 64 67 70 72 77 85 95 93 93 89 90 89 86 82 76 74 70 71 71 72 72 71 70
35 34 35 35 35 36 40 42 40 45 48 51 53 56 58 58 59 60 61 63 63 61 61 65 69 72 78 89 95 94 93 93 90 92 86 83 80 80 81 81 82 77 77 72
30 29 30 31 31 34 37 39 41 44 46 49 53 51 54 54 54 54 58 57 56 58 60 60 67 70 73 83 94 97 97 94 92 86 86 88 85 86 87 86 89 82 78 78
25 25 27 28 29 32 36 37 39 42 46 48 49 48 48 47 49 51 51 52 54 54 53 56 66 69 71 77 83 93 98 99 93 94 93 89 90 89 90 87 88 80 84 83
22 23 23 26 29 31 34 35 37 41 43 39 40 39 41 43 43 44 45 44 45 47 50 55 62 71 72 72 77 83 92 95 98 96 91 91 96 95 91 90 89 87 88 87
19 20 24 26 28 29 28 33 36 38 34 36 36 36 35 37 37 37 38 40 39 44 50 54 60 68 73 74 75 79 83 92 100 96 94 93 89 85 88 90 88 89 89 89
18 20 23 26 28 28 31 31 32 31 29 32 34 36 34 33 34 35 36 37 40 44 48 51 56 62 69 73 73 75 78 87 90 94 100 97 93 88 91 90 91 90 91 93
18 20 23 25 26 26 26 29 30 29 30 33 31 32 32 32 32 33 35 37 37 39 42 45 51 57 63 69 73 73 76 77 85 86 88 92 97 98 99 98 96 96 96 96
19 20 22 23 22 21 23 24 25 26 29 30 29 30 30 29 30 31 32 33 34 35 36 40 46 51 56 61 66 71 73 74 76 83 86 88 90 88 90 92 95 98 99 95
21 20 21 22 20 20 21 21 20 22 25 26 27 27 28 28 28 29 30 31 28 31 34 38 41 45 49 54 60 66 70 75 77 76 79 82 84 86 93 94 96 98 100 100
23 22 22 21 22 25 27 29 28 27 26 24 25 26 26 26 28 29 30 30 30 32 34 36 38 40 43 48 55 58 63 68 71 73 75 75 78 79 84 86 87 89 91 92
24 25 26 24 23 25 25 24 24 26 26 26 26 26 28 28 29 29 30 32 32 34 36 36 36 36 40 44 48 52 55 59 64 68 70 71 74 76 78 80 82 82 84 85
27 26 24 25 27 25 24 24 24 24 24 26 28 27 27 27 27 28 30 31 33 34 35 36 34 37 37 42 44 46 48 51 56 59 62 67 70 73 75 77 79 81 80 80
27 27 27 26 26 24 23 22 23 24 25 26 26 25 25 25 27 28 29 30 29 31 35 37 37 36 39 41 42 45 47 49 53 55 57 60 61 65 70 72 73 72 68 68
29 31 30 26 25 25 22 20 22 23 25 26 24 23 24 25 25 26 28 28 29 29 31 33 33 35 38 40 42 44 45 47 50 51 54 56 58 61 64 65 63 59 56 55
30 31 29 27 25 22 23 23 24 25 25 22 22 23 23 22 23 25 26 27 28 29 30 32 32 38 39 40 42 44 44 45 46 47 49 51 54 56 57 56 56 57 56 56
26 26 27 28 25 25 25 26 27 29 27 26 26 25 25 25 26 26 27 27 28 27 28 29 33 32 35 40 42 44 44 46 48 52 56 56 54 55 56 54 52 52 51 50
25 28 30 32 33 30 29 29 28 26 26 25 24 25 25 25 25 25 23 23 21 22 24 29 33 36 39 37 35 37 42 48 51 49 47 47 46 47 47 46 47 47 45 44
23 23 24 24 27 26 28 28 28 29 29 29 29 26 25 25 25 24 22 21 22 23 24 24 26 25 25 27 28 30 33 33 33 35 36 36 37 37 38 39 39 38 38 38
24 24 23 23 22 22 21 20 20 20 20 20 19 18 19 18 19 21 20 19 18 17 16 17 18 20 20 22 23 24 25 26 27 28 29 29 28 26 26 30 31 33 33 34
26 25 25 24 23 22 21 20 19 19 17 16 15 15 14 13 13 12 11 10 11 12 12 13 14 16 17 15 15 16 19 21 20 20 21 22 24 27 30 32 33 35 37 39

GFSNW_250_spd_060.txt.gz
Wind_Speed
77 79 80 80 81 80 76 73 71 77 78 75 74 73 76 79 78 74 73 72 68 63 51 48 53 61 72 75 76 74 70 66 61 59 54 54 61 59 58 55 56 54 55 59
77 76 75 73 75 74 74 70 69 71 74 71 67 69 70 73 75 73 72 68 68 63 54 51 58 62 74 80 78 73 72 68 64 56 57 53 54 60 58 55 58 58 58 56
71 70 68 68 68 69 67 64 64 68 67 65 65 66 66 68 71 70 69 66 67 63 55 52 61 66 77 83 82 78 73 69 67 62 58 61 62 63 62 61 58 59 59 59
63 63 62 62 62 62 57 57 61 62 61 60 60 64 64 65 68 68 67 63 64 63 58 55 63 68 75 89 85 82 74 73 69 64 66 62 56 59 60 61 64 63 59 63
58 57 56 55 56 52 50 53 57 54 55 56 56 59 61 63 65 66 66 63 65 66 60 60 64 69 79 83 92 84 80 74 79 77 66 66 61 60 62 65 64 66 60 63
52 51 50 50 49 46 45 49 50 49 50 53 50 56 60 62 64 63 63 62 64 67 62 55 61 69 77 85 86 91 89 82 78 78 74 64 62 63 66 67 64 65 66 67
45 44 44 44 44 43 45 46 44 43 47 47 50 52 53 57 58 63 61 59 58 60 55 54 59 66 74 85 87 89 94 91 89 84 75 75 71 67 69 68 69 69 68 70
40 40 39 39 38 39 41 39 39 42 41 43 45 49 51 52 52 56 56 56 55 56 55 51 55 64 68 79 89 90 92 97 93 91 84 79 76 74 75 72 70 72 74 73
35 35 34 34 34 35 37 35 35 36 35 40 43 43 45 47 47 49 52 52 53 54 54 50 52 59 62 73 84 93 91 90 98 97 91 85 81 78 70 70 75 77 76 73
30 29 29 29 31 33 33 31 31 33 36 37 38 40 41 43 45 48 47 48 49 52 51 49 52 53 63 66 78 89 94 94 91 101 97 93 89 87 83 80 77 70 69 69
26 25 26 26 27 28 28 26 29 33 33 30 34 37 39 40 40 40 41 41 46 48 49 51 54 54 61 68 72 82 89 94 94 94 103 98 94 94 88 88 88 83 78 75
23 23 22 24 24 23 25 26 28 24 24 27 27 30 32 35 37 37 40 43 42 44 48 52 53 58 60 66 70 75 83 89 97 98 93 97 105 100 97 95 95 92 89 86
20 20 20 19 21 21 20 20 18 17 22 24 29 31 28 30 31 33 37 39 42 45 48 50 54 58 60 63 69 74 75 80 86 94 100 99 95 93 95 98 99 97 97 97
18 18 16 15 16 18 20 19 18 21 24 27 24 30 31 29 32 34 36 38 40 41 44 46 50 53 54 58 64 70 74 75 82 86 97 102 99 99 98 97 95 95 94 93
17 16 14 14 15 16 17 17 18 23 21 22 26 27 30 31 33 34 35 38 37 38 39 42 45 49 52 56 60 67 73 75 73 80 86 92 100 107 102 101 98 96 94 94
17 16 13 14 15 16 18 20 23 22 22 23 24 26 28 30 32 34 34 32 32 34 36 38 41 44 48 52 58 63 67 72 71 75 82 83 85 99 99 95 97 100 102 104
19 18 15 17 18 21 22 19 20 22 25 26 26 27 27 28 31 30 29 29 31 33 34 36 40 43 46 48 52 56 60 65 69 74 74 76 80 86 91 94 95 98 100 102
19 18 18 17 19 16 16 20 22 24 23 25 25 24 26 27 27 28 28 28 31 33 34 34 35 37 39 42 44 49 54 57 62 66 70 73 75 79 81 82 87 91 92 93
19 18 17 19 17 18 20 20 20 19 22 26 26 25 24 25 25 26 28 31 32 31 31 31 31 32 33 35 38 43 46 50 55 58 64 69 72 75 78 79 80 80 82 85
21 20 19 18 17 17 17 17 18 19 20 22 22 22 24 25 26 26 27 27 27 30 30 29 31 31 33 34 35 37 40 44 49 51 55 59 63 67 71 74 76 79 82 83
23 21 19 16 19 19 19 20 21 21 21 22 22 21 21 21 22 23 24 26 28 30 30 27 29 31 34 36 37 37 39 42 45 48 51 54 57 60 64 67 70 72 75 77
26 23 21 18 19 20 20 20 21 21 20 21 21 21 20 21 22 23 25 26 26 28 27 30 31 34 37 39 39 39 41 42 44 46 48 51 53 56 59 62 64 67 68 68
23 21 21 21 21 21 23 25 24 23 21 21 20 20 21 22 23 24 24 26 27 26 28 30 34 36 35 33 35 37 39 42 44 45 47 49 51 53 56 58 59 60 60 60
23 24 24 25 25 24 21 17 15 17 19 19 19 19 20 21 21 23 26 28 28 31 32 33 34 35 37 38 40 42 44 44 45 46 46 48 51 53 54 56 57 58 59 59
24 23 21 19 16 18 20 21 21 21 21 20 19 19 19 19 22 24 23 23 26 30 27 28 30 34 38 40 42 44 45 47 49 49 51 52 53 54 54 53 51 50 48 48
27 24 21 22 22 20 20 19 18 18 18 18 16 14 14 14 16 15 14 14 15 16 19 22 23 26 29 30 32 32 32 34 36 38 41 43 44 45 44 42 41 41 42 43
25 24 21 19 19 17 16 14 13 12 11 9 8 8 9 10 11 11 12 14 15 15 15 17 18 20 23 25 26 26 26 28 29 30 31 32 33 34 34 36 38 38 40 42

GFSNW_250_spd_063.txt.gz
Wind_Speed
81 78 77 76 76 75 74 70 70 79 78 74 71 69 69 68 73 78 67 65 69 71 71 65 66 57 40 45 57 66 70 70 67 60 53 59 58 59 57 50 53 46 45 46
75 76 75 76 75 74 71 67 69 74 74 70 68 66 65 64 71 72 66 63 69 71 68 65 62 58 44 47 59 72 69 77 76 67 60 59 58 59 57 55 55 53 48 46
75 74 74 72 72 69 64 63 66 71 69 68 63 62 63 63 68 67 66 64 66 69 66 64 61 57 43 51 60 74 71 76 73 74 63 61 60 60 61 56 56 56 52 49
72 70 69 67 66 62 59 60 64 63 62 62 59 56 58 61 64 64 62 63 62 65 63 63 62 58 47 51 62 74 75 79 74 72 70 65 72 69 63 58 57 59 56 53
63 62 62 60 58 56 55 58 57 54 55 54 51 51 55 56 58 60 62 61 63 63 62 59 57 52 45 53 63 76 80 81 81 79 78 71 69 64 62 58 53 60 60 60
57 55 55 54 52 48 50 52 49 48 47 46 45 48 49 52 53 56 58 59 60 61 59 55 55 52 52 58 66 80 84 80 84 84 79 78 75 68 59 63 58 59 65 70
51 48 46 44 42 41 42 42 40 39 43 38 40 41 42 47 48 52 54 53 55 55 54 56 53 50 52 59 67 77 87 84 81 82 83 81 80 71 61 62 71 72 76 74
44 42 41 39 38 36 37 36 34 32 36 32 37 37 40 43 43 44 46 47 50 51 52 51 49 50 50 57 66 72 91 89 88 82 83 82 82 79 69 70 73 72 71 69
39 38 36 34 33 31 33 31 28 28 29 33 32 30 34 35 40 42 44 47 47 50 47 48 49 50 51 55 64 70 83 93 89 90 85 83 84 83 75 78 79 74 69 70
35 33 32 31 29 28 29 27 25 26 27 28 27 28 31 33 37 39 35 38 40 42 45 46 47 52 47 51 59 67 75 92 94 92 87 85 85 82 87 85 75 66 69 71
31 29 28 28 26 24 24 22 24 24 24 22 24 24 27 29 32 34 37 38 37 37 42 47 50 51 46 49 58 66 71 79 87 99 94 91 90 82 80 82 82 78 71 73
27 25 24 23 21 20 20 19 18 18 19 21 25 29 29 32 35 34 34 33 33 41 44 48 49 50 48 51 55 61 65 69 80 87 93 98 96 94 85 79 79 82 79 76
23 21 20 18 18 18 17 15 15 17 19 22 25 22 21 26 28 30 34 41 43 41 43 43 47 49 52 53 54 58 59 62 70 84 90 89 98 101 94 95 92 87 84 79
19 17 16 16 15 14 13 13 16 17 17 17 18 24 25 26 31 35 35 34 38 40 40 42 45 49 49 50 51 54 56 59 65 74 82 92 92 97 99 99 98 94 95 95
16 14 14 15 14 14 13 14 16 16 18 23 24 25 28 30 29 30 32 34 35 36 39 42 43 44 45 45 48 50 52 57 62 65 70 80 97 98 94 98 100 101 102 102
16 13 14 15 14 14 17 18 19 20 20 20 22 24 24 25 28 32 32 31 32 35 36 38 40 42 42 43 45 46 51 57 64 65 70 78 82 89 98 100 102 96 96 103
16 15 13 12 7 6 10 14 17 18 18 20 22 23 25 26 27 28 29 30 31 31 32 34 35 36 38 39 41 45 49 53 57 59 64 68 70 74 79 88 95 95 94 95
15 15 12 10 11 14 15 16 17 19 20 21 22 23 24 25 26 26 26 27 29 30 30 30 32 33 35 35 40 40 42 47 49 51 57 65 69 72 74 76 81 85 88 93
14 15 14 13 15 14 14 16 18 20 21 22 22 23 24 26 25 25 25 26 26 26 28 30 30 31 33 36 38 39 42 45 46 50 54 57 61 68 72 73 74 76 78 82
15 16 15 17 17 16 16 17 18 20 22 23 25 25 26 23 24 25 25 26 28 29 29 29 30 32 34 35 38 39 39 42 44 47 51 54 57 61 65 70 73 76 77 77
18 17 16 17 17 19 21 21 23 23 24 24 23 24 24 25 24 24 26 28 26 26 26 27 29 31 32 34 35 36 38 39 42 45 49 52 55 58 60 64 67 71 74 76
20 20 21 22 23 23 24 23 22 21 22 24 24 25 24 24 25 25 26 25 25 24 24 26 28 30 31 32 33 32 33 35 38 41 43 46 49 52 55 58 61 64 66 69
21 22 22 24 25 24 24 25 25 25 23 21 21 21 24 25 25 25 24 25 26 25 26 29 29 29 30 30 28 28 30 33 36 39 41 42 44 47 50 53 56 58 61 64
25 26 25 25 24 21 18 16 17 19 20 21 22 21 20 20 19 19 20 21 22 23 23 24 26 28 30 30 30 32 34 37 39 42 43 45 47 49 51 53 55 56 59 60
22 21 19 17 19 21 22 23 22 21 21 20 20 19 19 19 20 19 19 20 22 20 20 22 25 28 31 32 32 32 35 37 39 40 41 43 45 45 47 49 52 54 56 57
19 20 21 22 22 21 19 19 18 17 17 17 15 14 14 14 13 13 14 17 15 16 20 23 26 29 32 33 34 36 37 39 41 42 44 45 47 49 50 52 54 54 55 54
22 21 19 17 15 13 11 11 10 9 9 8 8 8 8 8 8 9 8 10 11 13 15 19 22 23 24 27 30 31 33 34 35 37 40 41 43 44 45 46 46 47 47 47

GFSNW_250_spd_066.txt.gz
Wind_Speed
87 86 85 82 80 75 72 70 71 79 77 74 70 67 70 70 74 80 72 72 65 66 66 61 62 59 58 57 56 54 47 45 49 58 58 63 67 63 57 54 59 49 44 45
85 83 80 77 75 73 70 68 70 75 74 69 69 67 66 63 67 76 66 64 61 63 64 56 58 60 60 57 56 55 52 49 52 64 64 67 71 65 62 57 60 62 50 42
80 77 74 74 74 70 67 67 70 69 68 67 64 66 63 62 62 69 64 60 57 63 65 55 57 59 59 59 56 54 51 52 55 67 70 67 68 70 64 63 56 59 52 47
74 74 74 73 71 66 64 66 64 58 58 58 56 56 56 59 60 65 59 56 55 63 60 56 53 52 54 55 58 54 50 52 57 67 76 68 67 64 67 69 56 57 58 53
71 72 71 66 64 61 60 59 57 54 49 48 47 45 49 52 52 53 51 52 55 57 55 50 49 47 50 52 54 55 54 60 64 70 78 76 71 65 65 62 64 60 59 54
67 67 63 61 58 55 55 51 48 49 44 42 41 41 42 43 44 46 45 47 48 51 53 50 49 50 49 54 55 55 57 64 68 72 76 82 74 70 70 68 69 66 66 60
61 59 57 54 51 48 47 43 40 40 36 35 34 36 37 39 39 38 43 41 44 46 46 47 46 47 49 52 55 56 56 64 69 75 79 77 83 80 75 68 70 66 63 65
55 54 50 46 44 42 41 36 34 35 32 32 30 30 34 34 36 38 40 37 39 44 46 46 47 47 46 50 53 56 60 65 69 78 82 78 81 85 83 75 72 70 70 73
50 47 44 41 38 36 34 29 27 29 29 28 24 28 33 33 33 35 33 37 41 42 43 43 44 45 49 49 52 55 60 63 69 79 82 78 80 82 76 80 75 74 77 77
44 41 38 34 31 29 28 23 23 26 27 19 25 26 30 31 31 33 36 40 40 39 42 42 45 49 52 52 52 52 58 63 70 78 87 82 84 81 81 77 72 74 75 76
38 35 31 28 26 24 23 20 20 24 20 18 22 23 26 26 28 32 33 34 34 37 38 40 43 46 48 48 47 49 55 59 70 74 86 86 88 85 84 85 83 81 82 80
32 28 25 24 21 20 20 17 19 19 18 20 21 24 27 32 33 30 30 32 32 35 36 41 44 46 47 49 49 52 56 58 66 73 80 89 87 86 84 83 86 84 86 87
26 24 23 20 18 17 16 15 16 17 18 19 21 19 20 27 27 30 35 36 33 34 38 44 46 46 48 48 50 50 55 55 60 65 69 84 90 84 83 84 80 83 86 88
22 20 20 18 15 14 15 15 15 15 14 15 20 25 24 25 27 30 30 30 36 37 37 39 40 44 49 51 51 49 48 48 53 60 66 71 90 91 86 81 82 83 85 88
20 18 17 16 13 14 15 16 17 19 22 22 20 24 26 27 28 29 31 33 34 35 37 39 42 44 44 44 44 43 44 48 51 55 61 65 77 93 97 100 95 90 89 89
19 17 15 12 9 11 12 15 17 16 16 18 21 21 21 21 23 26 29 29 31 32 33 36 38 39 42 40 43 46 49 49 50 51 55 63 72 80 91 103 101 97 92 91
17 14 12 13 14 14 13 13 13 16 19 19 19 20 21 23 25 27 28 30 32 33 34 35 34 34 36 39 43 46 48 49 50 52 55 58 64 68 75 83 93 97 101 102
18 14 15 14 11 11 12 13 13 15 18 18 20 20 22 23 25 26 27 27 28 29 29 30 29 31 34 37 40 43 46 47 46 48 51 54 58 62 65 68 74 80 86 90
19 15 18 17 15 13 13 14 14 16 17 18 18 18 19 20 22 24 25 25 25 25 25 26 28 29 31 35 37 38 40 40 42 43 46 51 55 57 59 62 65 70 74 78
16 19 21 18 16 16 15 15 16 18 18 20 21 22 19 17 19 21 22 23 24 25 25 25 26 29 30 32 32 35 37 37 38 39 43 46 50 52 56 60 64 67 70 72
19 23 20 17 17 16 16 16 16 16 17 17 18 19 20 21 19 20 22 24 24 24 24 26 27 29 29 29 31 31 32 33 34 35 38 42 44 47 50 54 58 62 65 68
22 21 21 21 21 20 19 18 17 19 19 19 19 20 20 21 22 20 17 17 19 21 21 23 25 27 28 28 29 31 32 32 33 36 38 40 42 44 46 48 50 53 55 58
26 24 23 22 21 21 20 21 22 22 20 21 20 20 19 19 18 18 18 17 16 17 20 21 21 22 22 24 25 25 27 29 31 35 37 38 40 42 44 46 48 50 53 56
26 25 23 21 17 15 14 15 18 18 19 19 18 18 16 15 15 15 14 14 17 19 17 17 19 22 23 25 27 28 29 31 33 35 37 38 41 42 44 46 48 50 52 54
23 21 21 22 22 22 22 21 20 19 19 19 19 18 18 19 19 17 17 16 14 13 18 20 21 22 24 25 26 28 29 32 34 36 38 40 41 43 44 46 48 49 51 53
20 24 23 22 21 19 18 18 17 17 16 14 15 16 16 14 13 11 11 8 10 16 16 18 20 22 23 24 25 26 28 29 32 33 34 36 37 39 40 43 45 47 49 50
24 22 21 19 19 19 19 18 18 16 16 16 14 12 12 12 11 11 13 15 18 19 21 23 23 24 25 26 27 29 30 32 34 35 37 38 40 41 43 45 47 49 50 52

GFSNW_250_spd_069.txt.gz
Wind_Speed
97 96 93 90 84 78 78 78 81 79 74 69 67 68 68 68 67 69 65 66 69 67 65 66 66 68 70 67 63 58 53 47 43 46 44 43 52 50 49 47 47 55 55 61
92 88 86 82 80 76 77 77 79 72 66 67 65 68 68 65 64 67 60 62 65 61 60 61 61 57 60 57 62 58 53 49 47 49 47 47 58 56 55 52 55 57 55 62
83 82 80 80 78 76 72 72 75 70 65 64 63 64 63 62 62 62 57 58 61 59 58 55 52 54 53 53 54 56 56 53 50 50 49 49 58 61 62 56 58 62 60 55
78 79 79 78 73 70 69 70 71 67 63 62 57 54 54 54 53 54 51 56 57 54 52 55 52 49 51 51 52 55 57 58 57 54 55 54 62 66 68 62 61 65 64 56
76 77 75 72 67 68 67 68 64 62 59 56 51 48 45 44 44 45 45 49 48 47 51 53 50 48 48 51 52 55 59 64 64 60 62 57 58 71 73 71 64 68 68 59
73 70 69 67 65 65 63 60 58 56 49 45 42 38 37 38 39 40 39 42 42 44 49 49 47 46 49 50 52 54 59 63 64 64 64 62 57 71 76 74 71 67 70 68
68 66 64 63 61 58 57 55 52 47 41 39 38 35 33 33 36 37 35 37 38 42 42 45 44 45 48 50 52 53 58 62 63 65 64 64 62 68 74 77 76 71 66 70
64 62 60 57 54 54 52 46 44 41 36 36 33 32 31 31 32 32 31 35 36 36 40 42 41 44 46 49 53 54 56 57 59 64 65 62 67 68 73 75 76 78 69 65
59 56 51 51 50 48 44 39 37 37 34 31 29 30 31 30 30 28 29 33 34 35 44 46 41 44 48 51 52 53 54 57 57 61 65 63 70 67 72 73 72 73 73 74
53 47 45 47 44 41 38 33 32 34 33 25 26 26 30 29 29 27 29 31 32 36 36 37 40 45 49 52 50 50 50 53 57 62 65 64 70 68 72 75 77 73 71 69
46 42 43 41 37 35 32 30 30 32 29 20 24 26 29 27 26 27 28 30 30 35 38 38 40 45 48 50 48 48 50 52 58 62 65 65 71 68 70 73 80 78 73 76
40 40 39 35 31 29 28 26 28 26 23 16 25 23 24 24 25 27 27 27 28 28 30 35 40 43 46 48 49 50 52 53 56 61 65 66 66 67 69 77 77 82 79 79
36 37 33 30 26 25 28 22 23 21 19 20 21 18 24 27 24 28 28 28 27 28 32 35 40 44 46 47 49 50 53 56 58 55 59 63 66 67 69 77 79 76 82 88
34 32 30 25 23 23 22 20 17 17 19 20 22 22 21 21 23 25 25 27 29 34 38 39 41 43 45 47 49 51 52 50 47 46 49 58 63 66 67 80 83 81 80 83
30 29 25 22 22 20 18 17 14 13 16 17 18 19 19 19 21 24 24 29 36 37 38 39 40 43 45 49 50 52 47 43 44 46 51 56 60 64 69 77 87 85 83 83
27 25 22 22 21 17 17 14 9 8 12 15 15 15 18 22 24 24 28 30 31 36 38 39 40 44 46 49 45 42 42 44 47 50 52 54 58 62 67 68 89 92 91 92
24 23 20 21 17 14 12 11 12 8 9 13 14 14 15 18 19 23 27 28 31 34 36 36 36 36 40 39 40 40 43 46 47 49 52 55 57 59 63 67 72 87 97 96
22 21 21 18 15 13 10 10 10 7 8 13 13 13 16 18 21 23 26 28 29 30 30 30 29 32 33 33 37 39 43 46 45 47 49 52 56 59 62 67 71 75 81 94
21 20 19 16 15 14 11 9 8 9 10 11 12 13 14 15 17 20 23 26 27 27 26 26 27 28 29 33 36 39 41 42 42 44 45 46 50 53 56 59 61 68 73 75
19 21 20 16 16 12 11 10 9 10 11 11 12 12 11 12 12 16 18 20 21 22 24 25 26 28 30 30 29 30 32 33 36 39 39 41 46 50 52 54 57 61 64 65
24 23 17 17 15 13 11 12 14 15 15 14 16 19 19 18 14 12 17 18 18 19 20 21 22 23 24 25 28 30 30 31 33 35 36 38 42 47 50 52 56 59 63 66
20 16 17 17 17 15 15 15 14 14 15 14 14 15 17 19 19 17 15 14 15 16 18 19 19 19 21 22 23 24 26 27 30 31 33 37 41 44 47 49 52 55 58 61
22 19 17 18 17 18 18 18 17 16 16 16 15 13 13 12 13 14 13 14 14 15 14 11 11 13 15 17 19 21 22 25 27 30 33 34 36 38 41 43 45 47 50 52
19 19 19 17 16 15 14 15 16 15 16 16 16 15 14 14 12 11 12 10 8 6 8 10 13 14 16 18 20 21 23 25 27 29 31 32 33 34 36 38 40 43 46 48
19 19 21 21 21 20 20 19 18 16 15 16 14 13 12 12 11 9 7 5 3 5 9 10 13 15 17 19 20 22 23 24 27 29 31 34 36 39 40 42 43 45 46 48
20 20 21 21 21 19 19 18 17 17 16 15 13 11 11 9 7 5 3 4 10 14 12 13 15 17 17 18 19 20 21 23 25 26 29 32 34 37 39 41 43 45 47 49
24 23 21 18 18 17 16 16 16 16 14 12 11 9 8 7 8 9 9 9 10 10 12 15 17 20 22 24 25 27 28 29 30 31 33 34 35 37 39 41 42 44 46 48

GFSNW_250_spd_072.txt.gz
Wind_Speed
120 113 111 106 103 98 90 87 82 78 75 71 73 70 64 61 61 60 57 57 54 54 50 53 57 61 65 70 76 80 82 84 78 78 70 64 58 46 42 44 42 39 52 43
111 106 105 98 91 85 83 80 77 75 73 71 63 62 63 60 62 62 59 54 55 56 52 52 54 54 59 65 66 70 72 70 74 71 58 55 47 44 42 46 46 44 49 46
99 96 90 86 84 80 76 75 75 74 66 64 62 60 58 57 56 59 56 54 50 54 53 50 51 52 53 59 62 62 62 62 67 67 51 43 47 46 47 54 51 48 48 49
88 84 81 81 77 72 71 72 71 66 65 63 61 58 52 50 49 50 50 51 46 47 48 49 52 52 52 55 55 59 57 57 58 58 50 48 51 50 50 59 55 53 54 53
78 78 76 73 69 68 68 67 66 64 63 61 57 53 49 46 44 43 44 44 41 40 46 47 52 52 50 54 51 53 57 53 52 53 50 53 55 53 51 62 58 53 50 54
72 70 67 66 66 65 64 64 62 62 58 54 52 48 44 39 39 38 37 37 37 39 41 44 49 49 50 49 53 50 50 50 50 51 51 56 59 59 56 62 63 59 55 58
66 64 64 64 65 63 61 60 60 57 53 51 46 41 38 36 33 31 31 32 35 35 40 44 47 46 46 46 49 51 50 51 50 53 54 58 62 61 61 61 68 65 61 61
63 61 60 60 61 59 57 56 55 53 48 43 40 38 35 32 28 25 26 29 31 33 37 40 43 45 43 45 48 51 51 50 52 52 51 58 61 61 62 61 72 70 67 66
60 58 57 58 57 55 53 51 50 48 42 36 36 34 32 27 25 22 26 27 29 31 34 38 41 42 41 45 49 51 51 52 52 51 53 57 62 64 65 62 73 73 73 72
57 56 54 54 52 49 49 47 46 43 37 31 32 29 29 25 24 22 25 25 28 32 36 38 38 40 43 47 49 50 49 50 51 53 53 57 64 65 66 66 66 76 77 74
54 53 51 48 46 46 44 42 41 39 33 27 28 27 26 23 23 21 24 24 26 30 28 27 32 37 45 49 50 50 50 50 52 54 55 62 62 64 67 68 66 72 79 78
51 48 45 44 43 43 41 36 37 34 30 23 25 26 22 22 25 20 23 23 23 27 30 35 36 40 47 48 49 51 50 52 54 52 57 61 63 65 68 71 68 68 78 81
48 44 42 41 40 39 37 34 29 27 28 25 24 23 23 22 21 20 22 22 21 28 32 35 37 40 42 45 48 48 53 54 54 53 55 59 61 65 68 71 71 72 68 83
43 40 39 38 37 34 31 31 25 22 22 21 22 19 18 20 18 19 20 24 26 28 31 34 36 39 41 44 47 50 54 54 56 49 49 54 59 61 66 70 72 73 73 72
39 37 36 35 34 30 24 25 23 21 19 18 16 13 16 17 18 20 20 26 29 32 34 37 40 40 41 45 48 51 53 54 46 47 48 50 54 58 63 68 70 72 70 70
35 34 32 32 29 25 18 20 20 19 16 17 10 9 11 15 19 18 20 27 28 29 33 37 39 41 42 46 49 51 54 49 45 47 50 52 55 58 62 65 68 68 69 73
32 30 29 28 24 17 16 15 16 14 12 12 8 10 12 13 16 19 22 21 18 26 31 34 37 40 41 43 46 48 45 45 45 49 53 52 51 54 57 61 65 66 68 73
29 27 26 23 16 16 15 15 13 9 10 8 8 7 9 11 13 15 16 18 19 21 26 30 32 32 34 34 34 34 34 38 44 47 49 50 49 52 55 58 60 65 69 71
26 24 23 18 16 15 12 12 11 8 8 7 6 7 9 10 11 13 15 17 19 19 20 23 25 26 24 23 26 29 35 39 40 42 44 46 48 50 52 53 54 59 62 67
23 23 20 16 14 12 12 12 11 9 9 9 10 11 10 10 10 11 14 17 20 20 22 24 24 24 23 25 30 35 38 38 39 40 42 44 44 46 49 51 53 57 60 62
22 19 16 14 14 14 13 11 10 11 12 12 13 14 16 17 15 12 13 15 17 18 21 23 23 22 22 24 27 29 30 30 32 33 35 37 41 43 46 50 52 54 58 60
19 15 14 13 13 13 13 11 10 9 10 12 12 12 13 17 19 18 14 13 14 14 15 16 15 18 18 19 21 24 26 27 28 30 33 36 39 42 44 47 51 53 56 60
16 18 18 17 17 16 12 11 11 11 13 13 12 12 11 13 15 16 16 15 13 12 12 11 12 13 15 16 18 21 23 24 25 26 30 32 34 37 39 42 45 48 51 54
22 20 18 17 15 13 13 14 16 16 15 16 15 14 15 16 16 15 14 12 11 11 11 11 11 12 13 14 16 17 18 19 20 22 24 27 29 33 36 39 42 45 47 50
20 16 16 16 16 16 15 15 16 17 16 17 16 16 15 15 14 14 15 15 13 13 12 9 9 9 9 9 10 13 16 19 21 23 25 28 31 33 35 38 40 43 45 48
22 22 21 20 18 16 16 16 17 16 16 15 15 14 14 15 14 14 11 9 5 3 0 2 4 5 7 8 11 14 16 19 21 23 25 29 32 36 38 41 43 46 48 50
24 21 20 20 17 17 17 17 17 15 15 15 15 14 13 12 11 10 7 5 5 5 5 7 10 13 15 17 17 19 20 21 23 25 28 31 34 37 39 42 45 47 49 51

GFSNW_250_spd_075.txt.gz
Wind_Speed
107 109 107 106 107 107 105 109 100 101 96 88 80 77 70 65 67 62 55 51 50 51 50 47 47 49 56 57 62 62 63 69 74 76 75 74 75 75 69 63 54 36 33 38
102 104 103 103 104 104 102 100 98 92 83 77 74 68 67 66 63 61 56 53 50 51 49 48 48 50 52 56 62 63 60 62 71 75 73 73 74 72 60 53 46 35 34 46
99 99 98 98 96 96 96 94 86 78 75 72 65 65 63 62 59 61 55 54 53 51 49 47 49 52 54 56 58 61 61 61 67 72 73 75 74 71 57 44 44 36 44 52
90 89 90 89 90 90 86 80 75 74 68 64 61 61 58 59 57 57 50 48 47 46 47 45 47 53 55 56 60 59 60 62 64 63 63 66 70 66 51 41 37 42 47 53
81 81 81 80 78 76 73 71 69 66 65 60 58 56 55 54 50 48 44 43 40 40 42 40 46 52 55 58 60 61 58 60 62 57 57 57 59 55 46 40 42 49 52 49
76 74 73 73 70 69 66 64 64 63 59 54 56 53 49 47 45 40 39 36 34 33 36 39 43 50 54 58 59 57 60 58 53 53 51 49 52 48 44 45 52 48 56 53
69 69 67 66 65 62 59 60 60 58 57 53 51 49 45 41 37 32 33 32 31 30 32 35 41 47 51 54 55 55 53 48 47 49 48 45 50 48 50 54 56 49 58 58
65 63 61 60 57 56 56 57 58 57 55 49 44 44 40 35 29 28 28 27 28 27 29 34 39 43 45 50 50 50 44 45 45 45 45 47 49 49 54 60 60 54 60 61
58 58 58 56 54 53 54 55 54 55 51 43 41 37 35 30 27 25 25 23 25 26 27 33 37 40 43 45 45 45 45 45 47 46 47 49 49 54 59 65 63 57 57 63
57 56 55 54 52 52 53 51 50 49 44 40 36 32 30 28 26 24 22 21 22 22 24 29 32 37 39 41 45 48 47 48 51 50 51 53 55 54 62 65 64 61 60 65
56 55 53 51 51 51 48 46 47 44 40 36 30 27 28 27 24 22 20 19 19 19 21 26 28 30 32 39 43 44 48 48 49 50 52 58 54 56 65 66 67 67 65 67
56 53 50 49 48 48 44 41 44 40 35 29 25 27 27 22 22 21 20 17 18 19 20 25 28 30 31 37 44 46 49 49 49 52 53 55 54 58 67 69 68 66 67 68
53 50 47 46 46 44 42 38 37 37 30 23 20 24 25 19 20 17 17 15 19 20 23 27 31 33 36 40 44 46 46 49 48 51 53 55 55 58 67 69 67 68 70 68
49 46 44 44 42 38 38 37 32 30 26 23 15 20 23 19 17 13 16 15 20 23 24 28 31 33 36 39 42 45 47 49 53 54 54 54 54 55 64 70 70 70 71 74
45 43 42 40 37 34 32 34 30 23 21 21 15 17 19 17 14 15 17 16 22 24 25 28 31 33 36 38 40 43 45 48 51 48 45 49 49 52 58 65 71 74 72 75
40 39 37 35 33 30 26 29 28 21 16 17 16 15 16 15 15 14 15 19 21 21 25 27 30 33 35 37 40 41 45 48 47 45 47 50 51 50 54 61 66 71 74 74
36 34 32 30 28 25 22 21 21 18 17 15 15 14 18 16 12 10 14 18 16 18 21 24 29 33 35 36 39 41 44 45 44 46 48 50 52 51 53 58 63 67 70 75
31 29 28 26 24 21 17 17 14 15 14 15 12 13 11 11 11 12 12 11 10 14 17 21 26 27 31 34 36 38 37 36 40 43 48 49 50 51 52 55 59 63 67 70
26 25 24 22 19 15 14 12 11 11 12 12 11 10 10 10 10 11 11 12 13 12 14 17 19 20 23 26 26 26 28 31 35 40 46 47 48 49 50 51 54 57 63 67
23 23 20 17 12 16 12 9 9 12 11 12 12 13 13 13 12 12 13 14 15 13 13 13 15 16 16 17 18 22 27 31 36 40 42 44 45 45 46 48 50 52 55 59
22 18 16 12 16 12 9 8 10 10 10 10 11 12 13 16 15 15 16 17 17 19 18 18 18 20 22 26 28 30 31 32 35 37 39 41 42 44 47 49 50 52 55 57
19 17 16 18 14 12 10 10 9 8 7 8 9 10 12 16 18 17 17 15 13 11 12 15 16 16 17 19 20 21 23 24 27 29 32 36 39 42 45 48 51 53 54 57
18 20 21 18 14 11 11 10 10 10 10 11 12 12 11 14 16 18 18 18 17 15 13 12 12 13 14 15 17 19 20 21 23 25 28 30 34 37 41 45 48 52 56 58
22 20 17 16 15 14 14 14 14 15 15 16 18 17 18 18 18 18 18 17 17 17 17 17 14 12 12 12 12 13 15 19 21 24 27 30 32 35 38 41 44 47 50 54
22 21 20 19 19 17 15 15 16 16 18 18 18 17 18 19 19 18 17 16 15 14 13 12 12 13 13 13 14 15 17 19 21 24 26 29 32 36 40 42 45 47 50 52
24 24 23 20 21 19 17 17 17 17 20 19 18 19 19 18 17 17 16 15 14 13 12 11 10 9 10 12 13 16 17 20 22 26 29 31 34 36 38 41 43 46 48 51
25 24 24 24 23 20 19 21 21 22 22 21 20 19 18 17 17 16 15 15 11 9 7 4 2 3 6 8 10 12 15 18 20 23 26 29 31 33 36 38 42 44 47 50

GFSNW_250_spd_078.txt.gz
Wind_Speed
109 112 109 107 109 110 108 106 104 103 99 99 98 94 90 85 79 73 71 64 58 55 54 54 55 53 53 56 59 60 59 57 59 66 69 70 71 71 70 69 66 66 68 65
99 101 100 99 99 102 101 99 97 94 94 93 92 86 83 77 71 69 66 61 57 54 54 52 53 53 52 53 59 60 62 60 62 64 66 70 73 72 73 69 69 68 67 64
89 91 92 92 94 95 93 94 89 89 87 81 77 73 70 69 67 64 64 60 55 53 52 49 51 53 54 54 58 59 58 61 64 63 65 67 71 74 72 71 70 69 66 61
81 84 84 86 87 87 84 84 81 79 75 70 68 66 65 64 63 61 60 56 53 47 49 47 50 51 51 51 58 60 58 56 62 65 63 64 68 69 70 68 67 66 62 49
73 76 77 76 78 77 76 70 69 71 65 61 63 62 61 61 58 56 55 52 47 44 44 43 44 46 46 51 60 60 59 56 59 64 66 66 62 64 67 67 65 63 55 37
66 68 68 69 67 65 64 63 63 60 58 58 57 59 58 56 53 51 50 47 42 40 36 37 38 41 43 49 56 58 63 60 59 61 65 60 59 58 60 63 64 60 47 38
61 61 61 60 60 60 57 56 57 55 54 54 53 54 53 50 49 47 45 41 38 35 32 31 34 36 40 46 53 59 63 59 57 57 57 58 55 56 55 60 60 57 47 42
57 56 56 56 57 55 53 52 50 50 52 52 51 50 48 46 46 44 37 35 36 29 29 28 31 33 38 45 52 57 57 55 53 49 48 49 53 55 56 58 56 51 45 52
55 55 53 51 51 50 49 48 48 48 50 49 50 48 44 42 43 37 32 29 30 25 25 25 28 31 37 42 49 51 51 45 46 42 46 50 51 53 54 53 51 48 49 60
50 49 49 49 49 47 47 47 47 48 46 47 47 43 39 40 38 33 30 25 25 21 23 24 26 28 31 38 44 45 39 41 44 44 51 53 51 50 53 54 52 56 57 64
49 48 48 48 48 47 47 47 47 45 44 43 42 36 36 38 32 28 26 21 21 20 21 24 24 24 28 32 36 35 35 42 43 48 51 54 51 52 55 54 54 58 61 66
49 50 50 49 48 46 46 45 45 41 41 40 35 31 32 35 30 20 22 19 20 19 20 22 22 23 26 27 30 35 44 46 53 55 55 57 54 53 56 55 55 60 66 68
50 49 49 48 47 45 41 42 42 43 37 33 30 29 29 31 25 17 19 15 20 18 19 22 23 25 28 29 31 38 44 48 53 51 53 56 54 49 55 55 56 62 70 70
50 48 47 45 42 42 39 38 40 40 34 27 26 25 27 25 24 17 18 16 20 19 20 21 22 23 28 32 35 41 45 47 51 54 55 52 49 48 54 56 57 63 72 76
48 46 44 43 40 38 39 38 35 33 28 27 22 22 24 20 21 16 17 17 21 19 19 20 21 24 26 31 37 43 45 46 51 53 51 47 49 51 53 58 59 65 74 78
46 44 43 40 37 34 36 37 30 24 23 25 21 19 19 17 15 15 16 18 19 18 18 18 20 24 27 30 34 36 43 46 47 45 45 41 45 48 52 57 60 65 72 78
42 40 38 35 31 30 32 32 25 22 19 18 18 16 14 14 13 12 14 18 13 14 15 16 19 23 26 28 31 34 40 43 39 38 43 44 48 51 53 57 59 64 70 75
37 35 32 29 27 27 27 23 23 19 16 14 14 13 12 12 13 14 16 12 11 13 13 14 16 19 24 26 28 31 33 35 33 34 39 44 47 50 53 57 59 63 69 73
31 29 27 25 25 23 19 20 18 16 15 14 11 12 12 14 15 13 13 15 16 15 14 13 13 14 19 22 23 25 24 21 24 31 35 42 47 49 51 55 57 59 62 67
26 24 24 24 20 18 19 17 15 14 14 9 10 10 12 15 15 17 17 18 17 16 15 13 12 13 13 14 17 19 22 25 32 32 36 40 45 48 50 52 54 56 57 59
26 26 23 19 19 18 16 14 13 12 8 8 7 9 12 15 15 17 19 19 20 21 20 21 22 23 22 23 24 25 26 27 30 33 36 39 41 45 48 50 51 54 56 58
24 22 21 21 19 18 15 14 11 9 9 7 7 10 13 15 16 15 15 15 18 19 21 22 23 21 21 21 20 19 20 22 25 28 31 34 38 42 46 48 50 52 55 58
23 22 22 19 18 16 16 14 12 11 8 8 10 11 11 14 15 16 17 19 18 17 17 16 17 16 16 16 17 18 20 22 24 26 30 33 36 39 44 47 49 52 54 57
24 24 22 21 18 19 16 16 14 14 15 16 16 15 15 14 16 16 17 18 17 17 17 16 16 16 17 18 19 20 22 23 25 27 30 32 35 37 41 44 47 51 54 56
26 24 24 23 21 19 18 17 17 18 18 17 16 15 15 15 17 16 17 18 18 18 17 16 15 15 15 14 15 17 19 21 23 26 28 30 33 36 39 42 45 48 50 54
27 27 25 24 23 22 21 20 20 19 20 18 18 16 17 18 19 19 17 15 14 13 12 10 9 8 9 11 13 16 18 20 22 24 27 30 33 35 38 40 43 45 47 50
29 28 27 27 26 26 24 22 20 19 20 18 18 18 18 17 17 16 16 16 14 14 13 12 11 9 10 10 11 12 13 15 18 21 24 27 30 32 35 37 41 44 47 50

GFSNW_250_spd_081.txt.gz
Wind_Speed
88 90 94 95 98 101 104 107 107 113 112 113 112 110 108 109 102 97 93 91 82 77 71 63 60 56 58 53 55 57 59 56 56 53 55 58 63 63 66 66 62 61 59 56
81 84 84 89 92 93 93 95 101 105 105 106 105 102 100 98 94 91 83 78 74 70 67 61 58 55 57 58 53 59 59 54 57 57 56 54 62 66 69 70 67 63 62 64
77 78 79 81 82 85 88 91 94 96 96 97 93 93 92 88 85 79 73 71 68 65 62 58 56 55 56 56 54 57 56 54 53 55 61 58 61 65 71 71 71 69 66 64
73 75 74 78 78 80 79 82 84 85 83 82 81 80 81 77 72 69 67 65 61 59 60 55 54 52 52 53 52 55 57 58 55 53 59 62 59 61 71 73 71 72 73 68
65 70 69 72 73 74 75 75 74 73 70 72 72 71 66 64 64 63 61 59 56 55 55 52 54 49 44 47 50 54 56 60 53 51 56 63 65 64 64 70 70 68 70 72
58 62 64 65 63 64 68 68 65 63 64 64 64 60 59 61 61 57 57 56 52 52 49 46 45 44 37 40 44 47 50 57 54 54 55 60 66 65 64 67 72 70 69 66
54 55 57 58 58 59 59 58 58 57 57 57 55 55 58 56 56 54 55 53 49 46 42 39 38 36 33 36 40 43 49 54 55 54 56 57 61 65 66 65 65 68 68 63
50 51 53 53 53 52 54 52 51 51 49 49 49 51 52 52 52 52 49 49 43 41 36 35 33 33 30 33 34 41 47 51 58 60 58 55 59 60 60 62 63 63 61 60
49 49 49 49 49 49 48 48 47 45 46 46 49 49 48 48 49 48 46 43 40 37 33 32 30 29 27 30 33 40 46 51 54 54 53 51 52 53 48 57 56 60 61 59
48 48 48 47 46 45 44 43 44 44 44 46 46 45 45 46 46 45 42 40 36 35 31 29 28 27 27 29 32 35 42 46 47 40 38 46 53 48 48 55 57 59 63 62
48 48 47 46 44 43 43 42 42 42 43 45 44 43 44 43 44 41 39 34 31 33 30 27 27 25 26 30 31 34 37 39 37 35 38 49 49 48 47 49 54 59 60 64
47 47 46 45 43 43 43 43 43 43 44 45 43 41 40 40 40 39 37 30 27 29 28 26 25 24 25 27 32 34 36 36 38 38 40 48 49 51 49 50 51 56 57 55
47 47 46 45 44 44 44 45 42 44 41 40 41 36 37 37 34 34 32 25 26 28 25 24 24 23 25 29 30 31 34 35 35 39 43 49 52 54 54 52 49 53 55 53
50 49 48 47 46 45 44 43 45 41 36 37 38 34 34 30 31 27 29 24 27 25 23 22 23 21 22 26 28 29 26 31 37 41 44 49 51 55 56 53 51 51 55 56
49 48 48 47 45 43 42 44 42 38 38 34 31 31 28 26 28 23 26 26 26 22 21 21 20 19 21 23 26 30 30 34 40 46 48 53 57 53 48 47 48 49 53 59
49 48 47 44 43 42 43 43 37 38 36 30 28 25 24 24 24 23 23 24 24 19 17 17 18 19 20 23 27 31 37 42 46 48 51 52 49 46 46 48 48 49 54 59
48 46 43 41 40 41 42 39 35 34 29 27 25 23 18 21 23 23 21 21 16 14 13 16 18 18 19 22 25 29 34 41 43 44 40 38 33 39 43 47 48 48 52 58
44 42 41 38 39 39 39 35 31 27 23 21 22 21 18 19 20 18 19 15 12 13 12 15 17 17 18 21 24 29 33 33 35 35 35 35 38 42 45 49 52 51 53 58
40 38 36 34 35 37 32 31 26 20 18 18 18 17 15 15 14 12 12 12 14 15 15 18 16 16 18 21 24 25 23 21 23 28 31 34 36 42 47 47 51 54 55 57
34 32 31 34 31 30 28 24 19 16 15 15 13 13 12 11 10 10 14 15 16 17 18 18 17 17 16 17 17 17 17 18 20 24 29 33 37 41 48 50 51 53 55 56
32 31 32 29 28 26 22 19 17 15 14 12 11 10 9 7 8 11 13 15 19 21 20 20 20 20 19 17 17 18 19 20 24 27 30 34 37 39 44 48 49 51 55 57
31 29 26 26 24 21 19 17 15 14 13 11 10 9 7 5 7 10 12 16 19 21 21 23 25 24 25 24 21 19 20 22 23 26 27 27 30 34 38 42 47 50 53 55
26 27 26 23 21 20 19 17 16 14 13 12 9 6 4 5 7 10 11 12 13 14 14 13 15 14 13 12 12 12 13 15 18 21 24 27 29 32 36 40 43 47 50 54
27 25 24 23 22 22 20 18 17 16 14 12 10 10 9 11 13 13 13 15 14 17 17 17 16 15 14 13 13 13 14 16 19 21 24 27 30 32 35 38 42 45 48 52
28 27 26 26 25 22 21 20 18 16 14 13 12 12 13 13 14 14 14 15 16 15 14 13 11 11 9 8 8 10 12 15 17 19 22 25 28 31 34 37 40 43 46 49
29 29 28 26 25 23 22 19 17 14 14 14 15 14 14 14 14 13 12 12 13 12 10 9 7 6 6 7 8 9 11 14 16 19 22 24 28 31 33 37 40 42 45 48
30 30 29 27 25 24 21 19 16 16 16 16 14 14 13 14 15 14 12 11 11 10 9 8 5 3 1 3 5 8 10 14 17 20 25 28 30 34 37 40 43 46 48 51

GFSNW_250_spd_084.txt.gz
Wind_Speed
66 71 69 72 73 75 75 77 80 82 85 87 82 83 89 93 94 99 102 105 107 107 106 103 95 87 84 80 70 61 57 59 50 48 39 45 44 44 52 53 54 52 54 58
61 62 65 68 68 70 69 76 80 84 83 85 86 88 90 91 95 97 99 99 98 95 92 86 83 81 74 69 65 54 52 55 50 46 46 46 47 46 54 58 63 58 60 62
58 60 65 65 67 66 70 75 78 82 81 81 84 83 83 86 89 89 89 89 88 84 80 78 75 72 67 64 60 55 50 55 51 48 48 48 50 52 55 55 64 66 66 65
55 59 62 65 70 70 70 74 74 74 79 79 77 78 77 78 80 79 79 80 76 73 73 70 67 64 62 59 55 54 47 53 52 50 48 48 51 54 55 58 65 69 70 72
53 57 60 62 63 65 69 72 73 74 70 71 72 73 74 73 73 71 68 69 67 66 65 64 62 60 59 55 47 47 47 48 46 46 49 49 43 50 60 56 68 71 74 73
53 53 54 57 60 60 63 68 67 66 64 64 63 68 67 65 63 62 62 63 61 60 58 57 56 58 54 48 42 41 42 42 39 46 48 44 42 51 57 61 73 70 66 69
48 48 50 54 56 57 56 57 59 60 62 60 62 58 56 57 58 59 58 59 57 55 53 51 51 52 47 40 35 34 35 37 39 46 43 37 45 51 55 63 68 61 60 65
45 47 47 48 50 51 49 49 51 52 53 52 51 51 52 52 52 54 55 55 53 51 49 47 47 45 41 34 30 28 31 33 37 41 41 45 53 55 56 61 58 60 62 66
44 44 45 45 45 44 44 46 47 47 47 47 47 47 48 49 49 50 51 52 49 47 45 42 38 35 33 29 25 24 26 29 35 39 46 56 53 55 57 58 55 61 59 62
42 43 42 41 41 41 41 42 42 42 42 42 42 44 44 45 47 49 49 48 45 43 40 38 32 29 28 25 22 22 26 31 37 46 50 55 50 49 56 53 50 59 59 61
42 40 39 39 39 39 38 40 40 39 40 41 42 42 42 43 45 47 47 44 40 38 34 34 28 25 26 24 22 23 28 32 38 45 49 48 35 39 47 49 51 51 53 60
44 43 42 41 41 40 38 38 39 40 41 41 40 39 40 41 43 44 45 42 38 33 28 28 22 25 26 23 27 27 31 35 40 42 40 37 30 32 41 41 39 45 50 58
46 44 43 41 39 39 39 38 38 40 41 40 41 38 40 40 40 41 42 38 35 30 24 23 20 25 26 27 28 27 29 34 35 34 34 30 26 33 39 41 40 45 49 56
45 44 43 42 41 40 40 39 41 41 41 41 41 39 39 38 37 39 38 33 32 28 22 21 20 25 26 26 25 24 26 27 29 27 26 27 32 39 42 45 47 51 50 52
46 45 44 43 42 42 42 44 42 40 41 39 40 39 37 35 33 36 36 28 28 25 22 20 21 22 23 24 23 23 24 24 24 23 28 33 37 44 49 53 52 48 48 49
46 45 44 42 41 42 44 43 41 41 38 38 38 40 34 30 31 31 30 26 25 23 20 20 20 19 21 24 21 21 22 28 28 28 32 39 46 49 50 49 44 45 48 49
44 42 41 41 41 42 44 42 40 38 36 36 36 34 29 28 29 26 26 21 21 19 18 18 18 18 20 21 21 21 25 31 35 37 41 45 46 45 42 35 41 44 47 48
43 41 41 40 42 45 43 37 36 35 35 33 31 29 27 21 22 21 21 20 18 17 18 17 17 16 17 19 22 25 28 31 32 33 36 39 37 33 30 35 40 44 47 48
41 39 40 41 43 43 35 36 33 32 30 27 26 25 22 19 17 18 18 17 17 17 17 16 16 15 17 20 23 24 23 21 21 21 22 23 26 26 26 32 38 42 45 48
38 37 37 41 40 35 33 32 31 26 22 23 21 19 17 16 15 14 14 15 16 17 17 16 15 17 18 20 19 17 14 13 10 15 17 21 24 25 27 31 37 40 44 46
38 37 38 39 34 31 30 28 22 20 20 18 17 16 14 12 10 8 8 8 11 13 15 16 17 17 17 16 14 12 11 10 12 17 20 23 25 25 28 30 34 38 41 45
33 34 34 29 28 28 25 19 19 19 17 14 13 11 9 8 5 5 5 8 10 13 13 16 18 19 20 20 18 14 13 13 14 17 19 22 23 25 28 31 34 37 41 45
31 29 25 26 26 23 19 20 18 16 13 11 9 9 9 7 7 7 6 5 6 9 13 15 15 13 17 14 13 13 13 13 14 16 18 20 22 26 29 32 35 38 41 44
26 27 27 25 22 21 20 18 16 13 11 10 10 11 11 10 9 8 7 6 7 8 11 12 14 13 12 12 11 10 10 10 11 12 14 16 19 22 25 28 31 35 39 42
28 26 25 24 23 22 20 18 15 13 12 13 13 11 11 10 10 11 11 14 14 11 11 12 11 10 9 8 6 5 4 5 8 10 14 17 20 23 26 29 32 36 39 42
27 27 26 26 24 22 19 17 14 15 16 14 13 13 12 12 13 11 10 12 12 13 13 12 11 10 7 5 3 2 2 5 8 12 15 19 23 26 29 32 36 39 42 45
27 27 27 25 23 21 19 17 17 15 15 15 15 14 12 12 14 14 13 13 13 13 13 13 12 10 7 5 3 3 6 10 13 16 20 24 28 31 34 37 41 44 47 50

GFSNW_250_spd_087.txt.gz
Wind_Speed
46 48 49 54 59 64 70 78 79 80 72 72 76 77 78 81 77 74 74 75 78 81 82 83 89 92 90 88 87 82 80 66 50 54 62 49 48 48 41 38 40 40 46 51
44 45 46 50 54 59 63 71 73 75 74 75 74 70 68 70 70 69 73 78 83 82 86 86 86 83 82 80 81 76 70 59 48 44 54 54 43 46 42 40 40 42 50 54
40 42 44 46 47 54 59 62 63 72 73 63 62 62 64 68 70 72 75 80 84 83 84 79 76 77 76 76 71 65 58 55 48 42 51 54 45 47 45 42 44 46 51 59
40 41 43 46 47 49 51 57 57 58 59 62 64 64 64 71 72 73 75 77 78 79 75 73 74 73 69 68 64 60 53 51 43 42 51 52 45 44 49 47 47 49 57 63
39 39 40 43 45 46 50 51 51 56 57 59 64 64 67 70 71 70 71 71 71 71 69 69 69 64 61 59 59 55 49 48 41 45 50 45 38 46 49 50 50 50 54 65
39 40 40 39 43 45 50 50 54 60 58 60 63 67 66 65 66 66 63 62 60 60 62 62 59 55 56 54 53 51 45 43 37 44 46 39 36 48 48 47 51 52 58 62
41 41 40 41 43 43 46 50 53 54 56 55 58 58 58 60 62 60 57 55 56 56 57 56 53 52 51 49 49 44 41 37 36 39 36 31 45 44 48 48 50 57 70 68
40 38 39 40 41 43 45 46 48 50 50 49 51 53 54 54 51 49 51 52 52 53 53 51 49 48 47 45 41 38 33 32 30 29 27 38 42 41 49 49 52 61 67 61
39 38 38 39 40 42 42 43 44 43 43 43 44 45 45 44 45 46 48 51 50 48 47 45 44 42 41 37 35 31 28 25 24 23 26 35 41 45 46 51 50 54 61 61
39 39 39 38 38 38 39 39 38 37 38 39 39 39 39 41 43 44 45 46 46 46 44 44 40 37 37 32 29 26 23 19 22 26 33 44 47 51 50 53 52 52 54 58
38 38 37 37 37 38 37 37 36 35 35 34 34 35 38 40 41 41 42 43 43 42 41 38 34 30 32 28 26 23 21 20 23 30 38 44 46 47 48 52 54 50 50 53
36 37 37 36 35 33 34 33 33 33 33 33 33 34 36 38 39 39 41 41 40 37 36 32 30 27 27 25 24 23 22 23 27 33 38 40 39 38 34 47 50 46 42 44
37 36 34 33 31 32 31 30 32 31 30 29 32 34 35 37 38 38 39 39 38 35 34 29 27 25 25 24 21 19 20 22 27 30 29 29 29 22 17 28 43 45 41 43
40 38 35 34 33 33 34 32 33 32 30 31 34 34 36 36 35 35 36 38 36 32 30 26 24 24 23 21 18 17 18 20 23 24 24 23 23 21 21 22 31 41 43 41
40 38 37 36 35 34 34 33 31 31 32 34 35 35 36 36 34 34 34 37 33 28 25 23 23 24 22 18 16 15 18 19 20 20 20 20 21 22 24 29 37 43 45 46
41 40 37 36 36 35 34 33 33 32 34 34 36 36 34 33 33 33 32 32 30 25 23 20 22 23 19 18 15 15 18 18 19 18 19 23 25 27 32 36 41 44 46 46
42 41 38 37 37 36 33 30 31 32 33 35 37 35 32 32 32 30 26 26 27 20 19 18 19 20 19 18 16 15 17 19 21 23 25 27 30 35 38 43 45 44 44 46
40 38 37 37 37 34 30 30 31 32 34 37 35 31 31 27 27 25 21 23 20 17 17 17 17 18 18 17 16 16 20 23 24 26 30 33 36 38 42 43 41 38 37 43
38 38 38 37 35 29 31 31 32 34 34 33 29 28 27 20 21 18 18 20 18 15 16 16 16 17 17 18 19 17 17 19 19 18 23 30 35 39 40 39 30 29 35 39
38 38 37 34 31 31 31 30 32 30 29 27 26 24 19 17 15 14 15 15 15 16 15 16 16 18 18 17 13 11 10 12 11 12 12 16 23 21 20 25 28 28 29 32
40 36 33 31 29 28 29 29 28 25 23 23 20 17 14 13 13 12 13 12 12 14 14 15 15 15 12 10 10 10 9 9 10 11 12 13 14 16 18 20 22 25 29 33
33 32 32 27 27 27 29 27 21 20 19 16 15 13 11 12 11 11 12 11 10 9 9 11 13 13 13 14 16 18 18 17 16 17 16 15 15 17 21 24 27 29 31 34
33 31 28 27 26 27 24 18 18 16 13 12 12 12 11 12 12 9 8 6 6 8 9 7 9 11 14 15 15 14 14 11 10 11 12 12 14 16 19 22 25 28 31 34
29 27 26 26 27 20 18 17 15 13 12 12 12 11 11 12 10 10 11 9 10 9 9 9 10 12 11 15 12 12 10 7 6 6 7 9 11 14 17 20 23 27 30 34
26 26 27 24 18 20 18 15 14 14 13 13 12 11 12 13 13 12 11 13 14 9 9 13 14 12 14 12 10 9 7 6 5 5 6 8 11 13 16 20 23 26 30 33
27 26 22 21 21 18 16 17 16 14 14 13 13 14 15 14 15 15 14 12 8 16 16 16 16 15 15 14 11 9 6 5 5 6 8 12 15 18 21 25 28 32 35 39
22 21 22 21 20 19 19 18 16 15 16 17 18 17 18 16 16 16 17 16 18 18 18 17 18 17 16 14 11 8 7 6 7 10 13 17 21 25 28 31 34 38 42 46

GFSNW_250_spd_090.txt.gz
Wind_Speed
42 40 39 40 42 42 40 42 47 48 49 54 58 60 64 66 68 70 70 70 70 69 70 69 73 72 73 73 75 75 73 70 65 70 76 75 68 55 50 51 41 34 32 33
41 39 41 37 37 37 38 41 45 48 52 59 59 59 62 60 64 63 63 65 65 67 64 64 66 68 69 72 74 77 76 71 62 56 63 67 60 48 45 45 38 35 31 42
40 38 35 35 34 38 37 40 42 45 52 56 56 56 53 58 60 60 61 65 62 57 59 63 67 70 71 73 74 75 73 69 58 48 54 60 54 45 43 44 35 35 33 46
37 37 35 34 35 35 35 39 40 44 48 51 55 53 56 59 61 62 67 65 59 60 67 67 70 70 71 73 74 69 64 61 53 48 50 52 46 43 42 41 35 34 41 54
38 37 34 35 34 34 37 39 43 46 51 56 57 57 56 59 64 68 66 61 61 62 64 67 71 67 66 67 67 57 54 53 45 49 48 42 40 42 43 41 42 42 47 54
38 36 34 33 34 36 36 37 40 40 42 45 49 50 51 54 55 55 56 57 60 63 68 68 65 63 62 60 56 53 48 44 39 48 40 38 37 43 45 47 42 45 47 49
37 36 34 31 30 32 34 34 36 37 39 41 43 45 47 49 51 53 56 59 60 60 58 58 55 54 53 51 49 46 44 41 39 40 38 35 40 41 42 41 44 45 48 52
37 35 34 32 31 32 33 34 35 38 42 41 42 44 46 47 48 49 51 53 54 54 51 50 50 48 49 47 42 42 43 43 40 35 31 31 33 35 39 41 43 45 53 53
37 35 35 34 33 31 33 34 35 37 39 39 39 39 41 44 45 45 47 47 46 48 49 47 48 45 46 43 42 42 37 34 32 27 26 29 28 34 38 43 45 49 55 57
35 35 36 35 33 34 35 35 35 34 33 34 34 35 36 36 38 40 42 44 46 46 44 43 41 43 44 39 40 37 33 29 27 26 29 33 32 34 38 45 49 51 51 54
34 37 37 35 34 34 32 32 32 31 32 32 32 32 34 36 38 40 42 42 42 42 41 39 40 41 38 36 36 31 26 24 25 27 29 29 33 35 41 45 45 46 53 56
35 37 35 36 35 34 31 31 32 30 29 30 31 32 34 36 39 41 40 40 40 39 39 37 35 37 30 36 30 23 22 21 20 22 25 28 33 35 42 45 50 49 51 54
35 36 35 34 33 32 30 30 29 28 29 30 31 33 34 35 36 36 37 37 38 37 35 34 31 34 28 31 22 18 18 18 16 18 21 26 32 34 39 46 49 53 54 54
36 34 34 32 31 31 30 28 27 27 28 29 29 31 31 34 35 35 36 37 36 35 32 30 29 30 25 23 17 17 17 17 16 17 17 21 25 26 28 36 41 41 46 48
35 33 32 31 30 28 26 27 25 25 25 28 29 31 33 34 34 34 35 37 35 31 30 27 25 24 22 18 17 16 17 16 17 15 15 17 19 22 17 22 27 29 33 42
35 33 31 29 29 26 26 24 24 25 27 29 31 33 34 34 33 33 33 33 32 30 27 23 23 21 20 18 16 16 16 17 17 16 17 18 19 17 21 26 23 21 27 30
36 34 32 31 29 27 26 25 27 27 30 33 33 32 32 32 32 31 29 31 29 28 21 21 21 18 19 18 16 17 17 17 17 19 22 22 23 25 23 23 26 26 32 39
37 34 33 32 31 29 28 27 28 30 31 33 32 30 31 31 30 28 27 26 23 22 15 19 18 19 17 17 15 16 18 18 19 21 24 26 28 28 30 31 34 37 41 43
37 34 34 31 26 24 28 28 29 31 33 32 29 32 29 25 26 25 23 22 19 15 15 18 18 17 16 15 16 17 19 18 17 20 23 27 29 31 32 34 36 44 45 36
37 35 30 26 27 26 24 27 30 31 33 31 29 28 23 23 20 19 17 18 16 15 14 15 15 16 15 14 11 11 12 12 12 15 18 20 22 28 31 31 35 20 20 34
35 31 28 27 26 25 27 29 31 30 29 27 25 23 21 19 16 15 13 13 13 13 12 13 12 12 10 9 12 13 13 13 14 15 15 11 12 16 21 25 27 30 30 28
33 31 28 26 25 27 30 30 28 26 25 25 21 19 16 14 12 10 10 9 9 8 9 9 10 12 13 14 16 19 20 21 21 20 19 18 17 17 18 20 21 22 25 27
32 29 26 26 27 30 29 25 23 23 21 19 17 15 12 10 8 7 8 9 9 10 11 11 11 11 12 12 13 14 14 11 10 10 10 10 11 12 14 16 19 21 23 26
29 27 26 25 29 29 24 21 21 19 17 16 14 12 10 9 8 10 12 11 12 12 13 11 12 11 11 10 10 10 12 12 10 8 6 6 7 9 11 14 17 20 23 27
28 27 26 29 28 23 20 19 18 16 16 15 13 11 10 11 12 13 12 14 15 13 14 15 16 13 16 15 14 15 13 11 8 6 5 4 6 8 11 14 18 21 25 28
28 28 29 26 22 21 18 19 17 17 16 13 13 12 13 13 15 15 15 10 12 17 18 19 18 19 18 18 16 13 12 10 7 4 0 4 7 10 13 17 21 24 28 30
30 28 23 22 21 20 21 19 19 18 16 15 15 16 17 18 19 20 19 20 18 20 21 21 22 19 20 19 16 14 11 7 4 3 5 9 13 16 19 23 26 30 33 37

GFSNW_250_spd_093.txt.gz
Wind_Speed
49 47 45 42 42 42 42 43 42 42 41 39 42 41 40 42 48 45 48 55 59 63 69 73 70 69 70 74 77 77 78 77 74 77 83 84 81 78 77 77 69 61 50 37
46 45 42 40 39 40 40 40 41 40 35 32 36 34 37 38 39 45 47 47 51 56 59 63 65 64 66 64 68 69 72 69 66 65 68 74 76 75 72 64 57 51 47 36
45 42 39 37 38 38 39 39 38 37 33 32 36 36 41 44 46 45 46 46 48 52 54 56 56 58 61 64 66 63 62 62 62 64 70 74 75 70 61 56 47 45 42 42
43 40 37 35 36 35 36 38 35 35 32 33 39 41 43 46 50 52 52 49 48 54 58 59 60 59 61 62 60 61 62 64 66 64 67 68 57 55 55 49 43 40 44 43
39 37 34 33 34 33 34 35 33 33 35 39 35 39 44 46 47 48 45 50 55 57 60 59 61 64 65 64 63 63 63 65 61 61 58 52 41 52 54 44 41 41 44 43
36 35 34 33 32 32 34 33 31 34 35 39 42 45 45 45 46 48 50 53 56 59 63 64 63 64 64 63 64 59 61 56 53 56 52 42 41 48 50 41 41 40 40 45
35 35 34 32 32 33 32 31 31 33 37 40 46 46 44 48 53 56 56 57 57 57 57 56 58 60 61 61 58 58 53 49 47 46 43 41 40 46 45 42 42 42 46 49
35 35 34 34 33 33 32 31 30 34 36 40 42 44 48 49 51 53 51 49 49 51 53 55 56 58 58 54 51 49 48 46 41 40 38 36 42 41 38 38 40 41 45 49
36 36 35 34 33 31 30 29 30 31 33 35 39 39 37 38 39 41 44 46 49 51 51 50 50 50 48 42 44 45 39 39 39 37 34 34 34 33 32 34 37 42 48 52
37 36 34 34 34 31 30 31 32 31 31 31 34 36 38 40 42 42 44 44 44 45 47 45 44 45 39 40 43 40 37 34 34 32 31 29 29 28 32 33 36 42 48 53
36 36 36 36 34 31 32 31 30 30 30 33 35 36 36 38 39 39 39 40 41 42 42 40 40 41 35 41 41 35 34 32 29 27 23 21 22 27 30 32 37 41 47 50
36 37 37 35 34 34 32 30 30 31 30 31 33 35 37 35 36 38 38 39 39 40 39 39 39 39 34 40 38 32 31 28 24 23 18 18 20 23 25 30 36 43 49 52
37 38 37 35 35 33 32 30 29 29 29 30 31 32 34 36 36 36 37 39 40 39 38 38 37 39 33 37 31 28 25 23 21 19 16 15 17 21 25 29 35 40 42 48
40 38 35 36 34 33 31 30 31 31 30 31 32 32 32 34 35 37 39 39 37 38 37 37 37 36 30 35 27 23 22 22 20 18 18 17 17 22 26 30 36 41 45 45
39 38 36 34 33 32 31 32 31 30 29 29 32 31 32 35 36 36 37 38 37 36 36 35 35 32 30 29 25 21 21 20 19 19 20 21 21 20 23 26 34 40 42 44
39 37 36 33 33 33 31 30 29 29 29 30 30 31 31 31 34 36 37 36 34 34 35 35 31 30 27 25 23 21 22 22 20 20 22 22 19 17 17 20 25 27 30 30
40 38 36 34 33 33 31 29 30 30 29 29 27 28 30 35 36 36 36 32 33 34 33 32 28 27 24 23 22 22 23 22 22 23 23 23 22 22 21 18 16 20 24 31
40 39 37 35 33 30 29 28 27 28 27 25 26 30 34 35 34 32 31 31 31 30 30 28 26 24 20 21 20 21 23 22 22 23 23 23 23 23 23 21 20 20 18 21
38 36 34 31 29 27 26 27 28 27 26 25 28 32 33 31 30 29 28 28 27 24 24 22 21 20 19 18 18 19 20 20 23 23 24 25 24 24 26 27 27 28 29 31
39 35 31 29 28 27 26 26 27 26 24 26 31 31 30 29 28 27 25 25 21 19 18 18 18 18 16 16 15 15 17 17 19 22 24 26 30 29 29 29 29 32 34 37
38 35 32 30 29 27 27 27 24 24 26 29 29 29 27 26 24 22 20 18 17 17 16 16 16 14 14 12 13 16 18 19 20 21 21 22 23 23 26 29 31 30 29 27
37 33 31 30 29 29 29 26 25 26 28 29 29 27 25 22 19 16 14 14 14 14 15 14 14 14 15 15 17 18 18 19 18 17 17 18 17 17 17 18 19 22 25 26
34 32 30 30 30 30 27 25 27 28 29 28 25 22 18 15 13 13 13 12 11 12 13 15 15 14 13 12 11 11 13 12 11 11 12 13 13 13 13 15 17 20 22 24
33 32 31 30 31 29 26 28 28 28 26 24 21 17 14 12 12 11 10 10 10 11 12 12 13 12 11 11 11 13 14 14 13 12 12 11 11 11 11 12 13 15 18 21
32 31 30 32 31 28 29 29 26 24 23 20 17 13 12 12 10 8 8 10 10 11 14 14 15 16 17 17 15 14 15 15 13 11 9 7 6 5 6 9 12 16 19 22
32 31 32 32 30 29 28 25 22 21 18 16 14 13 14 11 11 12 12 12 13 14 16 17 18 17 18 16 14 15 14 13 11 8 5 3 3 5 8 11 13 16 20 24
34 33 33 31 29 27 23 22 21 19 17 16 16 15 14 15 16 17 16 16 17 16 19 19 18 18 17 16 15 15 14 12 9 7 4 1 3 7 11 16 19 23 27 31

GFSNW_250_spd_096.txt.gz
Wind_Speed
74 69 63 59 56 53 49 46 48 48 46 45 44 44 40 39 41 38 41 39 41 40 39 40 44 53 58 63 69 71 75 75 80 86 88 86 87 88 86 85 84 82 80 73
69 65 60 54 53 49 45 44 44 43 45 44 40 39 35 33 35 36 40 38 36 34 31 34 39 43 50 55 60 63 65 67 71 75 79 79 81 84 84 81 79 78 76 62
62 58 55 50 49 46 43 41 41 40 45 41 37 36 31 29 31 33 35 35 33 32 35 38 39 41 44 48 52 55 58 61 66 69 71 73 75 80 80 78 72 70 63 55
57 53 51 47 44 42 38 38 38 40 42 37 37 36 30 31 33 35 36 35 37 37 35 35 37 42 46 51 54 54 55 55 58 61 63 67 68 70 74 72 67 63 55 51
53 49 46 43 40 39 39 37 36 38 39 35 37 37 34 36 36 35 37 39 39 42 40 40 42 45 47 51 53 54 55 61 62 65 67 67 62 65 65 63 61 54 44 42
51 45 43 40 38 37 36 33 35 39 38 35 35 37 36 38 38 39 41 44 42 42 45 46 48 50 55 54 53 56 64 65 62 64 64 58 50 55 55 54 51 47 36 46
48 44 41 38 35 35 32 33 33 33 33 32 35 38 37 40 42 42 43 44 46 46 47 48 49 51 52 54 59 62 62 59 58 56 54 50 49 52 51 46 46 43 40 46
45 41 38 35 34 32 30 31 30 31 30 30 32 35 39 40 42 43 43 43 43 44 47 49 51 53 57 61 59 57 58 51 46 45 47 46 46 49 44 40 43 42 43 42
42 40 37 35 33 30 30 30 29 28 28 30 32 35 39 40 43 45 44 45 47 49 53 55 58 59 59 55 56 53 48 43 41 40 40 42 40 41 36 37 38 37 39 39
41 38 35 33 31 31 30 29 29 28 29 31 32 34 38 41 42 46 49 48 49 50 50 50 50 51 51 51 50 48 41 37 39 37 36 36 36 32 32 33 32 33 38 42
39 36 34 34 33 31 31 30 30 29 30 32 33 33 36 38 41 43 42 41 40 43 44 45 47 46 43 42 43 39 36 34 35 33 31 32 29 29 29 29 28 31 36 39
38 36 35 33 32 32 31 29 30 31 32 32 33 34 35 37 38 39 38 39 42 43 44 44 42 39 38 36 40 35 34 32 34 28 28 28 25 25 25 25 27 32 38 44
39 37 35 34 33 31 31 31 31 31 30 31 33 33 34 35 36 37 38 39 40 40 41 41 39 35 34 34 37 32 33 33 32 26 26 24 22 20 21 22 24 30 35 40
39 38 35 34 33 33 32 32 32 31 30 30 30 33 32 33 34 35 36 36 38 40 39 36 36 35 35 35 34 31 31 31 30 23 22 24 20 19 18 22 23 29 34 41
40 38 34 34 34 33 33 32 31 30 30 30 29 29 29 30 32 34 34 37 37 36 37 37 38 36 34 33 33 28 29 27 26 23 21 21 19 19 17 20 22 25 30 35
40 35 33 33 33 33 33 32 31 30 30 29 29 28 30 31 32 34 35 36 36 36 35 35 36 35 32 31 31 27 25 25 25 23 21 21 19 18 19 18 21 23 28 29
39 36 34 34 34 33 32 31 31 29 28 28 28 29 30 32 34 36 37 35 36 35 34 32 33 34 30 29 28 25 22 24 25 24 21 22 21 20 20 18 18 21 28 29
40 37 36 35 33 32 31 31 30 28 26 27 28 29 33 35 35 34 34 33 32 33 33 32 31 30 27 25 23 23 21 23 24 24 23 24 22 22 21 21 19 17 15 19
40 38 36 34 32 32 31 29 28 27 27 28 30 33 33 34 33 33 31 30 32 32 29 29 27 25 23 19 19 20 20 23 22 23 24 25 25 25 26 26 27 28 23 24
40 38 35 33 32 31 30 29 28 28 28 29 30 31 31 32 31 30 29 29 28 25 23 22 20 20 19 16 17 19 19 20 22 23 24 25 26 27 28 29 28 29 29 29
43 41 38 35 34 32 32 30 28 26 27 29 28 28 30 30 28 28 25 24 21 20 18 17 17 17 16 16 17 19 21 23 24 23 21 20 20 22 27 26 27 28 31 30
39 37 36 34 33 32 29 26 25 26 26 26 27 29 29 26 25 25 22 19 17 16 14 14 14 15 17 19 20 21 19 17 16 16 16 13 16 17 16 14 16 18 19 22
36 34 33 32 30 28 26 25 25 26 26 27 28 28 26 23 22 20 17 15 14 13 13 14 15 18 18 17 15 12 12 14 14 14 13 14 16 16 16 17 17 15 15 18
38 35 32 30 29 28 26 26 26 27 27 28 27 24 22 20 18 15 13 12 12 12 12 13 13 12 12 13 12 13 13 12 9 9 11 13 13 12 11 11 10 11 14 17
35 33 32 31 29 28 27 27 28 28 29 27 24 21 18 16 13 11 10 10 10 10 9 11 13 15 15 14 14 14 13 11 10 10 11 10 9 8 7 7 9 12 16 20
35 35 34 31 29 28 28 28 28 28 27 23 19 17 15 13 13 12 11 9 10 12 13 15 16 17 17 17 13 11 13 13 13 13 12 11 10 8 8 11 12 14 16 20
36 35 32 30 30 30 30 29 28 26 23 21 17 16 16 14 13 12 11 11 13 13 15 15 16 16 18 15 13 14 15 16 16 14 11 9 8 6 5 9 13 18 22 26

GFSNW_250_spd_099.txt.gz
Wind_Speed
96 93 90 87 85 78 71 67 63 57 54 56 52 50 53 49 49 45 43 45 45 42 35 32 31 35 40 40 41 43 50 56 61 63 67 72 75 78 80 84 88 89 87 83
82 81 80 76 72 67 63 60 55 51 53 52 50 49 47 47 46 44 37 40 38 38 34 29 32 32 32 35 39 42 45 49 54 57 59 63 68 72 75 78 79 81 82 77
76 74 72 68 64 61 57 53 51 48 51 48 46 46 44 45 43 39 33 35 32 32 31 29 30 32 33 34 35 36 40 44 48 51 55 60 65 69 72 72 73 73 70 73
66 67 66 62 58 55 52 48 47 46 45 45 43 44 44 42 41 34 32 30 30 31 30 30 33 33 33 35 37 38 40 43 46 50 53 56 59 61 63 67 71 68 71 66
56 57 55 53 51 49 46 44 43 43 42 41 43 43 41 41 37 32 24 26 29 30 32 31 31 33 35 36 36 37 40 43 47 50 52 56 62 66 67 66 69 68 65 62
49 50 49 48 47 47 41 39 39 39 38 40 41 39 36 34 32 30 28 32 32 33 32 32 33 32 31 34 37 39 42 47 52 53 53 53 56 60 63 65 66 59 56 53
44 45 45 45 43 41 38 37 36 36 38 39 37 34 31 31 34 34 33 35 33 34 33 35 33 34 34 37 41 44 46 50 53 54 55 55 56 58 58 56 54 52 49 47
42 42 43 41 41 38 35 34 33 33 35 35 35 32 34 35 36 36 35 38 34 34 36 37 37 38 39 43 47 49 48 50 52 55 54 53 51 52 51 48 49 47 44 40
40 42 41 40 37 35 34 32 32 32 33 32 31 31 32 33 37 35 36 37 36 35 37 39 40 42 44 44 48 50 52 52 53 49 47 45 43 45 45 47 48 43 40 38
40 40 40 38 36 35 33 32 32 30 30 30 30 30 31 32 35 35 37 38 40 41 40 42 44 43 45 49 51 52 50 45 43 40 38 38 39 40 42 43 41 38 37 36
39 39 39 38 36 34 33 31 29 29 29 30 30 30 30 30 33 37 37 38 40 41 43 44 46 47 49 50 49 45 40 36 36 33 34 35 35 35 36 34 34 33 33 34
39 40 39 37 36 34 32 30 28 29 29 29 29 28 28 29 32 36 39 40 41 43 45 46 46 45 45 46 43 37 36 34 34 27 31 32 29 30 28 27 28 29 29 29
42 41 39 37 36 33 30 30 29 29 29 28 28 29 30 31 32 32 34 37 40 41 41 41 41 41 38 37 36 33 31 32 31 26 29 26 24 24 23 23 25 27 29 31
43 41 39 37 34 32 32 31 29 28 30 30 30 30 31 30 31 33 35 35 36 37 38 39 38 35 32 30 29 31 30 33 31 24 27 23 21 21 22 24 26 26 28 32
43 40 39 36 34 32 31 30 30 30 30 29 29 27 27 29 29 30 31 33 35 36 36 36 34 31 29 28 26 29 29 32 30 23 25 20 18 21 24 24 24 27 28 30
42 40 37 35 33 31 30 31 30 29 29 27 27 27 28 28 29 30 32 33 34 34 33 32 31 31 31 31 29 28 28 29 28 24 22 20 18 21 23 22 22 23 23 26
43 40 37 34 32 30 31 31 29 29 28 27 26 26 27 28 29 30 31 32 32 32 31 32 33 34 32 30 29 29 26 26 26 25 20 20 19 20 22 21 22 23 23 24
42 39 37 33 30 30 30 30 29 28 26 26 26 26 28 29 29 30 30 30 30 32 32 33 33 32 33 30 28 27 24 23 25 24 21 19 19 21 23 23 23 22 21 22
42 39 36 33 31 30 29 28 26 25 25 25 27 27 27 27 28 29 30 31 32 32 31 32 31 31 29 24 25 23 21 22 24 24 20 19 19 21 23 27 26 23 19 18
41 37 34 31 29 27 26 25 24 24 26 27 26 25 26 28 29 30 31 31 29 30 31 28 27 27 22 23 20 20 20 21 22 22 21 20 19 21 22 28 28 28 26 25
40 37 35 31 28 26 24 25 25 25 25 25 25 26 28 30 31 31 28 27 27 27 26 24 22 20 20 18 18 20 20 22 21 19 18 17 16 18 18 22 26 28 28 30
39 36 33 30 28 26 25 24 25 25 25 25 26 28 29 30 29 26 24 25 23 21 19 17 17 17 17 18 19 18 16 13 12 12 11 11 9 12 15 14 16 23 23 23
37 35 32 30 27 26 26 26 26 26 26 27 27 27 28 27 24 24 22 20 17 14 14 13 14 15 15 14 13 14 14 12 13 12 13 15 13 12 14 15 15 14 13 14
39 36 32 30 30 29 28 28 27 26 27 25 26 27 25 22 22 20 18 15 13 12 10 9 9 10 11 12 13 13 12 11 11 11 13 13 15 15 14 14 13 13 13 13
37 35 34 34 32 31 30 28 27 25 24 24 26 25 21 21 20 18 15 13 11 10 8 9 9 11 13 13 12 11 10 9 10 12 14 14 14 14 12 10 9 9 10 13
38 37 35 32 30 28 27 26 24 24 25 26 25 20 19 19 17 14 11 9 9 10 10 11 12 13 14 13 11 9 10 13 13 14 14 13 11 9 7 6 6 9 11 13
36 34 31 30 29 28 27 26 25 25 26 25 20 18 17 15 13 11 9 10 10 11 11 12 12 11 12 13 14 16 15 13 14 13 13 11 9 7 6 6 6 9 13 18

GFSNW_250_spd_102.txt.gz
Wind_Speed
104 105 108 107 107 113 110 105 103 101 96 92 85 77 70 63 61 57 53 53 51 49 47 43 44 43 44 44 43 41 40 46 46 48 55 59 62 67 72 75 76 78 80 81
88 93 94 93 94 94 91 89 87 80 75 72 68 62 59 55 54 52 50 45 46 45 43 38 41 40 40 39 37 36 40 43 42 43 44 47 50 56 61 66 70 72 78 78
73 83 82 81 81 80 78 75 71 65 64 61 58 54 51 50 49 48 44 40 43 41 40 37 39 39 37 37 38 39 39 36 36 39 42 45 48 51 53 54 57 61 64 68
69 72 71 71 70 72 72 70 66 63 56 55 51 49 45 47 45 43 40 38 39 36 33 34 34 34 34 36 37 36 34 34 34 36 38 41 44 47 49 53 57 58 63 63
60 60 60 60 62 63 62 61 59 56 51 48 45 44 45 43 41 39 36 34 35 32 31 31 30 32 34 34 34 32 30 32 34 35 37 40 43 45 47 50 54 55 59 64
52 52 52 52 54 51 52 52 52 50 46 43 42 43 41 39 38 35 30 33 31 30 27 30 32 34 33 33 32 31 31 33 35 36 38 40 42 46 49 52 55 55 58 60
41 43 45 47 46 45 46 46 43 44 41 40 40 39 38 36 33 32 29 33 30 30 26 31 31 33 33 33 34 34 34 35 37 38 39 40 46 51 52 52 52 55 57 60
36 39 41 43 42 43 43 43 42 38 37 37 37 36 35 34 32 31 30 31 28 30 30 32 32 34 33 33 34 34 35 37 39 43 47 48 47 48 50 50 50 51 51 49
34 37 39 40 40 40 41 39 36 36 36 34 34 34 35 32 29 29 30 31 33 32 33 30 31 32 33 36 38 38 38 41 46 49 49 47 47 47 46 45 45 41 40 39
34 36 38 38 38 39 38 37 36 33 33 32 33 32 28 28 31 30 30 32 33 35 38 35 33 35 37 39 41 43 44 47 47 46 45 43 41 41 39 37 37 37 37 36
34 36 38 38 38 39 39 36 33 32 30 30 29 29 30 31 33 34 33 35 35 35 37 38 37 36 38 40 42 44 45 45 44 39 37 37 36 37 37 36 35 35 34 32
36 38 38 38 39 40 35 33 32 31 31 31 31 29 29 30 32 32 32 34 37 35 35 36 36 38 41 43 43 43 43 40 35 32 32 34 33 32 31 32 31 30 29 27
36 38 40 41 39 36 36 34 33 32 32 31 29 29 29 29 31 31 32 34 37 38 38 39 40 43 41 42 41 37 36 34 31 28 29 30 29 28 28 28 27 25 23 22
41 42 41 40 40 38 36 35 34 33 31 30 30 29 30 31 31 30 31 32 35 39 40 40 40 39 38 39 37 33 31 29 30 26 28 26 27 25 24 24 22 21 22 21
41 41 42 42 39 36 34 34 33 32 31 31 31 30 29 29 29 30 30 31 32 33 34 35 36 35 35 33 29 28 29 29 28 26 26 26 25 23 21 21 20 21 22 25
41 44 43 38 36 35 35 34 33 32 30 30 31 29 28 27 27 29 29 28 30 32 33 32 32 31 28 27 25 26 27 29 28 26 27 25 24 22 20 20 20 23 25 27
45 42 40 39 38 37 37 36 34 32 29 27 27 27 26 26 27 28 29 30 30 31 30 29 27 27 26 25 24 25 27 28 29 27 27 24 23 22 20 20 22 23 24 26
43 41 40 38 36 35 34 33 31 29 27 27 26 26 26 26 26 27 29 29 29 28 28 27 27 27 27 26 25 25 28 30 31 28 25 24 21 22 20 21 23 25 27 26
43 41 39 37 36 34 33 32 30 29 28 26 26 28 27 27 27 27 27 27 27 27 26 27 27 29 29 28 27 28 30 30 30 28 24 23 22 22 22 23 24 26 27 27
42 40 38 35 33 32 31 30 28 28 25 26 27 26 25 25 24 24 25 26 26 25 24 28 29 29 28 29 27 27 28 27 28 25 22 20 21 21 22 25 24 27 28 26
42 41 38 35 32 31 29 27 26 26 26 24 23 23 22 22 24 25 24 24 24 24 27 29 28 28 26 25 23 24 23 24 23 21 19 18 18 20 21 22 22 25 28 27
41 38 35 33 29 27 26 26 26 25 23 21 21 20 21 22 24 24 23 25 25 27 25 25 23 22 20 19 19 19 19 18 17 15 13 13 13 15 18 18 18 19 28 30
38 36 34 31 30 29 28 27 24 21 20 20 20 20 21 24 25 24 23 24 25 23 20 18 16 15 15 15 14 14 14 15 17 17 17 17 17 18 19 17 18 17 15 18
39 37 35 32 31 29 26 23 22 21 20 20 20 22 25 26 25 23 23 22 20 16 13 13 13 13 14 15 16 16 16 16 16 18 18 19 21 20 20 19 15 14 13 12
39 37 35 34 30 28 25 22 21 20 19 20 23 25 26 25 21 20 19 17 14 11 10 12 12 12 13 12 13 13 14 15 16 17 16 16 16 15 13 14 12 9 8 7
39 37 35 31 29 26 25 23 21 21 23 25 26 24 23 20 18 17 15 12 10 10 10 11 11 10 10 11 11 12 14 14 15 15 15 15 14 13 12 12 11 7 5 8
38 36 32 31 29 27 25 24 25 26 26 25 24 22 18 17 17 13 11 9 8 8 9 10 9 9 10 12 14 15 16 16 15 16 16 17 17 16 13 9 6 6 8 12

GFSNW_250_spd_105.txt.gz
Wind_Speed
122 120 121 123 125 124 125 129 125 120 119 117 111 108 106 105 109 106 101 97 85 74 68 63 59 54 52 58 55 54 55 51 46 46 46 50 55 60 60 66 70 77 79 84
111 109 108 106 109 112 116 114 107 106 106 100 99 99 98 97 93 91 84 74 65 58 56 52 49 52 51 50 53 52 52 48 44 45 47 48 49 53 60 65 70 76 85 88
99 101 95 92 92 96 96 95 93 90 89 89 88 87 86 82 81 72 64 58 53 50 50 47 49 48 46 47 48 50 49 45 44 43 43 44 48 50 59 69 70 77 82 85
86 86 83 75 79 81 83 82 82 79 78 77 77 74 71 67 63 59 57 50 47 46 45 46 45 43 45 43 44 46 46 44 41 36 35 39 41 42 46 51 59 67 72 73
70 67 65 61 63 74 76 74 74 72 67 67 64 62 60 59 56 54 49 45 42 43 43 42 42 40 41 37 38 42 41 37 32 32 34 37 36 37 40 44 48 48 50 54
57 56 58 55 58 61 64 65 66 65 59 60 58 57 58 56 51 48 44 41 39 40 39 37 34 35 34 34 37 34 31 33 30 28 30 30 31 35 36 39 41 43 49 53
48 48 49 49 50 51 53 54 54 55 57 57 56 53 51 48 46 43 40 37 39 37 34 31 29 30 34 36 33 29 31 31 29 30 30 31 35 35 38 40 42 46 49 53
40 41 40 42 45 46 45 47 49 50 49 50 50 46 44 43 40 40 37 37 33 32 29 27 28 31 32 31 31 31 33 32 30 31 32 33 35 38 41 43 44 50 53 57
37 36 37 38 40 41 42 42 42 45 45 45 43 41 40 40 38 37 35 35 30 30 28 29 29 30 29 30 33 33 33 34 35 37 37 39 41 42 44 47 51 51 51 53
29 31 32 33 36 38 39 40 41 41 40 40 38 37 38 38 36 35 32 30 30 29 29 29 29 31 32 33 35 34 34 35 39 41 43 42 43 43 41 41 43 43 42 40
29 29 31 33 35 38 38 39 39 40 38 36 36 36 35 33 32 30 30 30 30 29 30 32 28 32 35 33 34 36 38 40 43 45 44 42 40 40 38 36 36 35 35 33
30 29 31 34 36 35 37 41 39 36 36 37 36 34 32 32 30 30 31 30 29 30 31 32 34 36 37 37 37 39 40 43 45 42 38 37 35 34 32 33 32 32 31 30
30 31 33 35 36 39 40 37 38 38 36 33 31 32 31 28 27 29 30 30 31 33 33 35 35 36 38 40 40 41 41 40 38 33 32 34 32 30 31 32 31 29 27 26
32 32 35 38 41 38 39 41 39 36 33 32 31 30 28 27 27 28 29 30 31 31 34 37 37 38 38 39 40 39 39 38 32 30 31 31 29 29 29 29 25 25 22 20
36 39 42 41 37 42 42 38 35 33 31 30 30 29 28 28 29 29 30 30 32 33 34 36 39 40 41 39 38 36 34 31 30 30 29 29 28 26 25 25 23 21 19 18
41 40 38 41 43 41 37 35 33 32 31 30 30 29 30 29 29 30 31 32 32 31 32 34 36 36 36 36 34 31 29 29 30 30 28 28 25 23 24 24 22 18 19 18
36 40 44 45 42 40 40 39 37 35 33 31 29 30 30 29 30 30 31 31 31 32 32 33 34 34 33 33 30 28 28 28 30 30 28 26 24 23 23 23 21 19 20 19
43 44 43 42 41 39 36 35 34 33 32 33 33 32 30 29 28 28 29 30 30 31 32 33 32 31 30 30 29 28 28 29 29 30 27 26 25 24 23 23 22 21 23 21
42 42 42 41 40 38 36 34 33 33 33 31 29 29 29 29 29 29 29 29 30 30 30 30 29 30 27 30 30 30 29 29 29 30 28 26 25 25 24 23 23 23 24 23
44 44 42 39 36 35 32 32 34 33 30 29 29 28 28 28 27 27 28 28 29 29 29 27 27 28 30 31 29 27 28 29 30 29 28 26 26 25 24 24 23 24 24 26
44 43 40 38 36 33 32 33 32 32 30 28 26 26 27 26 27 27 28 27 26 25 23 26 28 30 28 29 28 26 28 28 27 27 25 25 24 23 24 23 23 24 25 24
43 41 39 36 33 31 31 32 31 30 27 27 27 26 25 25 26 26 25 23 21 22 23 25 27 26 26 26 25 25 25 23 23 22 22 22 22 22 23 23 22 23 22 17
40 37 34 33 32 32 32 30 28 28 27 26 25 24 23 23 23 21 20 18 18 21 23 24 25 23 21 21 20 19 19 19 19 18 18 19 20 21 22 22 21 20 19 21
38 36 35 34 31 30 29 29 27 27 25 23 22 22 22 21 20 17 16 20 21 22 23 22 19 17 17 17 18 18 19 19 20 20 21 22 22 22 22 22 21 20 18 16
39 38 36 34 32 30 28 27 25 24 22 22 21 21 20 18 16 17 20 21 21 20 19 17 16 15 15 15 16 17 17 18 19 19 20 21 22 23 21 23 23 20 19 18
39 37 35 33 30 27 26 25 24 23 22 21 21 20 18 17 19 20 21 20 19 16 16 14 12 13 14 15 16 16 17 17 18 17 18 18 19 18 19 19 22 20 17 15
37 34 32 30 29 28 26 25 25 23 22 21 21 20 21 19 19 19 19 18 15 14 13 11 12 13 14 15 15 16 17 19 19 19 19 20 19 20 20 18 18 16 13 10

GFSNW_250_spd_108.txt.gz
Wind_Speed
125 125 128 133 131 130 135 142 140 134 133 135 133 131 133 131 130 128 127 126 123 118 109 106 102 99 86 80 79 74 65 63 63 60 55 51 48 45 48 44 48 54 59 66
117 118 118 124 128 122 125 128 127 127 127 127 122 125 125 122 120 118 114 111 106 102 98 92 89 78 74 67 62 62 59 59 58 54 52 46 43 46 45 48 47 56 60 71
102 103 104 111 114 108 106 109 110 108 106 107 105 106 106 109 105 102 96 96 95 92 82 75 70 69 60 55 56 57 58 55 54 51 45 42 42 43 43 45 47 51 56 69
92 91 92 96 98 99 96 92 93 89 90 93 97 98 93 90 88 89 89 85 83 77 69 63 58 54 48 51 53 55 53 51 51 46 43 36 38 39 37 38 44 49 57 63
74 76 78 83 84 85 82 77 83 82 82 83 83 84 80 81 82 80 77 71 67 60 58 53 51 49 48 48 51 49 47 47 46 40 37 33 33 32 31 35 39 44 49 58
62 64 66 69 69 66 63 64 67 74 75 75 76 72 74 75 72 65 62 58 54 48 47 48 49 46 45 45 47 44 41 43 38 31 29 29 24 27 30 31 33 33 41 41
54 55 56 56 56 57 57 58 62 64 65 65 65 67 68 64 60 55 53 48 44 42 47 46 45 43 41 41 40 40 38 35 25 24 27 20 23 29 26 29 29 32 36 38
47 47 47 46 50 49 49 49 49 49 49 54 59 60 59 58 53 47 46 39 41 46 44 42 38 36 38 39 37 33 29 24 23 23 20 21 24 30 31 32 34 38 40 44
40 39 39 40 41 41 42 41 43 43 45 47 49 52 52 51 48 43 43 40 40 41 40 36 34 34 35 31 26 25 24 22 22 24 25 24 31 33 35 34 39 43 45 48
34 33 34 35 35 36 35 37 38 40 42 43 44 44 45 42 40 41 41 39 39 38 34 34 34 32 27 26 25 24 22 24 26 28 29 32 35 38 40 41 45 49 50 52
32 32 32 32 32 33 33 35 37 37 36 38 38 39 38 37 38 40 38 37 35 33 32 34 30 28 25 27 27 28 27 28 31 33 35 38 39 40 43 46 47 47 46 43
29 28 30 31 31 31 32 33 33 34 35 35 35 36 38 39 38 37 35 33 33 31 33 32 30 29 30 30 30 31 32 33 36 38 39 41 39 39 42 44 43 39 37 36
27 28 28 29 30 31 31 33 35 35 36 37 37 38 37 35 34 32 30 29 33 34 34 32 30 29 31 32 29 33 36 37 37 39 38 39 36 37 39 39 36 34 31 31
27 27 27 29 30 32 34 35 35 37 38 38 37 34 34 31 29 28 29 32 33 34 33 30 30 30 32 31 33 34 35 37 39 37 37 36 32 34 35 32 31 30 31 30
28 28 29 31 34 34 33 35 38 38 37 35 34 33 29 28 28 29 30 31 32 31 29 30 30 32 32 34 35 36 39 40 39 38 33 30 32 31 30 30 29 28 27 26
31 30 32 33 33 35 36 37 36 34 33 31 29 28 28 29 29 28 27 28 28 28 29 31 31 32 35 36 37 39 41 38 35 33 30 31 29 29 30 29 28 26 22 21
34 35 34 36 38 39 39 40 38 36 33 30 29 29 29 29 27 26 26 27 28 29 30 30 32 33 33 35 36 36 36 34 31 29 30 28 29 29 28 29 26 23 21 18
33 33 38 41 42 42 40 36 34 33 31 30 30 29 28 28 28 27 28 28 29 29 30 31 32 33 34 35 33 33 31 31 30 30 30 31 30 29 27 28 25 24 22 21
35 39 42 41 40 38 36 35 32 29 28 28 28 28 27 26 26 27 26 26 27 28 29 31 31 32 32 35 31 33 32 32 31 31 33 32 30 29 28 28 26 26 23 22
43 42 40 39 37 37 35 32 29 28 26 26 28 27 27 27 27 26 26 26 27 28 30 30 31 31 31 32 32 31 32 33 34 34 34 33 30 30 29 27 26 26 23 23
40 41 41 39 38 35 32 29 27 27 28 28 28 27 28 27 26 25 26 27 29 30 28 30 29 29 31 31 35 34 34 35 35 34 35 35 31 29 30 28 26 27 26 24
43 42 40 38 34 31 29 27 26 27 27 27 27 26 25 24 24 26 26 27 28 27 26 28 29 31 33 35 35 36 34 35 35 35 35 34 30 29 29 27 27 27 26 25
39 38 35 32 30 28 27 28 30 31 29 26 25 24 24 25 24 25 25 26 25 25 26 29 30 32 33 33 32 31 31 31 32 32 31 31 29 27 26 27 27 26 24 21
40 38 36 33 32 32 33 32 27 23 23 23 23 25 25 23 24 24 23 23 23 25 29 27 28 28 26 24 24 23 24 24 25 26 26 26 26 25 26 26 25 22 21 22
40 38 36 35 33 29 26 25 26 24 24 25 24 23 23 23 23 23 23 22 23 23 24 25 25 23 20 19 19 19 20 22 22 23 24 25 25 25 25 25 25 24 24 21
38 38 35 30 27 26 26 26 24 22 22 22 22 23 22 22 23 22 19 20 21 22 23 23 21 19 18 17 17 17 19 20 21 22 23 24 25 25 24 24 23 23 23 23
39 35 31 31 31 29 26 23 22 22 23 23 23 22 22 22 21 18 19 21 22 22 21 19 17 18 17 16 17 18 19 19 20 21 21 22 23 23 22 22 22 22 24 22

GFSNW_250_spd_111.txt.gz
Wind_Speed
126 125 124 127 129 132 132 131 131 127 132 135 133 134 129 128 123 124 121 122 118 117 117 115 116 114 114 111 106 101 93 79 81 75 72 69 58 53 50 52 48 44 42 41
119 120 122 122 123 123 127 125 128 126 129 131 131 129 128 127 121 122 125 125 116 115 114 110 108 107 102 95 89 86 77 77 74 67 64 58 53 48 47 45 45 40 43 37
111 110 110 110 110 112 117 119 118 116 115 116 116 115 113 119 119 121 119 116 113 107 106 103 94 90 86 77 76 74 70 68 65 59 54 53 48 47 44 42 41 42 39 36
101 102 102 104 104 106 109 111 102 99 98 102 105 107 106 107 105 106 102 99 100 96 93 90 80 77 72 70 67 68 61 57 55 54 50 46 46 44 41 39 38 38 39 30
89 89 89 92 94 98 100 98 91 88 91 92 94 94 93 89 90 95 92 91 88 85 83 79 73 68 63 60 61 58 54 50 51 48 44 45 40 40 36 36 32 31 32 28
75 76 79 78 78 81 82 84 82 83 82 79 80 78 81 81 85 84 78 77 74 70 72 65 63 62 55 52 54 49 47 46 46 42 41 40 33 29 31 30 27 28 27 21
64 65 65 64 66 68 69 69 68 67 67 64 66 66 69 72 78 76 71 66 63 57 55 55 53 54 48 46 44 43 42 42 40 40 40 32 26 30 27 22 22 22 22 23
55 55 54 54 56 57 55 55 56 54 56 58 59 59 62 65 67 61 60 59 57 53 48 48 48 47 42 39 39 39 38 37 38 36 33 23 23 26 21 18 23 25 22 26
45 45 45 46 46 46 46 47 48 50 50 49 51 50 50 49 49 53 49 47 46 42 45 44 41 39 38 35 35 34 35 34 32 27 24 20 23 21 16 21 29 28 33 34
37 37 37 37 38 40 40 41 41 41 42 42 43 42 43 43 42 41 41 49 42 39 40 40 38 36 33 33 33 33 30 27 24 22 19 20 21 22 20 24 30 35 40 42
33 33 33 34 35 35 36 37 38 38 38 38 38 38 38 38 33 37 44 41 40 41 40 36 32 31 31 32 31 28 25 22 20 19 19 23 22 24 28 33 36 40 44 48
30 30 31 31 31 31 32 33 33 32 32 33 34 34 34 34 36 39 39 38 37 37 34 30 30 31 31 29 26 24 23 21 21 22 24 25 27 30 34 38 41 44 46 46
27 28 28 29 29 28 27 27 27 30 32 33 31 31 33 35 37 38 36 34 34 33 31 31 31 30 29 28 26 22 22 24 27 29 26 28 31 33 37 40 41 43 40 37
26 26 27 27 26 26 26 28 29 29 29 31 32 34 34 34 33 34 34 32 31 31 31 31 29 29 29 28 25 27 29 29 29 29 31 34 36 36 35 37 38 37 34 30
26 26 25 25 26 27 28 28 28 29 30 31 31 32 33 34 32 31 30 30 30 30 29 28 29 30 30 29 28 31 31 29 31 33 34 34 35 35 33 34 34 32 29 28
26 25 26 27 27 25 25 27 30 31 31 29 31 31 31 30 29 29 28 29 29 28 28 31 31 30 30 30 32 32 34 34 34 35 36 36 35 31 31 33 31 29 28 26
28 27 26 27 29 30 31 32 33 33 33 34 32 30 29 29 28 28 28 28 28 27 28 29 30 30 29 30 33 33 33 35 36 38 35 32 31 30 31 30 30 28 26 25
28 29 30 31 32 33 34 35 35 34 33 32 31 29 27 27 26 26 27 27 27 28 27 28 28 29 30 31 32 33 34 36 36 36 32 30 29 30 31 29 30 29 25 24
29 29 31 33 35 35 35 33 32 31 30 29 29 29 29 27 26 26 26 25 25 25 26 26 26 28 30 31 31 32 34 35 34 33 30 31 31 31 32 29 30 29 26 25
27 30 32 31 33 33 33 33 32 30 27 26 25 24 26 27 26 24 23 23 24 24 24 24 27 28 31 31 32 32 33 32 32 33 33 33 33 32 32 32 30 30 29 25
34 33 32 32 33 34 33 31 29 26 25 24 24 24 23 22 22 22 20 20 21 22 25 27 29 30 30 31 30 31 33 34 35 35 35 34 34 34 34 34 32 31 30 28
35 36 37 37 36 33 30 28 26 25 25 24 23 22 21 19 19 20 20 22 24 25 27 28 28 29 30 31 34 36 35 34 35 36 36 37 36 37 37 36 33 32 31 30
34 36 35 34 32 30 29 28 27 25 23 21 20 20 19 18 18 20 22 24 24 24 25 25 26 29 32 33 32 33 35 35 35 36 36 37 36 38 38 36 35 32 31 30
36 36 35 33 32 32 31 27 24 22 21 20 19 18 18 19 21 22 22 22 23 23 24 25 28 30 31 31 33 34 35 35 34 35 35 36 37 39 36 34 34 30 29 28
39 38 36 35 33 29 26 25 24 21 19 18 18 18 21 22 22 21 21 22 22 21 25 27 29 30 31 30 27 25 25 25 25 26 28 30 31 32 31 30 31 28 27 26
39 39 37 34 31 27 25 22 19 17 18 18 20 21 21 20 21 20 20 21 21 23 27 27 27 27 25 23 21 19 19 19 20 21 22 24 25 26 26 27 28 27 27 28
39 37 34 30 25 24 22 20 20 19 20 20 19 19 20 19 19 19 20 21 22 25 26 23 23 23 21 19 18 17 17 17 17 18 19 21 22 23 24 25 27 27 27 27

GFSNW_250_spd_114.txt.gz
Wind_Speed
144 143 142 141 140 140 138 138 135 132 134 137 136 132 128 125 123 125 125 125 123 121 121 120 117 116 112 110 111 108 105 102 97 97 95 89 81 75 73 71 65 56 52 45
135 135 135 134 136 134 136 134 132 131 134 136 134 130 125 122 122 123 125 124 122 123 120 117 115 113 113 113 111 106 100 91 92 88 83 77 70 68 64 62 54 45 48 42
123 125 125 127 127 125 128 128 129 125 127 127 129 128 126 123 120 119 117 117 117 115 113 112 108 105 103 96 93 95 92 84 77 74 75 68 64 60 56 55 42 44 44 41
111 111 113 116 117 116 118 117 118 117 117 115 118 119 115 114 111 111 112 112 111 109 108 101 96 93 89 85 81 80 77 76 70 63 67 64 58 53 51 43 41 42 43 39
98 100 101 104 105 107 108 109 110 109 105 105 105 106 103 103 100 101 100 100 99 103 92 92 87 84 79 77 75 73 69 66 64 61 59 55 50 46 43 43 42 40 41 37
84 87 90 92 95 95 93 95 101 99 95 95 97 95 93 94 94 91 89 91 93 94 82 75 75 73 71 68 69 66 63 59 58 52 52 47 38 42 44 43 40 36 33 33
74 76 78 80 81 80 82 84 86 86 84 82 82 83 84 80 80 83 79 81 81 79 72 70 66 62 59 57 55 56 53 51 49 45 44 38 37 42 42 37 35 33 30 29
65 66 67 68 67 68 68 70 70 71 68 69 71 72 67 64 66 69 74 74 72 69 68 62 60 54 53 50 49 46 45 43 41 38 37 34 35 38 39 34 30 31 28 28
54 56 56 57 58 58 60 60 59 55 55 57 62 56 55 56 56 60 60 61 58 57 57 54 53 51 52 46 44 39 37 36 35 35 33 33 37 36 32 29 31 24 27 28
45 46 47 49 50 50 49 50 48 48 50 54 53 50 45 46 45 49 48 47 49 48 50 48 46 44 41 37 36 36 34 34 34 32 30 31 35 31 28 29 25 22 23 24
39 39 40 40 41 41 43 43 43 45 48 45 43 42 39 38 38 38 38 39 40 44 46 43 38 34 32 32 33 33 32 30 30 28 27 32 32 28 25 24 25 24 25 28
36 36 37 37 36 37 37 37 39 38 37 41 39 37 35 35 33 35 37 41 39 39 37 34 32 30 31 33 32 29 29 28 25 28 30 29 28 27 24 24 24 27 31 36
32 32 32 32 32 32 33 34 34 32 30 29 31 31 32 32 35 35 36 37 36 36 35 32 30 30 32 30 31 28 27 27 28 30 29 26 25 24 25 26 27 31 36 39
29 29 28 28 29 28 28 28 27 28 32 31 30 29 30 32 34 34 34 33 32 31 30 28 29 30 30 30 27 27 28 28 28 27 27 26 26 27 27 28 31 35 36 37
27 26 25 25 25 26 27 28 29 27 27 28 29 31 31 30 30 28 29 31 32 31 31 30 31 32 31 30 30 30 28 27 26 24 26 28 29 28 27 29 31 34 35 32
26 25 25 26 28 27 26 27 27 28 28 28 29 28 28 28 28 30 32 33 32 31 32 31 31 32 31 31 31 29 29 29 28 30 31 30 29 28 31 33 33 31 32 28
27 27 27 26 25 26 28 30 28 27 28 28 28 28 29 31 32 31 30 29 29 29 29 29 30 31 32 33 31 31 31 30 31 32 32 31 31 33 34 32 29 31 31 27
27 26 25 26 28 29 30 32 33 31 30 30 31 31 31 29 29 29 29 29 29 28 28 28 29 31 31 30 29 30 31 30 32 33 33 33 35 35 32 30 30 32 30 27
25 25 27 30 31 31 31 32 32 32 32 32 33 33 33 32 31 29 28 27 27 26 25 25 26 29 29 29 29 30 30 31 32 33 34 34 33 31 31 32 32 32 31 28
24 27 29 31 31 32 32 32 32 33 33 33 32 32 30 29 28 27 25 24 23 23 25 26 27 28 27 27 29 30 31 33 34 32 32 33 33 33 33 34 34 32 33 30
28 30 31 32 32 33 35 35 34 32 31 30 28 26 25 26 25 24 22 22 22 23 23 24 25 25 26 28 30 32 33 33 32 33 33 34 35 37 36 35 34 33 33 33
30 32 34 35 36 37 36 34 32 30 29 27 26 25 23 22 21 20 19 19 19 19 21 22 22 25 25 27 28 29 31 33 35 36 36 35 36 37 36 34 35 36 35 35
34 36 37 36 37 36 34 32 30 27 25 23 22 22 22 21 20 19 18 17 18 20 20 20 22 24 27 29 30 31 32 33 34 33 33 34 36 37 37 38 38 38 38 38
39 39 39 38 36 34 31 28 25 22 21 21 20 20 19 17 16 16 16 18 17 17 18 20 22 25 28 29 30 30 31 32 33 33 33 34 35 36 39 41 40 40 40 39
39 37 36 34 32 29 28 25 22 21 20 19 18 18 17 16 16 16 15 15 16 18 19 20 22 25 27 28 29 29 31 32 32 32 32 32 32 34 37 39 40 39 39 39
38 37 35 31 30 29 26 23 22 21 20 19 18 17 17 16 15 15 15 15 16 17 19 22 24 26 28 29 30 29 27 25 25 25 25 25 26 27 30 32 33 34 35 34
31 32 33 31 29 26 23 22 21 20 20 19 18 17 16 14 14 15 15 15 16 19 20 23 25 27 27 25 24 22 20 19 19 20 20 20 21 22 23 25 27 29 30 30

GFSNW_250_spd_117.txt.gz
Wind_Speed
148 149 148 145 141 142 139 138 135 132 135 138 137 130 125 122 120 120 121 120 119 119 120 119 118 116 116 115 113 111 110 114 112 111 111 107 109 107 107 106 97 87 84 72
135 138 145 148 146 145 141 140 138 138 139 140 136 133 132 128 124 124 125 125 124 124 123 123 120 119 117 115 113 110 108 111 107 100 98 97 93 91 92 89 82 73 71 63
119 130 132 135 139 142 144 141 138 139 140 137 137 134 133 131 128 127 127 126 126 124 121 120 116 114 113 112 108 106 105 103 97 94 90 85 82 80 84 78 67 65 60 54
106 111 118 123 126 130 134 135 131 133 134 132 134 136 133 128 125 123 124 120 118 118 119 116 111 107 107 106 103 97 96 94 88 86 82 79 73 72 74 69 59 57 52 46
94 100 103 109 114 116 120 120 120 122 125 126 126 128 123 123 120 118 116 114 114 111 108 103 103 101 97 94 87 84 79 80 79 75 74 73 70 67 65 62 55 49 45 44
86 89 93 97 101 104 102 105 107 108 112 117 114 112 116 115 116 112 106 104 105 100 96 98 93 95 92 80 77 76 75 75 74 69 68 67 61 58 57 52 48 43 41 44
78 79 82 86 87 88 89 92 96 97 96 97 98 100 102 104 106 100 99 97 94 91 93 90 94 93 80 76 71 71 68 68 69 65 62 56 49 48 48 47 42 40 39 43
64 68 71 73 74 76 79 83 86 86 85 83 84 85 86 90 90 86 84 83 82 83 84 85 88 86 75 63 61 64 61 60 55 50 49 43 39 42 44 42 36 37 42 40
56 59 61 63 65 66 69 72 73 74 73 72 74 76 77 76 74 74 72 74 72 74 75 75 76 73 66 61 61 61 58 51 45 43 40 34 40 41 39 35 34 40 37 35
49 50 52 55 57 58 59 62 63 63 61 63 63 63 64 63 60 62 65 64 65 68 69 66 62 60 60 56 54 52 49 45 41 38 34 33 38 37 34 34 39 33 32 31
41 44 45 46 48 49 52 55 54 53 52 54 53 56 55 50 54 54 54 52 54 55 56 54 53 51 51 48 47 41 40 36 36 33 30 35 39 32 32 34 33 27 28 30
36 38 39 40 41 43 45 45 45 45 47 50 49 47 48 46 44 44 43 44 47 47 44 43 43 42 41 39 35 34 32 34 33 30 34 34 31 29 32 30 28 29 30 31
33 34 34 36 37 38 39 39 39 41 43 40 39 38 36 36 37 36 37 41 39 40 39 37 35 30 33 33 33 31 30 31 30 30 32 31 30 31 29 29 30 31 28 29
29 31 32 32 32 32 32 34 34 33 32 32 29 28 31 34 33 33 36 35 34 31 30 29 29 31 32 32 30 29 28 29 30 31 30 29 31 30 28 28 26 27 29 31
28 27 28 29 30 29 29 29 29 30 28 28 33 34 31 30 29 30 30 30 29 29 29 31 32 33 32 30 29 29 30 28 28 28 30 32 31 30 29 26 27 30 30 29
26 28 28 28 27 28 28 29 30 31 33 31 28 28 29 28 28 26 24 23 26 30 31 31 32 32 31 31 31 29 29 30 29 30 31 31 31 29 27 28 31 30 29 31
28 28 28 29 29 30 32 31 30 29 29 30 30 29 29 25 21 23 26 29 31 31 31 32 32 32 33 30 28 28 28 29 30 31 31 29 28 29 30 30 30 30 32 30
26 26 27 28 28 28 28 29 31 31 31 30 28 26 24 26 28 30 31 31 29 29 29 29 30 31 29 27 26 28 29 30 30 29 29 31 31 31 32 32 33 32 31 29
25 26 27 28 28 28 29 29 31 31 31 30 30 31 32 31 29 28 27 27 26 27 28 30 29 28 27 27 28 28 29 30 31 32 32 33 33 34 35 34 34 32 29 30
25 26 28 30 29 29 31 32 33 33 32 32 31 31 30 29 29 28 27 27 27 27 27 26 25 24 24 26 27 28 28 30 31 32 34 35 34 35 36 36 34 32 31 31
28 28 29 29 30 32 33 33 32 32 31 30 29 27 27 27 27 27 26 24 24 24 23 22 21 22 24 24 26 28 30 32 34 36 36 37 37 36 36 36 35 35 34 33
28 29 32 35 36 35 34 33 33 32 31 30 28 27 26 26 25 23 22 22 21 20 21 20 21 23 24 27 29 31 33 34 34 35 35 36 37 37 38 38 38 37 37 36
29 31 34 35 36 35 34 33 33 31 29 26 24 25 23 23 22 20 18 18 18 18 18 21 22 23 25 26 27 29 31 33 34 34 36 37 38 38 38 38 38 38 37 37
37 38 37 36 35 34 33 31 28 26 25 25 24 23 21 20 19 19 18 19 18 18 19 19 20 22 24 26 28 29 31 32 33 33 34 36 37 38 38 39 40 40 40 39
37 36 35 35 35 34 32 30 28 27 25 24 22 22 21 20 20 19 18 17 16 15 16 18 20 23 24 25 26 28 29 29 29 31 32 34 35 37 39 40 41 42 42 41
33 33 35 36 33 32 30 28 25 24 23 22 22 21 20 19 18 16 15 14 14 15 16 18 20 22 24 25 26 27 28 28 28 29 30 30 30 31 32 34 36 38 40 40
31 33 34 32 31 29 27 26 25 24 23 21 21 21 19 17 16 14 14 14 13 14 16 18 21 23 24 25 27 28 28 28 25 25 24 24 25 26 27 27 29 31 32 35

GFSNW_250_spd_120.txt.gz
Wind_Speed
147 152 152 153 151 148 143 142 140 137 139 142 141 137 123 124 121 122 119 116 114 113 113 114 114 110 109 108 108 109 111 113 111 112 112 112 114 112 109 107 103 101 98 84
130 134 141 150 153 153 150 147 144 143 147 147 143 138 133 131 128 127 124 121 118 117 117 119 118 117 113 115 114 112 113 116 116 114 114 112 108 104 102 97 95 89 90 81
115 116 120 133 141 148 152 155 152 151 150 149 145 144 138 134 130 129 126 123 123 122 122 122 118 116 118 118 118 117 117 119 116 110 107 103 95 91 88 86 82 79 80 75
97 104 105 111 123 132 143 149 150 149 148 145 142 142 136 132 129 127 128 126 124 124 123 122 120 119 119 120 118 114 112 110 107 101 95 91 84 80 78 73 72 71 68 73
86 91 94 101 111 117 123 128 132 137 139 139 138 135 129 126 123 125 124 124 123 124 124 119 116 116 113 109 107 105 104 103 98 90 84 81 76 70 67 68 67 68 68 65
80 81 86 90 98 105 108 110 111 118 125 129 131 129 128 127 126 120 116 116 118 114 112 113 110 109 104 101 101 99 98 96 90 80 77 77 72 67 71 70 67 66 64 61
60 64 71 81 87 89 93 96 100 103 103 107 115 118 123 124 121 116 117 115 112 111 112 107 104 100 99 97 94 95 92 88 82 74 72 75 69 64 67 63 61 59 58 56
57 61 69 77 81 85 86 88 89 88 88 91 93 98 103 110 107 103 105 108 108 106 103 97 96 94 93 91 93 90 86 78 70 71 67 65 58 60 60 55 51 49 49 48
59 63 66 70 72 75 77 77 77 78 79 78 85 86 87 91 95 95 91 96 90 88 88 89 83 81 81 85 84 85 73 64 63 63 63 55 51 56 52 46 39 48 44 40
50 50 52 56 57 60 64 68 69 67 66 70 72 73 78 82 81 81 80 80 78 76 74 72 70 74 77 74 77 70 66 59 57 52 47 44 50 51 46 39 44 39 35 36
44 44 46 48 51 53 55 59 59 58 58 64 65 66 67 68 66 66 70 68 66 64 63 62 64 67 64 64 64 62 58 54 49 45 41 44 49 43 42 40 36 34 35 34
37 38 39 41 43 45 47 48 50 51 52 54 54 55 55 57 56 58 60 58 57 55 54 55 58 59 55 52 50 49 45 42 42 38 40 42 40 37 35 32 31 31 30 30
33 34 35 37 39 40 42 42 43 44 47 47 47 49 48 49 49 49 49 47 46 47 47 48 48 47 45 40 38 38 36 35 35 35 37 36 35 31 31 29 29 28 28 27
29 30 32 33 35 37 37 38 38 40 41 42 42 42 43 40 40 41 40 40 39 42 41 40 37 34 34 34 34 32 32 31 34 33 32 30 28 26 26 27 26 25 25 26
27 28 29 30 31 32 32 33 35 34 35 36 34 33 31 32 35 35 35 36 37 34 31 31 32 31 30 29 29 29 30 29 28 27 27 29 28 27 26 25 25 25 27 28
26 27 28 28 28 28 28 28 28 30 30 29 30 32 33 33 32 30 29 28 27 24 26 27 26 27 29 29 30 27 27 28 28 27 28 26 26 25 25 25 26 27 28 28
26 27 27 28 28 29 29 30 29 29 29 31 31 29 29 29 30 29 25 22 20 24 24 28 28 28 29 28 27 26 28 29 28 27 26 25 25 27 28 29 30 30 28 29
25 25 26 27 27 27 27 27 28 28 28 27 26 25 24 22 21 20 20 23 25 27 26 26 27 28 25 23 23 25 25 25 25 25 26 27 28 29 30 30 30 29 28 30
23 24 24 23 24 25 27 27 27 27 28 27 25 24 24 25 24 25 26 25 24 23 25 26 25 23 23 22 23 24 25 26 26 26 27 28 30 31 32 31 30 30 32 34
22 22 22 23 24 25 26 26 27 27 25 24 23 28 29 29 26 24 23 22 22 23 24 23 22 22 22 23 24 25 25 25 27 28 30 30 31 32 31 31 33 34 34 35
22 23 24 24 24 25 26 25 24 27 30 30 29 27 24 23 22 22 22 22 21 20 19 19 20 21 21 21 22 23 24 26 27 28 30 31 32 34 35 35 36 36 37 37
26 26 25 24 25 27 29 30 31 31 31 30 29 29 28 26 24 22 22 21 20 19 19 19 20 21 23 24 25 26 27 28 29 31 32 33 34 36 37 39 39 39 39 39
26 29 30 31 31 32 33 33 33 32 31 30 28 27 25 24 22 20 18 17 17 17 18 20 21 21 23 23 24 25 27 29 31 33 34 36 36 38 39 39 40 40 41 41
30 31 32 32 31 31 31 31 30 29 29 28 26 23 22 20 18 17 18 17 16 17 17 18 18 19 20 22 23 25 28 30 32 33 34 35 36 38 39 40 41 42 43 42
31 29 30 32 33 34 34 33 31 29 28 25 23 22 21 20 20 18 18 16 16 16 16 17 18 20 22 25 27 28 29 31 32 33 33 33 36 38 39 40 40 41 42 43
30 31 33 33 33 32 31 30 29 27 26 25 24 22 21 19 17 16 15 15 15 16 16 18 20 21 22 24 25 27 28 30 31 30 31 33 36 39 40 41 43 44 44 45
28 31 31 31 30 29 27 25 24 22 21 21 22 21 19 17 16 16 16 16 16 16 17 19 19 20 21 24 25 27 28 29 30 29 30 31 31 32 33 34 35 37 38 40

GFSNW_250_spd_123.txt.gz
Wind_Speed
116 123 129 137 149 153 157 155 150 143 142 143 140 133 122 123 125 128 125 124 123 123 123 122 121 121 120 116 114 109 109 107 106 105 104 107 108 109 109 110 112 113 113 100
104 109 117 123 127 137 146 152 153 149 150 150 143 134 128 125 121 124 125 124 124 122 123 123 119 117 116 115 114 113 112 112 110 109 108 109 109 109 110 112 115 108 106 90
95 100 106 113 121 118 127 127 143 150 154 148 145 140 135 131 128 128 126 123 122 121 120 120 118 117 118 119 118 118 118 116 115 112 112 112 111 108 109 110 102 95 87 85
88 91 96 107 109 112 112 116 122 134 142 146 145 143 137 136 132 132 132 129 126 126 125 125 123 123 124 125 124 122 120 119 117 112 113 111 108 107 102 95 88 90 77 77
79 85 94 102 102 105 106 100 103 114 125 133 138 140 134 136 134 135 134 132 132 132 130 130 130 130 129 126 123 121 118 115 112 108 109 109 104 94 85 85 83 79 77 67
77 80 87 91 91 95 90 88 91 98 106 117 123 124 128 134 137 130 131 134 135 134 132 135 132 130 126 122 119 115 113 112 110 103 102 101 94 83 79 77 76 75 73 68
70 74 78 78 77 79 78 79 82 90 96 104 105 111 118 126 127 129 129 127 126 127 129 129 125 123 120 115 109 106 104 101 100 95 96 94 82 76 75 77 74 74 67 62
59 62 66 65 68 71 73 72 78 91 93 91 96 101 105 109 112 114 115 118 120 120 118 113 106 104 99 98 94 91 94 98 98 98 94 86 67 73 75 75 69 66 64 59
49 51 54 54 55 57 59 67 78 86 82 78 86 90 91 94 96 101 105 111 110 106 100 102 97 88 95 91 93 95 98 98 97 90 86 72 61 64 70 71 56 66 57 51
40 44 49 52 54 59 64 69 77 79 72 69 71 76 84 87 87 89 92 96 96 94 94 95 95 89 89 86 88 89 89 87 86 83 70 57 54 60 62 58 53 52 49 46
41 45 47 49 52 55 57 62 65 63 58 60 66 70 73 76 78 80 81 82 82 85 83 82 80 77 79 76 77 76 75 73 72 71 62 52 53 50 50 46 47 44 43 41
37 40 41 40 40 39 41 47 51 51 49 52 59 62 64 67 67 70 70 71 73 72 69 69 68 67 67 67 64 65 62 61 60 55 49 45 46 47 43 41 40 37 37 37
32 34 35 35 38 40 43 41 42 44 47 50 49 56 56 55 58 57 58 60 61 61 58 57 56 54 57 56 55 54 53 51 48 43 42 42 41 39 36 34 35 34 34 32
27 29 31 33 35 36 35 37 39 42 42 42 47 47 50 49 48 49 51 50 49 48 47 45 46 47 48 47 44 41 39 41 40 36 36 33 32 33 32 31 30 29 29 29
24 26 27 29 29 30 31 32 33 35 38 39 39 40 41 42 43 43 41 39 40 39 39 40 39 39 36 33 31 33 34 31 31 31 29 29 29 30 28 28 28 29 29 28
24 23 23 23 25 27 29 30 32 32 30 32 36 37 37 36 35 34 34 35 34 35 35 33 30 28 30 31 32 28 26 27 29 27 27 26 25 25 26 26 26 26 24 22
23 24 26 28 30 32 32 29 26 26 28 28 28 28 28 29 29 30 30 27 28 26 23 25 27 27 26 27 24 25 25 26 25 24 24 24 25 25 26 25 24 21 20 22
23 24 25 25 26 26 27 27 28 27 26 26 27 27 27 27 26 24 22 23 22 24 25 24 24 25 24 24 23 22 24 23 23 24 25 25 24 24 23 22 22 22 23 25
22 23 24 24 25 26 25 26 27 27 25 25 23 22 21 20 19 21 23 25 25 25 24 23 22 23 22 21 23 24 23 22 22 23 23 23 23 22 22 22 22 24 26 29
22 22 21 22 23 24 24 25 25 25 24 24 25 25 24 25 26 26 25 25 23 22 23 21 21 20 21 23 23 21 20 21 22 22 21 22 22 23 24 26 28 29 31 32
23 22 22 22 22 22 21 23 24 26 26 25 26 26 25 26 24 24 23 23 23 23 21 20 20 21 20 19 19 19 19 20 20 20 22 23 25 26 28 29 31 32 33 33
24 25 25 24 23 23 23 23 23 25 27 28 27 26 26 26 25 25 25 24 22 21 20 19 18 18 17 17 17 18 19 20 21 22 23 26 28 29 30 31 33 35 36 37
23 24 26 27 26 26 26 26 26 26 26 26 27 28 28 28 27 26 23 21 20 18 16 15 15 15 14 15 16 17 19 21 23 25 27 29 30 32 34 35 36 37 38 39
23 24 25 25 25 24 24 25 26 27 28 28 27 26 26 24 23 23 21 18 16 14 13 13 14 14 14 15 17 19 21 23 25 27 29 31 32 33 33 34 36 39 40 41
20 21 24 26 27 27 29 31 33 33 32 30 29 28 26 24 21 19 17 15 14 13 12 12 13 14 15 17 19 21 23 25 26 28 30 30 30 30 33 36 39 40 41 42
24 24 25 28 30 31 32 33 33 33 32 30 28 25 22 19 17 15 15 13 12 12 12 13 14 15 17 18 20 22 24 25 27 29 31 32 32 33 36 38 40 41 42 43
26 26 26 28 30 30 30 30 28 26 25 24 22 21 19 18 16 14 13 13 12 12 13 14 16 17 18 20 21 22 24 26 29 30 31 31 32 33 35 37 39 41 42 43

GFSNW_250_spd_126.txt.gz
Wind_Speed
103 106 108 115 125 133 145 152 154 157 152 151 150 147 134 137 133 134 131 127 129 126 125 123 120 117 116 114 113 114 117 115 113 114 115 116 115 114 114 112 110 106 108 104
91 97 101 102 108 117 129 133 141 142 140 146 148 140 143 140 137 135 134 128 125 121 121 122 119 118 118 117 114 113 116 116 117 117 117 116 116 114 112 110 110 108 114 109
82 90 91 93 99 104 111 121 129 130 125 124 134 144 148 146 143 139 134 130 129 127 120 122 122 120 119 119 119 118 118 118 116 112 113 113 111 111 111 112 112 115 115 114
73 81 87 87 91 98 103 109 117 116 113 109 115 128 136 144 145 140 139 135 132 131 128 124 123 122 123 123 119 117 117 114 115 111 111 114 115 116 115 115 116 118 108 107
67 72 78 81 87 91 97 99 101 104 104 105 102 110 117 129 140 142 143 140 136 135 132 129 128 129 128 127 124 121 120 116 118 115 117 119 121 119 118 120 119 115 106 93
64 68 70 75 81 87 91 92 92 93 92 93 97 98 104 110 122 134 140 140 139 137 132 133 131 130 130 127 124 121 121 122 123 121 122 125 126 118 121 119 111 107 100 91
59 62 66 73 77 81 84 85 88 86 81 76 75 90 98 103 110 112 120 128 135 137 138 135 134 133 131 129 127 127 127 128 131 127 127 130 124 120 117 112 104 96 89 81
52 55 62 70 73 73 72 80 82 79 71 64 62 72 88 96 98 101 104 108 114 120 128 133 132 128 123 124 127 127 129 130 131 130 123 119 117 108 100 95 85 83 83 78
49 50 56 60 65 69 71 73 73 64 61 59 54 60 67 78 86 90 90 94 101 108 110 111 114 117 116 116 113 113 117 120 121 114 111 103 95 93 86 86 65 75 79 77
42 45 51 55 56 56 59 59 58 54 55 56 58 62 63 75 81 82 84 88 92 94 96 99 102 101 103 101 103 108 110 108 104 102 98 90 85 78 75 70 68 64 69 70
42 40 38 40 44 44 46 48 50 51 54 57 62 65 64 72 76 77 80 80 79 81 82 83 85 86 87 85 87 91 90 93 88 85 79 72 74 71 71 69 59 59 61 59
34 32 34 40 44 45 47 49 51 53 57 61 62 58 59 64 66 69 71 72 73 72 73 73 74 73 73 72 69 73 70 74 73 71 69 69 66 66 64 58 56 53 47 47
30 33 37 37 37 39 43 44 46 49 52 50 49 55 55 56 61 60 62 63 64 65 66 66 66 63 63 64 63 63 63 63 62 63 59 61 61 60 56 55 52 45 43 42
27 29 32 32 34 36 35 35 36 40 40 43 47 44 44 50 50 55 56 57 57 56 55 58 53 56 56 56 57 57 54 56 53 51 55 53 51 51 51 51 46 42 40 34
25 26 27 27 29 32 34 36 36 35 35 38 39 38 40 41 45 48 49 50 48 47 48 47 46 47 50 51 50 48 44 44 42 46 45 43 41 40 41 38 37 34 29 28
23 24 25 26 27 30 30 32 32 31 32 33 35 36 36 37 38 39 42 42 41 42 42 40 43 44 42 40 38 37 36 41 41 40 37 34 33 32 32 30 28 24 26 27
26 28 30 30 30 27 27 27 27 28 27 28 30 31 33 33 33 33 33 36 36 35 35 37 35 32 31 34 37 36 35 34 33 32 31 27 27 27 26 24 24 26 25 26
20 20 20 20 22 26 28 27 27 27 27 26 26 26 26 28 29 31 31 29 29 31 29 31 31 32 33 32 29 30 29 28 28 28 24 23 23 23 23 24 25 26 26 25
21 21 21 22 22 23 25 26 27 28 28 27 27 27 25 26 27 26 25 27 28 28 31 30 28 27 26 25 26 25 24 25 24 22 22 22 21 21 23 25 26 26 26 26
20 20 20 20 22 22 22 23 23 23 25 25 25 24 23 24 25 26 25 26 26 26 25 24 23 22 22 22 22 21 21 21 20 21 21 21 23 24 25 25 25 25 26 27
22 22 22 21 21 22 22 22 23 23 25 26 26 26 25 25 24 24 24 24 22 21 20 20 21 21 21 21 21 20 19 19 19 20 21 22 23 23 23 24 26 27 28 28
23 24 24 23 22 23 24 25 26 25 24 25 25 25 24 25 24 23 22 22 22 22 21 21 21 21 21 19 19 19 20 20 21 21 21 22 23 24 25 26 27 28 30 31
23 23 23 25 26 26 23 22 24 23 23 23 23 24 23 25 24 24 24 24 24 23 24 23 22 20 19 18 18 18 19 19 20 21 23 24 26 27 28 29 31 32 34 35
23 23 23 22 21 22 24 25 26 26 26 26 26 26 28 27 28 27 27 26 24 24 22 20 18 18 17 17 17 18 19 20 21 22 23 25 26 27 29 31 32 34 35 37
20 21 22 24 24 25 26 25 26 28 27 29 30 29 28 27 26 25 24 23 21 20 19 17 16 15 15 15 15 15 15 16 18 20 21 23 25 26 28 30 32 34 36 38
19 21 23 24 24 26 27 28 29 30 31 30 30 29 28 26 24 23 22 20 18 16 14 13 12 12 12 12 13 14 15 17 19 21 23 25 26 28 30 32 34 36 38 39
21 22 24 26 25 26 27 28 29 29 28 28 27 27 26 24 22 19 17 15 15 13 12 11 10 11 12 12 13 15 16 18 20 22 25 27 29 30 31 33 34 36 38 40